<?xml version="1.0" encoding="UTF-8" standalone="no" ?>
<gpx xmlns="http://www.topografix.com/GPX/1/1" xmlns:xsi="http://www.w3.org/2001/XMLSchema-instance" xsi:schemaLocation="http://www.topografix.com/GPX/1/1 http://www.topografix.com/GPX/1/1/gpx.xsd" version="1.1" creator="VisuGPX - https://www.visugpx.com">
  <metadata>
    <name>1 Banassac-Gite de Plagnes 02-JUIN-12 </name>
    <desc><![CDATA[Tour des Monts d\'Aubrac- Etape 1]]></desc>
  </metadata>
  <trk>
    <name><![CDATA[02-JUIN-12 17:05:30]]></name>
    <trkseg>
      <trkpt lat="44.438" lon="3.19702">
        <ele>503.39</ele>
        <time>2012-06-02T05:59:43Z</time>
      </trkpt>
      <trkpt lat="44.43817" lon="3.19711">
        <ele>521.17</ele>
        <time>2012-06-02T06:00:17Z</time>
      </trkpt>
      <trkpt lat="44.43827" lon="3.19717">
        <ele>524.06</ele>
        <time>2012-06-02T06:00:25Z</time>
      </trkpt>
      <trkpt lat="44.43838" lon="3.19721">
        <ele>526.94</ele>
        <time>2012-06-02T06:00:34Z</time>
      </trkpt>
      <trkpt lat="44.43849" lon="3.19721">
        <ele>529.34</ele>
        <time>2012-06-02T06:00:42Z</time>
      </trkpt>
      <trkpt lat="44.43859" lon="3.19713">
        <ele>529.82</ele>
        <time>2012-06-02T06:00:51Z</time>
      </trkpt>
      <trkpt lat="44.43867" lon="3.19706">
        <ele>531.75</ele>
        <time>2012-06-02T06:00:58Z</time>
      </trkpt>
      <trkpt lat="44.43878" lon="3.19705">
        <ele>532.23</ele>
        <time>2012-06-02T06:01:06Z</time>
      </trkpt>
      <trkpt lat="44.43886" lon="3.19708">
        <ele>532.23</ele>
        <time>2012-06-02T06:01:12Z</time>
      </trkpt>
      <trkpt lat="44.43893" lon="3.19715">
        <ele>533.19</ele>
        <time>2012-06-02T06:01:19Z</time>
      </trkpt>
      <trkpt lat="44.43899" lon="3.19726">
        <ele>533.67</ele>
        <time>2012-06-02T06:01:26Z</time>
      </trkpt>
      <trkpt lat="44.43906" lon="3.19738">
        <ele>534.15</ele>
        <time>2012-06-02T06:01:36Z</time>
      </trkpt>
      <trkpt lat="44.43914" lon="3.19749">
        <ele>534.63</ele>
        <time>2012-06-02T06:01:43Z</time>
      </trkpt>
      <trkpt lat="44.43923" lon="3.19758">
        <ele>535.59</ele>
        <time>2012-06-02T06:01:51Z</time>
      </trkpt>
      <trkpt lat="44.43931" lon="3.19764">
        <ele>536.55</ele>
        <time>2012-06-02T06:01:58Z</time>
      </trkpt>
      <trkpt lat="44.43941" lon="3.19768">
        <ele>536.07</ele>
        <time>2012-06-02T06:02:04Z</time>
      </trkpt>
      <trkpt lat="44.43947" lon="3.19781">
        <ele>535.11</ele>
        <time>2012-06-02T06:02:12Z</time>
      </trkpt>
      <trkpt lat="44.43945" lon="3.19797">
        <ele>535.11</ele>
        <time>2012-06-02T06:02:23Z</time>
      </trkpt>
      <trkpt lat="44.43943" lon="3.1981">
        <ele>535.11</ele>
        <time>2012-06-02T06:02:31Z</time>
      </trkpt>
      <trkpt lat="44.4394" lon="3.19824">
        <ele>534.63</ele>
        <time>2012-06-02T06:02:39Z</time>
      </trkpt>
      <trkpt lat="44.43938" lon="3.19838">
        <ele>534.63</ele>
        <time>2012-06-02T06:02:46Z</time>
      </trkpt>
      <trkpt lat="44.4393" lon="3.19849">
        <ele>534.63</ele>
        <time>2012-06-02T06:02:54Z</time>
      </trkpt>
      <trkpt lat="44.43921" lon="3.19856">
        <ele>535.11</ele>
        <time>2012-06-02T06:03:01Z</time>
      </trkpt>
      <trkpt lat="44.43911" lon="3.19862">
        <ele>534.63</ele>
        <time>2012-06-02T06:03:09Z</time>
      </trkpt>
      <trkpt lat="44.439" lon="3.19869">
        <ele>534.63</ele>
        <time>2012-06-02T06:03:17Z</time>
      </trkpt>
      <trkpt lat="44.4389" lon="3.19873">
        <ele>535.11</ele>
        <time>2012-06-02T06:03:25Z</time>
      </trkpt>
      <trkpt lat="44.43881" lon="3.19881">
        <ele>534.63</ele>
        <time>2012-06-02T06:03:33Z</time>
      </trkpt>
      <trkpt lat="44.43871" lon="3.19886">
        <ele>534.63</ele>
        <time>2012-06-02T06:03:40Z</time>
      </trkpt>
      <trkpt lat="44.43861" lon="3.19891">
        <ele>534.63</ele>
        <time>2012-06-02T06:03:48Z</time>
      </trkpt>
      <trkpt lat="44.43852" lon="3.19897">
        <ele>535.11</ele>
        <time>2012-06-02T06:03:55Z</time>
      </trkpt>
      <trkpt lat="44.43843" lon="3.19901">
        <ele>535.11</ele>
        <time>2012-06-02T06:04:03Z</time>
      </trkpt>
      <trkpt lat="44.43834" lon="3.19905">
        <ele>535.59</ele>
        <time>2012-06-02T06:04:11Z</time>
      </trkpt>
      <trkpt lat="44.43824" lon="3.19912">
        <ele>536.07</ele>
        <time>2012-06-02T06:04:22Z</time>
      </trkpt>
      <trkpt lat="44.43813" lon="3.19916">
        <ele>536.55</ele>
        <time>2012-06-02T06:04:38Z</time>
      </trkpt>
      <trkpt lat="44.43803" lon="3.19925">
        <ele>537.03</ele>
        <time>2012-06-02T06:04:47Z</time>
      </trkpt>
      <trkpt lat="44.43793" lon="3.19931">
        <ele>537.99</ele>
        <time>2012-06-02T06:04:56Z</time>
      </trkpt>
      <trkpt lat="44.43783" lon="3.19937">
        <ele>537.99</ele>
        <time>2012-06-02T06:05:04Z</time>
      </trkpt>
      <trkpt lat="44.43774" lon="3.19944">
        <ele>538.48</ele>
        <time>2012-06-02T06:05:13Z</time>
      </trkpt>
      <trkpt lat="44.43766" lon="3.19949">
        <ele>538.48</ele>
        <time>2012-06-02T06:05:22Z</time>
      </trkpt>
      <trkpt lat="44.43755" lon="3.19957">
        <ele>538.48</ele>
        <time>2012-06-02T06:05:31Z</time>
      </trkpt>
      <trkpt lat="44.43746" lon="3.19967">
        <ele>539.92</ele>
        <time>2012-06-02T06:05:40Z</time>
      </trkpt>
      <trkpt lat="44.43735" lon="3.19973">
        <ele>539.92</ele>
        <time>2012-06-02T06:05:49Z</time>
      </trkpt>
      <trkpt lat="44.43727" lon="3.19977">
        <ele>540.88</ele>
        <time>2012-06-02T06:05:59Z</time>
      </trkpt>
      <trkpt lat="44.43718" lon="3.19982">
        <ele>541.36</ele>
        <time>2012-06-02T06:06:08Z</time>
      </trkpt>
      <trkpt lat="44.43707" lon="3.19988">
        <ele>541.84</ele>
        <time>2012-06-02T06:06:18Z</time>
      </trkpt>
      <trkpt lat="44.43697" lon="3.19992">
        <ele>541.84</ele>
        <time>2012-06-02T06:06:27Z</time>
      </trkpt>
      <trkpt lat="44.43687" lon="3.19998">
        <ele>542.32</ele>
        <time>2012-06-02T06:06:36Z</time>
      </trkpt>
      <trkpt lat="44.43677" lon="3.20007">
        <ele>542.8</ele>
        <time>2012-06-02T06:06:46Z</time>
      </trkpt>
      <trkpt lat="44.43666" lon="3.20012">
        <ele>542.8</ele>
        <time>2012-06-02T06:06:55Z</time>
      </trkpt>
      <trkpt lat="44.43655" lon="3.20018">
        <ele>543.76</ele>
        <time>2012-06-02T06:07:04Z</time>
      </trkpt>
      <trkpt lat="44.43647" lon="3.20025">
        <ele>543.76</ele>
        <time>2012-06-02T06:07:12Z</time>
      </trkpt>
      <trkpt lat="44.43638" lon="3.20032">
        <ele>544.24</ele>
        <time>2012-06-02T06:07:24Z</time>
      </trkpt>
      <trkpt lat="44.43633" lon="3.20038">
        <ele>544.72</ele>
        <time>2012-06-02T06:07:37Z</time>
      </trkpt>
      <trkpt lat="44.43641" lon="3.20035">
        <ele>545.69</ele>
        <time>2012-06-02T06:07:49Z</time>
      </trkpt>
      <trkpt lat="44.43648" lon="3.20041">
        <ele>546.17</ele>
        <time>2012-06-02T06:07:58Z</time>
      </trkpt>
      <trkpt lat="44.43657" lon="3.20046">
        <ele>545.2</ele>
        <time>2012-06-02T06:08:08Z</time>
      </trkpt>
      <trkpt lat="44.43665" lon="3.20043">
        <ele>544.72</ele>
        <time>2012-06-02T06:08:33Z</time>
      </trkpt>
      <trkpt lat="44.43661" lon="3.20037">
        <ele>544.72</ele>
        <time>2012-06-02T06:10:51Z</time>
      </trkpt>
      <trkpt lat="44.43652" lon="3.20038">
        <ele>545.2</ele>
        <time>2012-06-02T06:11:39Z</time>
      </trkpt>
      <trkpt lat="44.43644" lon="3.20034">
        <ele>546.65</ele>
        <time>2012-06-02T06:11:49Z</time>
      </trkpt>
      <trkpt lat="44.43631" lon="3.20037">
        <ele>544.72</ele>
        <time>2012-06-02T06:11:59Z</time>
      </trkpt>
      <trkpt lat="44.43621" lon="3.20039">
        <ele>545.69</ele>
        <time>2012-06-02T06:12:07Z</time>
      </trkpt>
      <trkpt lat="44.43611" lon="3.20045">
        <ele>546.65</ele>
        <time>2012-06-02T06:12:16Z</time>
      </trkpt>
      <trkpt lat="44.43602" lon="3.20053">
        <ele>545.69</ele>
        <time>2012-06-02T06:12:26Z</time>
      </trkpt>
      <trkpt lat="44.43592" lon="3.20058">
        <ele>546.17</ele>
        <time>2012-06-02T06:12:34Z</time>
      </trkpt>
      <trkpt lat="44.43583" lon="3.2007">
        <ele>546.17</ele>
        <time>2012-06-02T06:12:43Z</time>
      </trkpt>
      <trkpt lat="44.43576" lon="3.20083">
        <ele>547.61</ele>
        <time>2012-06-02T06:12:53Z</time>
      </trkpt>
      <trkpt lat="44.43567" lon="3.20092">
        <ele>547.61</ele>
        <time>2012-06-02T06:13:01Z</time>
      </trkpt>
      <trkpt lat="44.43557" lon="3.20097">
        <ele>547.61</ele>
        <time>2012-06-02T06:13:09Z</time>
      </trkpt>
      <trkpt lat="44.43547" lon="3.20102">
        <ele>547.61</ele>
        <time>2012-06-02T06:13:17Z</time>
      </trkpt>
      <trkpt lat="44.43537" lon="3.20102">
        <ele>547.13</ele>
        <time>2012-06-02T06:13:32Z</time>
      </trkpt>
      <trkpt lat="44.43528" lon="3.20104">
        <ele>548.09</ele>
        <time>2012-06-02T06:13:45Z</time>
      </trkpt>
      <trkpt lat="44.43518" lon="3.20108">
        <ele>548.57</ele>
        <time>2012-06-02T06:14:11Z</time>
      </trkpt>
      <trkpt lat="44.4351" lon="3.20116">
        <ele>549.53</ele>
        <time>2012-06-02T06:14:20Z</time>
      </trkpt>
      <trkpt lat="44.43501" lon="3.20126">
        <ele>550.01</ele>
        <time>2012-06-02T06:14:29Z</time>
      </trkpt>
      <trkpt lat="44.43492" lon="3.20136">
        <ele>549.05</ele>
        <time>2012-06-02T06:14:38Z</time>
      </trkpt>
      <trkpt lat="44.43486" lon="3.20146">
        <ele>550.01</ele>
        <time>2012-06-02T06:14:48Z</time>
      </trkpt>
      <trkpt lat="44.43481" lon="3.20161">
        <ele>550.97</ele>
        <time>2012-06-02T06:14:59Z</time>
      </trkpt>
      <trkpt lat="44.43471" lon="3.20175">
        <ele>550.49</ele>
        <time>2012-06-02T06:15:09Z</time>
      </trkpt>
      <trkpt lat="44.43468" lon="3.20183">
        <ele>550.49</ele>
        <time>2012-06-02T06:17:41Z</time>
      </trkpt>
      <trkpt lat="44.43468" lon="3.20181">
        <ele>550.97</ele>
        <time>2012-06-02T06:20:05Z</time>
      </trkpt>
      <trkpt lat="44.43469" lon="3.20182">
        <ele>550.49</ele>
        <time>2012-06-02T06:22:15Z</time>
      </trkpt>
      <trkpt lat="44.43473" lon="3.20168">
        <ele>550.49</ele>
        <time>2012-06-02T06:22:29Z</time>
      </trkpt>
      <trkpt lat="44.43474" lon="3.20148">
        <ele>550.49</ele>
        <time>2012-06-02T06:22:40Z</time>
      </trkpt>
      <trkpt lat="44.43484" lon="3.2014">
        <ele>550.01</ele>
        <time>2012-06-02T06:22:50Z</time>
      </trkpt>
      <trkpt lat="44.43492" lon="3.20132">
        <ele>549.53</ele>
        <time>2012-06-02T06:23:01Z</time>
      </trkpt>
      <trkpt lat="44.435" lon="3.20121">
        <ele>549.05</ele>
        <time>2012-06-02T06:23:10Z</time>
      </trkpt>
      <trkpt lat="44.43508" lon="3.20112">
        <ele>548.57</ele>
        <time>2012-06-02T06:23:19Z</time>
      </trkpt>
      <trkpt lat="44.4352" lon="3.20113">
        <ele>547.61</ele>
        <time>2012-06-02T06:23:27Z</time>
      </trkpt>
      <trkpt lat="44.43529" lon="3.20107">
        <ele>547.61</ele>
        <time>2012-06-02T06:23:35Z</time>
      </trkpt>
      <trkpt lat="44.43542" lon="3.20101">
        <ele>546.65</ele>
        <time>2012-06-02T06:23:46Z</time>
      </trkpt>
      <trkpt lat="44.43555" lon="3.20097">
        <ele>546.65</ele>
        <time>2012-06-02T06:23:56Z</time>
      </trkpt>
      <trkpt lat="44.43567" lon="3.20089">
        <ele>546.65</ele>
        <time>2012-06-02T06:24:06Z</time>
      </trkpt>
      <trkpt lat="44.43573" lon="3.20076">
        <ele>546.17</ele>
        <time>2012-06-02T06:24:16Z</time>
      </trkpt>
      <trkpt lat="44.43583" lon="3.20069">
        <ele>545.69</ele>
        <time>2012-06-02T06:24:24Z</time>
      </trkpt>
      <trkpt lat="44.43594" lon="3.2006">
        <ele>545.69</ele>
        <time>2012-06-02T06:24:35Z</time>
      </trkpt>
      <trkpt lat="44.43604" lon="3.20052">
        <ele>544.72</ele>
        <time>2012-06-02T06:24:46Z</time>
      </trkpt>
      <trkpt lat="44.43614" lon="3.20046">
        <ele>544.72</ele>
        <time>2012-06-02T06:24:54Z</time>
      </trkpt>
      <trkpt lat="44.43624" lon="3.20038">
        <ele>544.72</ele>
        <time>2012-06-02T06:25:03Z</time>
      </trkpt>
      <trkpt lat="44.43632" lon="3.20029">
        <ele>543.76</ele>
        <time>2012-06-02T06:25:16Z</time>
      </trkpt>
      <trkpt lat="44.43645" lon="3.20021">
        <ele>543.76</ele>
        <time>2012-06-02T06:25:27Z</time>
      </trkpt>
      <trkpt lat="44.43655" lon="3.20013">
        <ele>542.8</ele>
        <time>2012-06-02T06:25:34Z</time>
      </trkpt>
      <trkpt lat="44.4367" lon="3.20006">
        <ele>542.32</ele>
        <time>2012-06-02T06:25:45Z</time>
      </trkpt>
      <trkpt lat="44.43681" lon="3.19998">
        <ele>541.36</ele>
        <time>2012-06-02T06:25:54Z</time>
      </trkpt>
      <trkpt lat="44.43691" lon="3.19993">
        <ele>541.36</ele>
        <time>2012-06-02T06:26:02Z</time>
      </trkpt>
      <trkpt lat="44.43701" lon="3.19987">
        <ele>541.36</ele>
        <time>2012-06-02T06:26:10Z</time>
      </trkpt>
      <trkpt lat="44.4371" lon="3.19979">
        <ele>539.92</ele>
        <time>2012-06-02T06:26:18Z</time>
      </trkpt>
      <trkpt lat="44.43722" lon="3.19978">
        <ele>539.92</ele>
        <time>2012-06-02T06:26:27Z</time>
      </trkpt>
      <trkpt lat="44.43732" lon="3.19973">
        <ele>539.44</ele>
        <time>2012-06-02T06:26:38Z</time>
      </trkpt>
      <trkpt lat="44.43746" lon="3.19972">
        <ele>538.96</ele>
        <time>2012-06-02T06:26:48Z</time>
      </trkpt>
      <trkpt lat="44.43755" lon="3.19967">
        <ele>538.48</ele>
        <time>2012-06-02T06:26:56Z</time>
      </trkpt>
      <trkpt lat="44.43767" lon="3.19964">
        <ele>537.99</ele>
        <time>2012-06-02T06:27:06Z</time>
      </trkpt>
      <trkpt lat="44.43775" lon="3.19956">
        <ele>537.03</ele>
        <time>2012-06-02T06:27:15Z</time>
      </trkpt>
      <trkpt lat="44.43785" lon="3.19949">
        <ele>537.03</ele>
        <time>2012-06-02T06:27:23Z</time>
      </trkpt>
      <trkpt lat="44.43795" lon="3.19942">
        <ele>536.07</ele>
        <time>2012-06-02T06:27:33Z</time>
      </trkpt>
      <trkpt lat="44.43805" lon="3.19933">
        <ele>535.59</ele>
        <time>2012-06-02T06:27:43Z</time>
      </trkpt>
      <trkpt lat="44.43814" lon="3.19926">
        <ele>534.63</ele>
        <time>2012-06-02T06:27:52Z</time>
      </trkpt>
      <trkpt lat="44.43824" lon="3.1992">
        <ele>534.15</ele>
        <time>2012-06-02T06:28:01Z</time>
      </trkpt>
      <trkpt lat="44.43838" lon="3.19912">
        <ele>533.67</ele>
        <time>2012-06-02T06:28:12Z</time>
      </trkpt>
      <trkpt lat="44.43851" lon="3.19907">
        <ele>532.71</ele>
        <time>2012-06-02T06:28:20Z</time>
      </trkpt>
      <trkpt lat="44.43862" lon="3.19901">
        <ele>532.71</ele>
        <time>2012-06-02T06:28:30Z</time>
      </trkpt>
      <trkpt lat="44.43871" lon="3.19895">
        <ele>532.71</ele>
        <time>2012-06-02T06:28:42Z</time>
      </trkpt>
      <trkpt lat="44.43882" lon="3.19889">
        <ele>532.71</ele>
        <time>2012-06-02T06:28:51Z</time>
      </trkpt>
      <trkpt lat="44.43895" lon="3.19882">
        <ele>532.23</ele>
        <time>2012-06-02T06:29:01Z</time>
      </trkpt>
      <trkpt lat="44.43906" lon="3.19874">
        <ele>532.23</ele>
        <time>2012-06-02T06:29:12Z</time>
      </trkpt>
      <trkpt lat="44.43918" lon="3.19868">
        <ele>532.23</ele>
        <time>2012-06-02T06:29:23Z</time>
      </trkpt>
      <trkpt lat="44.43931" lon="3.19861">
        <ele>532.23</ele>
        <time>2012-06-02T06:29:32Z</time>
      </trkpt>
      <trkpt lat="44.43944" lon="3.19857">
        <ele>532.23</ele>
        <time>2012-06-02T06:29:41Z</time>
      </trkpt>
      <trkpt lat="44.43953" lon="3.19852">
        <ele>532.23</ele>
        <time>2012-06-02T06:29:49Z</time>
      </trkpt>
      <trkpt lat="44.43961" lon="3.19844">
        <ele>532.23</ele>
        <time>2012-06-02T06:29:57Z</time>
      </trkpt>
      <trkpt lat="44.43969" lon="3.19836">
        <ele>532.23</ele>
        <time>2012-06-02T06:30:05Z</time>
      </trkpt>
      <trkpt lat="44.4398" lon="3.19829">
        <ele>532.23</ele>
        <time>2012-06-02T06:30:13Z</time>
      </trkpt>
      <trkpt lat="44.43989" lon="3.19823">
        <ele>532.23</ele>
        <time>2012-06-02T06:30:21Z</time>
      </trkpt>
      <trkpt lat="44.44002" lon="3.1982">
        <ele>532.23</ele>
        <time>2012-06-02T06:30:31Z</time>
      </trkpt>
      <trkpt lat="44.44019" lon="3.19818">
        <ele>531.75</ele>
        <time>2012-06-02T06:30:43Z</time>
      </trkpt>
      <trkpt lat="44.44038" lon="3.19821">
        <ele>531.27</ele>
        <time>2012-06-02T06:30:59Z</time>
      </trkpt>
      <trkpt lat="44.44058" lon="3.19818">
        <ele>531.75</ele>
        <time>2012-06-02T06:31:13Z</time>
      </trkpt>
      <trkpt lat="44.44074" lon="3.19822">
        <ele>532.23</ele>
        <time>2012-06-02T06:31:28Z</time>
      </trkpt>
      <trkpt lat="44.44087" lon="3.19825">
        <ele>532.23</ele>
        <time>2012-06-02T06:31:56Z</time>
      </trkpt>
      <trkpt lat="44.44097" lon="3.19837">
        <ele>532.71</ele>
        <time>2012-06-02T06:32:07Z</time>
      </trkpt>
      <trkpt lat="44.44111" lon="3.19837">
        <ele>533.67</ele>
        <time>2012-06-02T06:32:18Z</time>
      </trkpt>
      <trkpt lat="44.44124" lon="3.19841">
        <ele>533.67</ele>
        <time>2012-06-02T06:32:28Z</time>
      </trkpt>
      <trkpt lat="44.44135" lon="3.19845">
        <ele>534.63</ele>
        <time>2012-06-02T06:32:38Z</time>
      </trkpt>
      <trkpt lat="44.44148" lon="3.19851">
        <ele>534.63</ele>
        <time>2012-06-02T06:32:47Z</time>
      </trkpt>
      <trkpt lat="44.44163" lon="3.19855">
        <ele>534.15</ele>
        <time>2012-06-02T06:32:57Z</time>
      </trkpt>
      <trkpt lat="44.44174" lon="3.19858">
        <ele>534.63</ele>
        <time>2012-06-02T06:33:06Z</time>
      </trkpt>
      <trkpt lat="44.44183" lon="3.19866">
        <ele>535.11</ele>
        <time>2012-06-02T06:33:15Z</time>
      </trkpt>
      <trkpt lat="44.44197" lon="3.19868">
        <ele>534.63</ele>
        <time>2012-06-02T06:33:26Z</time>
      </trkpt>
      <trkpt lat="44.44208" lon="3.19873">
        <ele>534.63</ele>
        <time>2012-06-02T06:33:37Z</time>
      </trkpt>
      <trkpt lat="44.44217" lon="3.19882">
        <ele>535.11</ele>
        <time>2012-06-02T06:33:46Z</time>
      </trkpt>
      <trkpt lat="44.44228" lon="3.19881">
        <ele>534.63</ele>
        <time>2012-06-02T06:33:53Z</time>
      </trkpt>
      <trkpt lat="44.44239" lon="3.19877">
        <ele>535.59</ele>
        <time>2012-06-02T06:34:06Z</time>
      </trkpt>
      <trkpt lat="44.44249" lon="3.19863">
        <ele>535.59</ele>
        <time>2012-06-02T06:34:16Z</time>
      </trkpt>
      <trkpt lat="44.44256" lon="3.1985">
        <ele>536.07</ele>
        <time>2012-06-02T06:34:23Z</time>
      </trkpt>
      <trkpt lat="44.44264" lon="3.19836">
        <ele>536.55</ele>
        <time>2012-06-02T06:34:31Z</time>
      </trkpt>
      <trkpt lat="44.44267" lon="3.19825">
        <ele>536.55</ele>
        <time>2012-06-02T06:34:48Z</time>
      </trkpt>
      <trkpt lat="44.44272" lon="3.19814">
        <ele>536.07</ele>
        <time>2012-06-02T06:35:45Z</time>
      </trkpt>
      <trkpt lat="44.44277" lon="3.198">
        <ele>536.07</ele>
        <time>2012-06-02T06:35:54Z</time>
      </trkpt>
      <trkpt lat="44.44282" lon="3.19787">
        <ele>536.07</ele>
        <time>2012-06-02T06:36:03Z</time>
      </trkpt>
      <trkpt lat="44.44289" lon="3.19772">
        <ele>535.59</ele>
        <time>2012-06-02T06:36:12Z</time>
      </trkpt>
      <trkpt lat="44.44295" lon="3.19757">
        <ele>535.59</ele>
        <time>2012-06-02T06:36:21Z</time>
      </trkpt>
      <trkpt lat="44.44296" lon="3.19744">
        <ele>535.11</ele>
        <time>2012-06-02T06:36:30Z</time>
      </trkpt>
      <trkpt lat="44.44301" lon="3.19729">
        <ele>534.63</ele>
        <time>2012-06-02T06:36:38Z</time>
      </trkpt>
      <trkpt lat="44.44306" lon="3.19717">
        <ele>534.63</ele>
        <time>2012-06-02T06:36:47Z</time>
      </trkpt>
      <trkpt lat="44.44312" lon="3.19704">
        <ele>533.67</ele>
        <time>2012-06-02T06:36:57Z</time>
      </trkpt>
      <trkpt lat="44.44322" lon="3.19692">
        <ele>534.15</ele>
        <time>2012-06-02T06:37:15Z</time>
      </trkpt>
      <trkpt lat="44.44329" lon="3.19676">
        <ele>533.67</ele>
        <time>2012-06-02T06:37:26Z</time>
      </trkpt>
      <trkpt lat="44.44332" lon="3.19661">
        <ele>533.67</ele>
        <time>2012-06-02T06:37:35Z</time>
      </trkpt>
      <trkpt lat="44.44333" lon="3.19644">
        <ele>533.67</ele>
        <time>2012-06-02T06:37:48Z</time>
      </trkpt>
      <trkpt lat="44.44331" lon="3.19628">
        <ele>533.67</ele>
        <time>2012-06-02T06:37:56Z</time>
      </trkpt>
      <trkpt lat="44.44328" lon="3.19614">
        <ele>533.19</ele>
        <time>2012-06-02T06:38:05Z</time>
      </trkpt>
      <trkpt lat="44.44325" lon="3.19601">
        <ele>533.19</ele>
        <time>2012-06-02T06:38:13Z</time>
      </trkpt>
      <trkpt lat="44.44321" lon="3.19588">
        <ele>533.19</ele>
        <time>2012-06-02T06:38:24Z</time>
      </trkpt>
      <trkpt lat="44.44318" lon="3.19574">
        <ele>532.23</ele>
        <time>2012-06-02T06:38:49Z</time>
      </trkpt>
      <trkpt lat="44.44311" lon="3.19561">
        <ele>532.71</ele>
        <time>2012-06-02T06:38:59Z</time>
      </trkpt>
      <trkpt lat="44.44302" lon="3.19549">
        <ele>532.71</ele>
        <time>2012-06-02T06:39:08Z</time>
      </trkpt>
      <trkpt lat="44.44294" lon="3.19539">
        <ele>532.71</ele>
        <time>2012-06-02T06:39:17Z</time>
      </trkpt>
      <trkpt lat="44.44284" lon="3.19528">
        <ele>532.23</ele>
        <time>2012-06-02T06:39:24Z</time>
      </trkpt>
      <trkpt lat="44.44271" lon="3.19505">
        <ele>532.23</ele>
        <time>2012-06-02T06:39:37Z</time>
      </trkpt>
      <trkpt lat="44.44263" lon="3.19491">
        <ele>531.75</ele>
        <time>2012-06-02T06:39:48Z</time>
      </trkpt>
      <trkpt lat="44.44253" lon="3.19481">
        <ele>531.27</ele>
        <time>2012-06-02T06:39:59Z</time>
      </trkpt>
      <trkpt lat="44.44245" lon="3.19473">
        <ele>530.79</ele>
        <time>2012-06-02T06:40:07Z</time>
      </trkpt>
      <trkpt lat="44.44228" lon="3.19455">
        <ele>530.3</ele>
        <time>2012-06-02T06:40:19Z</time>
      </trkpt>
      <trkpt lat="44.44221" lon="3.19446">
        <ele>530.79</ele>
        <time>2012-06-02T06:40:26Z</time>
      </trkpt>
      <trkpt lat="44.44215" lon="3.19436">
        <ele>530.3</ele>
        <time>2012-06-02T06:40:34Z</time>
      </trkpt>
      <trkpt lat="44.44207" lon="3.19426">
        <ele>530.3</ele>
        <time>2012-06-02T06:40:44Z</time>
      </trkpt>
      <trkpt lat="44.44196" lon="3.19416">
        <ele>529.34</ele>
        <time>2012-06-02T06:40:58Z</time>
      </trkpt>
      <trkpt lat="44.44188" lon="3.19407">
        <ele>529.82</ele>
        <time>2012-06-02T06:41:07Z</time>
      </trkpt>
      <trkpt lat="44.44178" lon="3.19395">
        <ele>528.86</ele>
        <time>2012-06-02T06:41:18Z</time>
      </trkpt>
      <trkpt lat="44.44168" lon="3.19382">
        <ele>528.86</ele>
        <time>2012-06-02T06:41:33Z</time>
      </trkpt>
      <trkpt lat="44.44154" lon="3.19366">
        <ele>528.86</ele>
        <time>2012-06-02T06:41:42Z</time>
      </trkpt>
      <trkpt lat="44.44144" lon="3.19352">
        <ele>528.86</ele>
        <time>2012-06-02T06:41:50Z</time>
      </trkpt>
      <trkpt lat="44.44136" lon="3.19341">
        <ele>528.38</ele>
        <time>2012-06-02T06:41:58Z</time>
      </trkpt>
      <trkpt lat="44.44129" lon="3.19328">
        <ele>528.38</ele>
        <time>2012-06-02T06:42:06Z</time>
      </trkpt>
      <trkpt lat="44.44123" lon="3.19317">
        <ele>528.38</ele>
        <time>2012-06-02T06:42:13Z</time>
      </trkpt>
      <trkpt lat="44.44119" lon="3.19301">
        <ele>528.38</ele>
        <time>2012-06-02T06:42:23Z</time>
      </trkpt>
      <trkpt lat="44.44113" lon="3.19287">
        <ele>527.9</ele>
        <time>2012-06-02T06:42:31Z</time>
      </trkpt>
      <trkpt lat="44.44109" lon="3.19275">
        <ele>527.9</ele>
        <time>2012-06-02T06:42:41Z</time>
      </trkpt>
      <trkpt lat="44.44101" lon="3.19258">
        <ele>528.86</ele>
        <time>2012-06-02T06:42:52Z</time>
      </trkpt>
      <trkpt lat="44.44096" lon="3.1924">
        <ele>528.86</ele>
        <time>2012-06-02T06:43:03Z</time>
      </trkpt>
      <trkpt lat="44.44092" lon="3.19223">
        <ele>528.86</ele>
        <time>2012-06-02T06:43:13Z</time>
      </trkpt>
      <trkpt lat="44.4409" lon="3.1921">
        <ele>528.38</ele>
        <time>2012-06-02T06:43:22Z</time>
      </trkpt>
      <trkpt lat="44.44086" lon="3.19194">
        <ele>527.9</ele>
        <time>2012-06-02T06:43:32Z</time>
      </trkpt>
      <trkpt lat="44.44082" lon="3.19178">
        <ele>528.38</ele>
        <time>2012-06-02T06:43:41Z</time>
      </trkpt>
      <trkpt lat="44.4408" lon="3.19164">
        <ele>527.9</ele>
        <time>2012-06-02T06:43:49Z</time>
      </trkpt>
      <trkpt lat="44.44077" lon="3.1915">
        <ele>528.86</ele>
        <time>2012-06-02T06:43:57Z</time>
      </trkpt>
      <trkpt lat="44.44075" lon="3.19136">
        <ele>528.38</ele>
        <time>2012-06-02T06:44:06Z</time>
      </trkpt>
      <trkpt lat="44.44072" lon="3.19119">
        <ele>528.38</ele>
        <time>2012-06-02T06:44:15Z</time>
      </trkpt>
      <trkpt lat="44.4407" lon="3.19106">
        <ele>528.86</ele>
        <time>2012-06-02T06:44:23Z</time>
      </trkpt>
      <trkpt lat="44.44067" lon="3.19091">
        <ele>528.86</ele>
        <time>2012-06-02T06:44:32Z</time>
      </trkpt>
      <trkpt lat="44.44067" lon="3.19075">
        <ele>529.82</ele>
        <time>2012-06-02T06:44:42Z</time>
      </trkpt>
      <trkpt lat="44.44066" lon="3.19058">
        <ele>529.82</ele>
        <time>2012-06-02T06:44:50Z</time>
      </trkpt>
      <trkpt lat="44.44065" lon="3.19042">
        <ele>529.34</ele>
        <time>2012-06-02T06:44:58Z</time>
      </trkpt>
      <trkpt lat="44.44065" lon="3.19027">
        <ele>529.34</ele>
        <time>2012-06-02T06:45:05Z</time>
      </trkpt>
      <trkpt lat="44.44065" lon="3.19011">
        <ele>529.34</ele>
        <time>2012-06-02T06:45:14Z</time>
      </trkpt>
      <trkpt lat="44.44064" lon="3.18997">
        <ele>529.82</ele>
        <time>2012-06-02T06:45:22Z</time>
      </trkpt>
      <trkpt lat="44.44063" lon="3.18984">
        <ele>529.82</ele>
        <time>2012-06-02T06:45:29Z</time>
      </trkpt>
      <trkpt lat="44.44062" lon="3.18969">
        <ele>530.3</ele>
        <time>2012-06-02T06:45:38Z</time>
      </trkpt>
      <trkpt lat="44.44061" lon="3.18953">
        <ele>531.27</ele>
        <time>2012-06-02T06:45:47Z</time>
      </trkpt>
      <trkpt lat="44.4406" lon="3.18938">
        <ele>531.75</ele>
        <time>2012-06-02T06:45:56Z</time>
      </trkpt>
      <trkpt lat="44.44058" lon="3.18921">
        <ele>532.23</ele>
        <time>2012-06-02T06:46:06Z</time>
      </trkpt>
      <trkpt lat="44.44055" lon="3.18906">
        <ele>532.71</ele>
        <time>2012-06-02T06:46:14Z</time>
      </trkpt>
      <trkpt lat="44.44052" lon="3.18893">
        <ele>533.19</ele>
        <time>2012-06-02T06:46:23Z</time>
      </trkpt>
      <trkpt lat="44.44049" lon="3.18877">
        <ele>533.19</ele>
        <time>2012-06-02T06:46:31Z</time>
      </trkpt>
      <trkpt lat="44.44045" lon="3.18863">
        <ele>534.15</ele>
        <time>2012-06-02T06:46:39Z</time>
      </trkpt>
      <trkpt lat="44.44042" lon="3.18848">
        <ele>534.63</ele>
        <time>2012-06-02T06:46:47Z</time>
      </trkpt>
      <trkpt lat="44.4404" lon="3.18833">
        <ele>535.11</ele>
        <time>2012-06-02T06:47:02Z</time>
      </trkpt>
      <trkpt lat="44.44049" lon="3.18826">
        <ele>535.11</ele>
        <time>2012-06-02T06:47:11Z</time>
      </trkpt>
      <trkpt lat="44.44057" lon="3.18819">
        <ele>535.59</ele>
        <time>2012-06-02T06:47:22Z</time>
      </trkpt>
      <trkpt lat="44.44067" lon="3.18819">
        <ele>536.55</ele>
        <time>2012-06-02T06:47:51Z</time>
      </trkpt>
      <trkpt lat="44.44076" lon="3.18813">
        <ele>537.03</ele>
        <time>2012-06-02T06:48:01Z</time>
      </trkpt>
      <trkpt lat="44.44087" lon="3.18806">
        <ele>538.48</ele>
        <time>2012-06-02T06:48:11Z</time>
      </trkpt>
      <trkpt lat="44.44095" lon="3.18796">
        <ele>539.44</ele>
        <time>2012-06-02T06:48:22Z</time>
      </trkpt>
      <trkpt lat="44.44105" lon="3.18786">
        <ele>540.88</ele>
        <time>2012-06-02T06:48:31Z</time>
      </trkpt>
      <trkpt lat="44.44111" lon="3.18771">
        <ele>541.84</ele>
        <time>2012-06-02T06:48:42Z</time>
      </trkpt>
      <trkpt lat="44.44113" lon="3.18758">
        <ele>542.8</ele>
        <time>2012-06-02T06:48:51Z</time>
      </trkpt>
      <trkpt lat="44.44115" lon="3.18746">
        <ele>544.72</ele>
        <time>2012-06-02T06:49:01Z</time>
      </trkpt>
      <trkpt lat="44.44113" lon="3.18733">
        <ele>545.2</ele>
        <time>2012-06-02T06:49:12Z</time>
      </trkpt>
      <trkpt lat="44.44106" lon="3.18719">
        <ele>546.65</ele>
        <time>2012-06-02T06:49:21Z</time>
      </trkpt>
      <trkpt lat="44.44098" lon="3.18705">
        <ele>547.61</ele>
        <time>2012-06-02T06:49:35Z</time>
      </trkpt>
      <trkpt lat="44.44092" lon="3.18692">
        <ele>549.05</ele>
        <time>2012-06-02T06:49:43Z</time>
      </trkpt>
      <trkpt lat="44.44088" lon="3.18687">
        <ele>550.01</ele>
        <time>2012-06-02T06:50:44Z</time>
      </trkpt>
      <trkpt lat="44.44081" lon="3.18675">
        <ele>550.49</ele>
        <time>2012-06-02T06:50:54Z</time>
      </trkpt>
      <trkpt lat="44.44077" lon="3.18659">
        <ele>551.93</ele>
        <time>2012-06-02T06:51:03Z</time>
      </trkpt>
      <trkpt lat="44.44074" lon="3.18645">
        <ele>552.9</ele>
        <time>2012-06-02T06:51:11Z</time>
      </trkpt>
      <trkpt lat="44.44077" lon="3.18627">
        <ele>554.34</ele>
        <time>2012-06-02T06:51:22Z</time>
      </trkpt>
      <trkpt lat="44.44083" lon="3.18615">
        <ele>554.34</ele>
        <time>2012-06-02T06:51:30Z</time>
      </trkpt>
      <trkpt lat="44.44091" lon="3.18603">
        <ele>555.3</ele>
        <time>2012-06-02T06:51:40Z</time>
      </trkpt>
      <trkpt lat="44.44104" lon="3.18601">
        <ele>555.78</ele>
        <time>2012-06-02T06:51:54Z</time>
      </trkpt>
      <trkpt lat="44.44116" lon="3.18606">
        <ele>556.26</ele>
        <time>2012-06-02T06:52:05Z</time>
      </trkpt>
      <trkpt lat="44.44129" lon="3.18615">
        <ele>557.7</ele>
        <time>2012-06-02T06:52:15Z</time>
      </trkpt>
      <trkpt lat="44.4414" lon="3.18624">
        <ele>558.66</ele>
        <time>2012-06-02T06:52:24Z</time>
      </trkpt>
      <trkpt lat="44.44148" lon="3.18634">
        <ele>558.66</ele>
        <time>2012-06-02T06:52:35Z</time>
      </trkpt>
      <trkpt lat="44.44157" lon="3.18642">
        <ele>559.62</ele>
        <time>2012-06-02T06:52:45Z</time>
      </trkpt>
      <trkpt lat="44.44168" lon="3.1865">
        <ele>561.55</ele>
        <time>2012-06-02T06:52:55Z</time>
      </trkpt>
      <trkpt lat="44.44178" lon="3.18661">
        <ele>562.51</ele>
        <time>2012-06-02T06:53:06Z</time>
      </trkpt>
      <trkpt lat="44.44189" lon="3.18668">
        <ele>563.95</ele>
        <time>2012-06-02T06:53:17Z</time>
      </trkpt>
      <trkpt lat="44.442" lon="3.18675">
        <ele>564.91</ele>
        <time>2012-06-02T06:53:29Z</time>
      </trkpt>
      <trkpt lat="44.44211" lon="3.18684">
        <ele>565.87</ele>
        <time>2012-06-02T06:53:41Z</time>
      </trkpt>
      <trkpt lat="44.44219" lon="3.18694">
        <ele>567.32</ele>
        <time>2012-06-02T06:53:52Z</time>
      </trkpt>
      <trkpt lat="44.44228" lon="3.187">
        <ele>568.76</ele>
        <time>2012-06-02T06:54:02Z</time>
      </trkpt>
      <trkpt lat="44.4424" lon="3.18707">
        <ele>570.68</ele>
        <time>2012-06-02T06:54:13Z</time>
      </trkpt>
      <trkpt lat="44.44251" lon="3.18716">
        <ele>571.16</ele>
        <time>2012-06-02T06:54:23Z</time>
      </trkpt>
      <trkpt lat="44.4426" lon="3.18723">
        <ele>572.12</ele>
        <time>2012-06-02T06:54:33Z</time>
      </trkpt>
      <trkpt lat="44.44269" lon="3.18732">
        <ele>574.04</ele>
        <time>2012-06-02T06:54:42Z</time>
      </trkpt>
      <trkpt lat="44.44275" lon="3.18744">
        <ele>574.04</ele>
        <time>2012-06-02T06:54:52Z</time>
      </trkpt>
      <trkpt lat="44.44281" lon="3.18754">
        <ele>575.97</ele>
        <time>2012-06-02T06:55:01Z</time>
      </trkpt>
      <trkpt lat="44.44286" lon="3.18764">
        <ele>576.45</ele>
        <time>2012-06-02T06:55:11Z</time>
      </trkpt>
      <trkpt lat="44.44297" lon="3.18768">
        <ele>577.89</ele>
        <time>2012-06-02T06:55:25Z</time>
      </trkpt>
      <trkpt lat="44.44313" lon="3.1876">
        <ele>579.81</ele>
        <time>2012-06-02T06:55:40Z</time>
      </trkpt>
      <trkpt lat="44.44321" lon="3.18749">
        <ele>580.29</ele>
        <time>2012-06-02T06:55:48Z</time>
      </trkpt>
      <trkpt lat="44.44321" lon="3.18732">
        <ele>581.25</ele>
        <time>2012-06-02T06:55:58Z</time>
      </trkpt>
      <trkpt lat="44.44319" lon="3.18718">
        <ele>582.7</ele>
        <time>2012-06-02T06:56:07Z</time>
      </trkpt>
      <trkpt lat="44.44317" lon="3.18706">
        <ele>583.66</ele>
        <time>2012-06-02T06:56:15Z</time>
      </trkpt>
      <trkpt lat="44.44314" lon="3.18691">
        <ele>585.1</ele>
        <time>2012-06-02T06:56:25Z</time>
      </trkpt>
      <trkpt lat="44.44312" lon="3.18678">
        <ele>585.58</ele>
        <time>2012-06-02T06:56:34Z</time>
      </trkpt>
      <trkpt lat="44.44308" lon="3.18664">
        <ele>587.02</ele>
        <time>2012-06-02T06:56:44Z</time>
      </trkpt>
      <trkpt lat="44.44303" lon="3.18653">
        <ele>588.46</ele>
        <time>2012-06-02T06:56:52Z</time>
      </trkpt>
      <trkpt lat="44.44297" lon="3.18644">
        <ele>589.43</ele>
        <time>2012-06-02T06:57:00Z</time>
      </trkpt>
      <trkpt lat="44.44287" lon="3.18635">
        <ele>589.91</ele>
        <time>2012-06-02T06:57:10Z</time>
      </trkpt>
      <trkpt lat="44.44279" lon="3.18627">
        <ele>589.91</ele>
        <time>2012-06-02T06:57:17Z</time>
      </trkpt>
      <trkpt lat="44.44272" lon="3.18614">
        <ele>590.39</ele>
        <time>2012-06-02T06:57:28Z</time>
      </trkpt>
      <trkpt lat="44.44267" lon="3.18596">
        <ele>590.87</ele>
        <time>2012-06-02T06:57:39Z</time>
      </trkpt>
      <trkpt lat="44.44264" lon="3.18579">
        <ele>590.87</ele>
        <time>2012-06-02T06:58:08Z</time>
      </trkpt>
      <trkpt lat="44.44259" lon="3.18561">
        <ele>590.87</ele>
        <time>2012-06-02T06:58:19Z</time>
      </trkpt>
      <trkpt lat="44.44256" lon="3.18545">
        <ele>591.83</ele>
        <time>2012-06-02T06:58:28Z</time>
      </trkpt>
      <trkpt lat="44.44253" lon="3.18529">
        <ele>592.79</ele>
        <time>2012-06-02T06:58:38Z</time>
      </trkpt>
      <trkpt lat="44.44248" lon="3.18518">
        <ele>591.83</ele>
        <time>2012-06-02T06:58:54Z</time>
      </trkpt>
      <trkpt lat="44.44238" lon="3.18502">
        <ele>590.87</ele>
        <time>2012-06-02T06:59:06Z</time>
      </trkpt>
      <trkpt lat="44.44232" lon="3.18488">
        <ele>589.91</ele>
        <time>2012-06-02T06:59:15Z</time>
      </trkpt>
      <trkpt lat="44.44231" lon="3.18473">
        <ele>590.39</ele>
        <time>2012-06-02T06:59:23Z</time>
      </trkpt>
      <trkpt lat="44.44235" lon="3.18459">
        <ele>591.83</ele>
        <time>2012-06-02T06:59:52Z</time>
      </trkpt>
      <trkpt lat="44.44239" lon="3.18446">
        <ele>593.27</ele>
        <time>2012-06-02T07:00:04Z</time>
      </trkpt>
      <trkpt lat="44.44239" lon="3.1843">
        <ele>595.19</ele>
        <time>2012-06-02T07:00:16Z</time>
      </trkpt>
      <trkpt lat="44.44246" lon="3.18417">
        <ele>597.6</ele>
        <time>2012-06-02T07:00:28Z</time>
      </trkpt>
      <trkpt lat="44.44254" lon="3.18406">
        <ele>599.52</ele>
        <time>2012-06-02T07:00:40Z</time>
      </trkpt>
      <trkpt lat="44.44261" lon="3.18392">
        <ele>601.92</ele>
        <time>2012-06-02T07:00:53Z</time>
      </trkpt>
      <trkpt lat="44.44266" lon="3.18378">
        <ele>604.81</ele>
        <time>2012-06-02T07:01:08Z</time>
      </trkpt>
      <trkpt lat="44.44268" lon="3.1836">
        <ele>606.25</ele>
        <time>2012-06-02T07:01:19Z</time>
      </trkpt>
      <trkpt lat="44.44273" lon="3.18346">
        <ele>607.69</ele>
        <time>2012-06-02T07:01:30Z</time>
      </trkpt>
      <trkpt lat="44.44282" lon="3.18332">
        <ele>610.09</ele>
        <time>2012-06-02T07:01:42Z</time>
      </trkpt>
      <trkpt lat="44.4429" lon="3.18321">
        <ele>611.54</ele>
        <time>2012-06-02T07:01:54Z</time>
      </trkpt>
      <trkpt lat="44.44297" lon="3.18305">
        <ele>612.98</ele>
        <time>2012-06-02T07:02:06Z</time>
      </trkpt>
      <trkpt lat="44.44303" lon="3.18293">
        <ele>616.34</ele>
        <time>2012-06-02T07:02:23Z</time>
      </trkpt>
      <trkpt lat="44.44318" lon="3.18275">
        <ele>618.26</ele>
        <time>2012-06-02T07:02:41Z</time>
      </trkpt>
      <trkpt lat="44.44326" lon="3.18261">
        <ele>620.19</ele>
        <time>2012-06-02T07:02:54Z</time>
      </trkpt>
      <trkpt lat="44.44331" lon="3.18238">
        <ele>622.11</ele>
        <time>2012-06-02T07:03:10Z</time>
      </trkpt>
      <trkpt lat="44.44333" lon="3.18217">
        <ele>624.51</ele>
        <time>2012-06-02T07:03:27Z</time>
      </trkpt>
      <trkpt lat="44.44343" lon="3.18201">
        <ele>625.47</ele>
        <time>2012-06-02T07:03:43Z</time>
      </trkpt>
      <trkpt lat="44.44358" lon="3.18201">
        <ele>627.4</ele>
        <time>2012-06-02T07:04:00Z</time>
      </trkpt>
      <trkpt lat="44.44378" lon="3.182">
        <ele>628.84</ele>
        <time>2012-06-02T07:04:25Z</time>
      </trkpt>
      <trkpt lat="44.44392" lon="3.18193">
        <ele>630.76</ele>
        <time>2012-06-02T07:04:43Z</time>
      </trkpt>
      <trkpt lat="44.44409" lon="3.18178">
        <ele>633.17</ele>
        <time>2012-06-02T07:05:14Z</time>
      </trkpt>
      <trkpt lat="44.44423" lon="3.18159">
        <ele>635.09</ele>
        <time>2012-06-02T07:05:33Z</time>
      </trkpt>
      <trkpt lat="44.44435" lon="3.18145">
        <ele>636.53</ele>
        <time>2012-06-02T07:05:47Z</time>
      </trkpt>
      <trkpt lat="44.44453" lon="3.18135">
        <ele>637.01</ele>
        <time>2012-06-02T07:05:59Z</time>
      </trkpt>
      <trkpt lat="44.44465" lon="3.18124">
        <ele>639.41</ele>
        <time>2012-06-02T07:06:24Z</time>
      </trkpt>
      <trkpt lat="44.44473" lon="3.18111">
        <ele>638.93</ele>
        <time>2012-06-02T07:06:34Z</time>
      </trkpt>
      <trkpt lat="44.44478" lon="3.18098">
        <ele>638.45</ele>
        <time>2012-06-02T07:06:43Z</time>
      </trkpt>
      <trkpt lat="44.44486" lon="3.18088">
        <ele>638.93</ele>
        <time>2012-06-02T07:06:53Z</time>
      </trkpt>
      <trkpt lat="44.44496" lon="3.18077">
        <ele>638.93</ele>
        <time>2012-06-02T07:07:04Z</time>
      </trkpt>
      <trkpt lat="44.44507" lon="3.18068">
        <ele>639.41</ele>
        <time>2012-06-02T07:07:13Z</time>
      </trkpt>
      <trkpt lat="44.44516" lon="3.1806">
        <ele>638.93</ele>
        <time>2012-06-02T07:07:23Z</time>
      </trkpt>
      <trkpt lat="44.44524" lon="3.18053">
        <ele>640.86</ele>
        <time>2012-06-02T07:07:33Z</time>
      </trkpt>
      <trkpt lat="44.44534" lon="3.18045">
        <ele>642.3</ele>
        <time>2012-06-02T07:07:45Z</time>
      </trkpt>
      <trkpt lat="44.44547" lon="3.18034">
        <ele>643.26</ele>
        <time>2012-06-02T07:07:56Z</time>
      </trkpt>
      <trkpt lat="44.44561" lon="3.18022">
        <ele>645.66</ele>
        <time>2012-06-02T07:08:14Z</time>
      </trkpt>
      <trkpt lat="44.44575" lon="3.18008">
        <ele>649.03</ele>
        <time>2012-06-02T07:08:34Z</time>
      </trkpt>
      <trkpt lat="44.4459" lon="3.17993">
        <ele>650.95</ele>
        <time>2012-06-02T07:08:48Z</time>
      </trkpt>
      <trkpt lat="44.44602" lon="3.17976">
        <ele>652.87</ele>
        <time>2012-06-02T07:09:09Z</time>
      </trkpt>
      <trkpt lat="44.4461" lon="3.17957">
        <ele>654.31</ele>
        <time>2012-06-02T07:09:22Z</time>
      </trkpt>
      <trkpt lat="44.44616" lon="3.17941">
        <ele>656.24</ele>
        <time>2012-06-02T07:09:35Z</time>
      </trkpt>
      <trkpt lat="44.44621" lon="3.17926">
        <ele>657.68</ele>
        <time>2012-06-02T07:09:48Z</time>
      </trkpt>
      <trkpt lat="44.44629" lon="3.17911">
        <ele>659.12</ele>
        <time>2012-06-02T07:10:00Z</time>
      </trkpt>
      <trkpt lat="44.44638" lon="3.17901">
        <ele>660.08</ele>
        <time>2012-06-02T07:11:46Z</time>
      </trkpt>
      <trkpt lat="44.44647" lon="3.17883">
        <ele>661.52</ele>
        <time>2012-06-02T07:12:04Z</time>
      </trkpt>
      <trkpt lat="44.4466" lon="3.17863">
        <ele>664.41</ele>
        <time>2012-06-02T07:12:23Z</time>
      </trkpt>
      <trkpt lat="44.44675" lon="3.17847">
        <ele>668.25</ele>
        <time>2012-06-02T07:12:53Z</time>
      </trkpt>
      <trkpt lat="44.44694" lon="3.17832">
        <ele>670.66</ele>
        <time>2012-06-02T07:13:15Z</time>
      </trkpt>
      <trkpt lat="44.44723" lon="3.17809">
        <ele>673.54</ele>
        <time>2012-06-02T07:13:47Z</time>
      </trkpt>
      <trkpt lat="44.44743" lon="3.17786">
        <ele>674.98</ele>
        <time>2012-06-02T07:14:08Z</time>
      </trkpt>
      <trkpt lat="44.44758" lon="3.17784">
        <ele>675.46</ele>
        <time>2012-06-02T07:14:26Z</time>
      </trkpt>
      <trkpt lat="44.44776" lon="3.17791">
        <ele>675.94</ele>
        <time>2012-06-02T07:14:40Z</time>
      </trkpt>
      <trkpt lat="44.4479" lon="3.17803">
        <ele>675.94</ele>
        <time>2012-06-02T07:14:53Z</time>
      </trkpt>
      <trkpt lat="44.44805" lon="3.17815">
        <ele>676.42</ele>
        <time>2012-06-02T07:15:05Z</time>
      </trkpt>
      <trkpt lat="44.44816" lon="3.17826">
        <ele>676.42</ele>
        <time>2012-06-02T07:15:14Z</time>
      </trkpt>
      <trkpt lat="44.44825" lon="3.17836">
        <ele>676.42</ele>
        <time>2012-06-02T07:15:22Z</time>
      </trkpt>
      <trkpt lat="44.44833" lon="3.17848">
        <ele>677.39</ele>
        <time>2012-06-02T07:15:32Z</time>
      </trkpt>
      <trkpt lat="44.44839" lon="3.17867">
        <ele>677.87</ele>
        <time>2012-06-02T07:15:44Z</time>
      </trkpt>
      <trkpt lat="44.44845" lon="3.17884">
        <ele>678.35</ele>
        <time>2012-06-02T07:15:58Z</time>
      </trkpt>
      <trkpt lat="44.44853" lon="3.17898">
        <ele>678.35</ele>
        <time>2012-06-02T07:16:10Z</time>
      </trkpt>
      <trkpt lat="44.44867" lon="3.17903">
        <ele>678.35</ele>
        <time>2012-06-02T07:16:24Z</time>
      </trkpt>
      <trkpt lat="44.4488" lon="3.17902">
        <ele>678.35</ele>
        <time>2012-06-02T07:16:34Z</time>
      </trkpt>
      <trkpt lat="44.44891" lon="3.17898">
        <ele>678.83</ele>
        <time>2012-06-02T07:16:42Z</time>
      </trkpt>
      <trkpt lat="44.44898" lon="3.17904">
        <ele>679.31</ele>
        <time>2012-06-02T07:17:55Z</time>
      </trkpt>
      <trkpt lat="44.44896" lon="3.17918">
        <ele>679.79</ele>
        <time>2012-06-02T07:18:04Z</time>
      </trkpt>
      <trkpt lat="44.44896" lon="3.17931">
        <ele>680.27</ele>
        <time>2012-06-02T07:18:22Z</time>
      </trkpt>
      <trkpt lat="44.44896" lon="3.17945">
        <ele>681.23</ele>
        <time>2012-06-02T07:18:31Z</time>
      </trkpt>
      <trkpt lat="44.44895" lon="3.17958">
        <ele>681.71</ele>
        <time>2012-06-02T07:18:40Z</time>
      </trkpt>
      <trkpt lat="44.44895" lon="3.17972">
        <ele>681.71</ele>
        <time>2012-06-02T07:18:49Z</time>
      </trkpt>
      <trkpt lat="44.44892" lon="3.17987">
        <ele>683.63</ele>
        <time>2012-06-02T07:18:58Z</time>
      </trkpt>
      <trkpt lat="44.4489" lon="3.18001">
        <ele>684.6</ele>
        <time>2012-06-02T07:19:07Z</time>
      </trkpt>
      <trkpt lat="44.44888" lon="3.18015">
        <ele>686.52</ele>
        <time>2012-06-02T07:19:18Z</time>
      </trkpt>
      <trkpt lat="44.44887" lon="3.18024">
        <ele>687.96</ele>
        <time>2012-06-02T07:22:31Z</time>
      </trkpt>
      <trkpt lat="44.44884" lon="3.18037">
        <ele>688.92</ele>
        <time>2012-06-02T07:22:42Z</time>
      </trkpt>
      <trkpt lat="44.44879" lon="3.1805">
        <ele>691.33</ele>
        <time>2012-06-02T07:22:53Z</time>
      </trkpt>
      <trkpt lat="44.44876" lon="3.18063">
        <ele>693.25</ele>
        <time>2012-06-02T07:23:04Z</time>
      </trkpt>
      <trkpt lat="44.44874" lon="3.18077">
        <ele>695.17</ele>
        <time>2012-06-02T07:23:15Z</time>
      </trkpt>
      <trkpt lat="44.44873" lon="3.18093">
        <ele>696.61</ele>
        <time>2012-06-02T07:23:24Z</time>
      </trkpt>
      <trkpt lat="44.44876" lon="3.18106">
        <ele>697.09</ele>
        <time>2012-06-02T07:23:32Z</time>
      </trkpt>
      <trkpt lat="44.44879" lon="3.18119">
        <ele>697.57</ele>
        <time>2012-06-02T07:23:41Z</time>
      </trkpt>
      <trkpt lat="44.44887" lon="3.18128">
        <ele>698.05</ele>
        <time>2012-06-02T07:23:51Z</time>
      </trkpt>
      <trkpt lat="44.44899" lon="3.18129">
        <ele>698.05</ele>
        <time>2012-06-02T07:24:02Z</time>
      </trkpt>
      <trkpt lat="44.4491" lon="3.18128">
        <ele>698.53</ele>
        <time>2012-06-02T07:24:14Z</time>
      </trkpt>
      <trkpt lat="44.44921" lon="3.18127">
        <ele>699.5</ele>
        <time>2012-06-02T07:24:23Z</time>
      </trkpt>
      <trkpt lat="44.44932" lon="3.18125">
        <ele>699.5</ele>
        <time>2012-06-02T07:24:32Z</time>
      </trkpt>
      <trkpt lat="44.44945" lon="3.18122">
        <ele>700.46</ele>
        <time>2012-06-02T07:24:44Z</time>
      </trkpt>
      <trkpt lat="44.44959" lon="3.18118">
        <ele>700.94</ele>
        <time>2012-06-02T07:24:55Z</time>
      </trkpt>
      <trkpt lat="44.44973" lon="3.18116">
        <ele>701.42</ele>
        <time>2012-06-02T07:25:06Z</time>
      </trkpt>
      <trkpt lat="44.44985" lon="3.18109">
        <ele>702.86</ele>
        <time>2012-06-02T07:25:17Z</time>
      </trkpt>
      <trkpt lat="44.44996" lon="3.181">
        <ele>704.3</ele>
        <time>2012-06-02T07:25:28Z</time>
      </trkpt>
      <trkpt lat="44.45005" lon="3.18085">
        <ele>705.26</ele>
        <time>2012-06-02T07:25:40Z</time>
      </trkpt>
      <trkpt lat="44.4502" lon="3.18076">
        <ele>707.19</ele>
        <time>2012-06-02T07:25:54Z</time>
      </trkpt>
      <trkpt lat="44.4503" lon="3.18066">
        <ele>708.63</ele>
        <time>2012-06-02T07:26:07Z</time>
      </trkpt>
      <trkpt lat="44.45041" lon="3.18055">
        <ele>710.07</ele>
        <time>2012-06-02T07:26:19Z</time>
      </trkpt>
      <trkpt lat="44.45052" lon="3.18046">
        <ele>711.03</ele>
        <time>2012-06-02T07:26:29Z</time>
      </trkpt>
      <trkpt lat="44.45062" lon="3.18037">
        <ele>712.47</ele>
        <time>2012-06-02T07:26:39Z</time>
      </trkpt>
      <trkpt lat="44.45075" lon="3.18029">
        <ele>712.95</ele>
        <time>2012-06-02T07:26:52Z</time>
      </trkpt>
      <trkpt lat="44.4509" lon="3.18017">
        <ele>713.44</ele>
        <time>2012-06-02T07:27:05Z</time>
      </trkpt>
      <trkpt lat="44.45099" lon="3.1801">
        <ele>714.88</ele>
        <time>2012-06-02T07:27:16Z</time>
      </trkpt>
      <trkpt lat="44.4511" lon="3.18">
        <ele>715.36</ele>
        <time>2012-06-02T07:27:30Z</time>
      </trkpt>
      <trkpt lat="44.45119" lon="3.17992">
        <ele>716.32</ele>
        <time>2012-06-02T07:27:40Z</time>
      </trkpt>
      <trkpt lat="44.45131" lon="3.17985">
        <ele>717.28</ele>
        <time>2012-06-02T07:27:50Z</time>
      </trkpt>
      <trkpt lat="44.4514" lon="3.17979">
        <ele>719.2</ele>
        <time>2012-06-02T07:28:02Z</time>
      </trkpt>
      <trkpt lat="44.45149" lon="3.1797">
        <ele>720.16</ele>
        <time>2012-06-02T07:28:13Z</time>
      </trkpt>
      <trkpt lat="44.45158" lon="3.1796">
        <ele>722.09</ele>
        <time>2012-06-02T07:28:24Z</time>
      </trkpt>
      <trkpt lat="44.45166" lon="3.17951">
        <ele>723.53</ele>
        <time>2012-06-02T07:28:34Z</time>
      </trkpt>
      <trkpt lat="44.45175" lon="3.17944">
        <ele>724.97</ele>
        <time>2012-06-02T07:28:43Z</time>
      </trkpt>
      <trkpt lat="44.45184" lon="3.17936">
        <ele>726.41</ele>
        <time>2012-06-02T07:28:54Z</time>
      </trkpt>
      <trkpt lat="44.45195" lon="3.17928">
        <ele>726.89</ele>
        <time>2012-06-02T07:29:03Z</time>
      </trkpt>
      <trkpt lat="44.45204" lon="3.17918">
        <ele>727.37</ele>
        <time>2012-06-02T07:29:13Z</time>
      </trkpt>
      <trkpt lat="44.45214" lon="3.17909">
        <ele>728.34</ele>
        <time>2012-06-02T07:29:22Z</time>
      </trkpt>
      <trkpt lat="44.45223" lon="3.17904">
        <ele>729.3</ele>
        <time>2012-06-02T07:29:31Z</time>
      </trkpt>
      <trkpt lat="44.45233" lon="3.17898">
        <ele>730.26</ele>
        <time>2012-06-02T07:29:40Z</time>
      </trkpt>
      <trkpt lat="44.45242" lon="3.17894">
        <ele>731.7</ele>
        <time>2012-06-02T07:29:49Z</time>
      </trkpt>
      <trkpt lat="44.45252" lon="3.17891">
        <ele>733.62</ele>
        <time>2012-06-02T07:29:59Z</time>
      </trkpt>
      <trkpt lat="44.45261" lon="3.17886">
        <ele>734.58</ele>
        <time>2012-06-02T07:30:07Z</time>
      </trkpt>
      <trkpt lat="44.45272" lon="3.17881">
        <ele>735.55</ele>
        <time>2012-06-02T07:30:17Z</time>
      </trkpt>
      <trkpt lat="44.45283" lon="3.17876">
        <ele>736.51</ele>
        <time>2012-06-02T07:30:27Z</time>
      </trkpt>
      <trkpt lat="44.45293" lon="3.17871">
        <ele>737.47</ele>
        <time>2012-06-02T07:30:36Z</time>
      </trkpt>
      <trkpt lat="44.45304" lon="3.17868">
        <ele>737.95</ele>
        <time>2012-06-02T07:30:46Z</time>
      </trkpt>
      <trkpt lat="44.45314" lon="3.17864">
        <ele>738.43</ele>
        <time>2012-06-02T07:30:57Z</time>
      </trkpt>
      <trkpt lat="44.45327" lon="3.17859">
        <ele>738.91</ele>
        <time>2012-06-02T07:31:06Z</time>
      </trkpt>
      <trkpt lat="44.45337" lon="3.17856">
        <ele>739.39</ele>
        <time>2012-06-02T07:31:14Z</time>
      </trkpt>
      <trkpt lat="44.45348" lon="3.17851">
        <ele>739.39</ele>
        <time>2012-06-02T07:31:22Z</time>
      </trkpt>
      <trkpt lat="44.45359" lon="3.17843">
        <ele>739.39</ele>
        <time>2012-06-02T07:31:31Z</time>
      </trkpt>
      <trkpt lat="44.4537" lon="3.17837">
        <ele>738.43</ele>
        <time>2012-06-02T07:31:40Z</time>
      </trkpt>
      <trkpt lat="44.4538" lon="3.17833">
        <ele>738.43</ele>
        <time>2012-06-02T07:31:48Z</time>
      </trkpt>
      <trkpt lat="44.45391" lon="3.1783">
        <ele>739.39</ele>
        <time>2012-06-02T07:31:57Z</time>
      </trkpt>
      <trkpt lat="44.45403" lon="3.17826">
        <ele>740.35</ele>
        <time>2012-06-02T07:32:08Z</time>
      </trkpt>
      <trkpt lat="44.4541" lon="3.1782">
        <ele>741.31</ele>
        <time>2012-06-02T07:32:49Z</time>
      </trkpt>
      <trkpt lat="44.45412" lon="3.17809">
        <ele>741.79</ele>
        <time>2012-06-02T07:33:46Z</time>
      </trkpt>
      <trkpt lat="44.45417" lon="3.17794">
        <ele>742.28</ele>
        <time>2012-06-02T07:33:58Z</time>
      </trkpt>
      <trkpt lat="44.45429" lon="3.17785">
        <ele>742.76</ele>
        <time>2012-06-02T07:34:09Z</time>
      </trkpt>
      <trkpt lat="44.4544" lon="3.17779">
        <ele>742.28</ele>
        <time>2012-06-02T07:34:20Z</time>
      </trkpt>
      <trkpt lat="44.45451" lon="3.17766">
        <ele>742.76</ele>
        <time>2012-06-02T07:34:33Z</time>
      </trkpt>
      <trkpt lat="44.45458" lon="3.17752">
        <ele>743.24</ele>
        <time>2012-06-02T07:34:50Z</time>
      </trkpt>
      <trkpt lat="44.4546" lon="3.17735">
        <ele>742.76</ele>
        <time>2012-06-02T07:35:02Z</time>
      </trkpt>
      <trkpt lat="44.45461" lon="3.17721">
        <ele>743.24</ele>
        <time>2012-06-02T07:35:10Z</time>
      </trkpt>
      <trkpt lat="44.45463" lon="3.17704">
        <ele>743.24</ele>
        <time>2012-06-02T07:35:22Z</time>
      </trkpt>
      <trkpt lat="44.45463" lon="3.17674">
        <ele>743.72</ele>
        <time>2012-06-02T07:35:38Z</time>
      </trkpt>
      <trkpt lat="44.45463" lon="3.17648">
        <ele>744.2</ele>
        <time>2012-06-02T07:35:51Z</time>
      </trkpt>
      <trkpt lat="44.45462" lon="3.17634">
        <ele>744.68</ele>
        <time>2012-06-02T07:35:59Z</time>
      </trkpt>
      <trkpt lat="44.45461" lon="3.17614">
        <ele>745.64</ele>
        <time>2012-06-02T07:36:10Z</time>
      </trkpt>
      <trkpt lat="44.45459" lon="3.176">
        <ele>745.64</ele>
        <time>2012-06-02T07:36:19Z</time>
      </trkpt>
      <trkpt lat="44.45455" lon="3.17587">
        <ele>747.08</ele>
        <time>2012-06-02T07:36:27Z</time>
      </trkpt>
      <trkpt lat="44.45447" lon="3.17581">
        <ele>748.52</ele>
        <time>2012-06-02T07:36:59Z</time>
      </trkpt>
      <trkpt lat="44.4544" lon="3.17576">
        <ele>749.49</ele>
        <time>2012-06-02T07:37:11Z</time>
      </trkpt>
      <trkpt lat="44.45433" lon="3.17571">
        <ele>750.45</ele>
        <time>2012-06-02T07:37:20Z</time>
      </trkpt>
      <trkpt lat="44.45426" lon="3.17561">
        <ele>751.41</ele>
        <time>2012-06-02T07:37:42Z</time>
      </trkpt>
      <trkpt lat="44.45421" lon="3.17548">
        <ele>752.85</ele>
        <time>2012-06-02T07:37:52Z</time>
      </trkpt>
      <trkpt lat="44.45417" lon="3.17534">
        <ele>755.73</ele>
        <time>2012-06-02T07:38:06Z</time>
      </trkpt>
      <trkpt lat="44.45411" lon="3.17517">
        <ele>757.18</ele>
        <time>2012-06-02T07:38:21Z</time>
      </trkpt>
      <trkpt lat="44.45407" lon="3.17504">
        <ele>759.1</ele>
        <time>2012-06-02T07:38:31Z</time>
      </trkpt>
      <trkpt lat="44.45402" lon="3.17489">
        <ele>760.06</ele>
        <time>2012-06-02T07:38:42Z</time>
      </trkpt>
      <trkpt lat="44.45399" lon="3.17479">
        <ele>761.02</ele>
        <time>2012-06-02T07:39:53Z</time>
      </trkpt>
      <trkpt lat="44.45398" lon="3.17466">
        <ele>761.5</ele>
        <time>2012-06-02T07:41:15Z</time>
      </trkpt>
      <trkpt lat="44.45396" lon="3.17454">
        <ele>762.46</ele>
        <time>2012-06-02T07:41:22Z</time>
      </trkpt>
      <trkpt lat="44.45393" lon="3.17442">
        <ele>762.94</ele>
        <time>2012-06-02T07:41:29Z</time>
      </trkpt>
      <trkpt lat="44.45392" lon="3.17429">
        <ele>763.9</ele>
        <time>2012-06-02T07:41:37Z</time>
      </trkpt>
      <trkpt lat="44.4539" lon="3.17415">
        <ele>764.87</ele>
        <time>2012-06-02T07:41:45Z</time>
      </trkpt>
      <trkpt lat="44.45388" lon="3.17401">
        <ele>766.31</ele>
        <time>2012-06-02T07:41:53Z</time>
      </trkpt>
      <trkpt lat="44.45387" lon="3.17387">
        <ele>767.27</ele>
        <time>2012-06-02T07:42:02Z</time>
      </trkpt>
      <trkpt lat="44.45389" lon="3.17372">
        <ele>767.27</ele>
        <time>2012-06-02T07:42:12Z</time>
      </trkpt>
      <trkpt lat="44.45389" lon="3.17357">
        <ele>767.75</ele>
        <time>2012-06-02T07:42:21Z</time>
      </trkpt>
      <trkpt lat="44.45389" lon="3.17344">
        <ele>768.23</ele>
        <time>2012-06-02T07:42:29Z</time>
      </trkpt>
      <trkpt lat="44.45389" lon="3.1733">
        <ele>767.75</ele>
        <time>2012-06-02T07:42:38Z</time>
      </trkpt>
      <trkpt lat="44.45391" lon="3.17316">
        <ele>767.27</ele>
        <time>2012-06-02T07:42:48Z</time>
      </trkpt>
      <trkpt lat="44.45394" lon="3.17302">
        <ele>767.27</ele>
        <time>2012-06-02T07:42:56Z</time>
      </trkpt>
      <trkpt lat="44.45397" lon="3.17289">
        <ele>767.27</ele>
        <time>2012-06-02T07:43:04Z</time>
      </trkpt>
      <trkpt lat="44.45401" lon="3.17276">
        <ele>767.27</ele>
        <time>2012-06-02T07:43:13Z</time>
      </trkpt>
      <trkpt lat="44.45407" lon="3.17265">
        <ele>767.27</ele>
        <time>2012-06-02T07:43:21Z</time>
      </trkpt>
      <trkpt lat="44.45412" lon="3.17253">
        <ele>767.75</ele>
        <time>2012-06-02T07:43:30Z</time>
      </trkpt>
      <trkpt lat="44.45418" lon="3.17242">
        <ele>767.27</ele>
        <time>2012-06-02T07:43:39Z</time>
      </trkpt>
      <trkpt lat="44.45424" lon="3.1723">
        <ele>767.27</ele>
        <time>2012-06-02T07:43:48Z</time>
      </trkpt>
      <trkpt lat="44.45434" lon="3.17226">
        <ele>767.27</ele>
        <time>2012-06-02T07:43:58Z</time>
      </trkpt>
      <trkpt lat="44.45444" lon="3.17233">
        <ele>768.23</ele>
        <time>2012-06-02T07:44:13Z</time>
      </trkpt>
      <trkpt lat="44.45451" lon="3.17241">
        <ele>770.15</ele>
        <time>2012-06-02T07:44:25Z</time>
      </trkpt>
      <trkpt lat="44.45459" lon="3.1725">
        <ele>771.6</ele>
        <time>2012-06-02T07:44:34Z</time>
      </trkpt>
      <trkpt lat="44.45466" lon="3.1726">
        <ele>773.04</ele>
        <time>2012-06-02T07:44:46Z</time>
      </trkpt>
      <trkpt lat="44.45475" lon="3.17269">
        <ele>774.96</ele>
        <time>2012-06-02T07:44:58Z</time>
      </trkpt>
      <trkpt lat="44.45482" lon="3.17277">
        <ele>777.36</ele>
        <time>2012-06-02T07:45:08Z</time>
      </trkpt>
      <trkpt lat="44.4549" lon="3.17286">
        <ele>778.32</ele>
        <time>2012-06-02T07:45:19Z</time>
      </trkpt>
      <trkpt lat="44.45498" lon="3.17293">
        <ele>779.77</ele>
        <time>2012-06-02T07:45:28Z</time>
      </trkpt>
      <trkpt lat="44.45505" lon="3.17302">
        <ele>781.21</ele>
        <time>2012-06-02T07:45:38Z</time>
      </trkpt>
      <trkpt lat="44.45512" lon="3.17311">
        <ele>782.65</ele>
        <time>2012-06-02T07:45:47Z</time>
      </trkpt>
      <trkpt lat="44.45519" lon="3.17321">
        <ele>784.09</ele>
        <time>2012-06-02T07:45:57Z</time>
      </trkpt>
      <trkpt lat="44.45525" lon="3.17329">
        <ele>785.05</ele>
        <time>2012-06-02T07:46:06Z</time>
      </trkpt>
      <trkpt lat="44.45533" lon="3.17338">
        <ele>786.02</ele>
        <time>2012-06-02T07:46:16Z</time>
      </trkpt>
      <trkpt lat="44.45541" lon="3.17344">
        <ele>787.94</ele>
        <time>2012-06-02T07:46:27Z</time>
      </trkpt>
      <trkpt lat="44.45552" lon="3.17347">
        <ele>788.42</ele>
        <time>2012-06-02T07:46:37Z</time>
      </trkpt>
      <trkpt lat="44.45564" lon="3.17346">
        <ele>790.34</ele>
        <time>2012-06-02T07:46:48Z</time>
      </trkpt>
      <trkpt lat="44.45575" lon="3.17343">
        <ele>791.78</ele>
        <time>2012-06-02T07:46:59Z</time>
      </trkpt>
      <trkpt lat="44.45586" lon="3.17342">
        <ele>793.22</ele>
        <time>2012-06-02T07:47:09Z</time>
      </trkpt>
      <trkpt lat="44.45596" lon="3.1734">
        <ele>794.19</ele>
        <time>2012-06-02T07:47:18Z</time>
      </trkpt>
      <trkpt lat="44.45606" lon="3.17338">
        <ele>795.63</ele>
        <time>2012-06-02T07:47:26Z</time>
      </trkpt>
      <trkpt lat="44.45615" lon="3.17335">
        <ele>796.59</ele>
        <time>2012-06-02T07:47:34Z</time>
      </trkpt>
      <trkpt lat="44.45624" lon="3.17333">
        <ele>797.55</ele>
        <time>2012-06-02T07:47:44Z</time>
      </trkpt>
      <trkpt lat="44.45632" lon="3.1733">
        <ele>798.51</ele>
        <time>2012-06-02T07:48:47Z</time>
      </trkpt>
      <trkpt lat="44.45644" lon="3.17329">
        <ele>799.95</ele>
        <time>2012-06-02T07:48:55Z</time>
      </trkpt>
      <trkpt lat="44.45655" lon="3.17327">
        <ele>799.95</ele>
        <time>2012-06-02T07:49:06Z</time>
      </trkpt>
      <trkpt lat="44.45665" lon="3.17325">
        <ele>800.44</ele>
        <time>2012-06-02T07:49:14Z</time>
      </trkpt>
      <trkpt lat="44.45675" lon="3.17323">
        <ele>800.92</ele>
        <time>2012-06-02T07:49:22Z</time>
      </trkpt>
      <trkpt lat="44.45685" lon="3.17322">
        <ele>801.4</ele>
        <time>2012-06-02T07:49:30Z</time>
      </trkpt>
      <trkpt lat="44.45695" lon="3.17322">
        <ele>801.88</ele>
        <time>2012-06-02T07:49:38Z</time>
      </trkpt>
      <trkpt lat="44.45705" lon="3.17321">
        <ele>802.84</ele>
        <time>2012-06-02T07:49:47Z</time>
      </trkpt>
      <trkpt lat="44.45715" lon="3.17322">
        <ele>803.8</ele>
        <time>2012-06-02T07:49:57Z</time>
      </trkpt>
      <trkpt lat="44.45725" lon="3.17324">
        <ele>805.24</ele>
        <time>2012-06-02T07:50:24Z</time>
      </trkpt>
      <trkpt lat="44.45735" lon="3.17327">
        <ele>805.72</ele>
        <time>2012-06-02T07:50:35Z</time>
      </trkpt>
      <trkpt lat="44.45747" lon="3.17331">
        <ele>806.68</ele>
        <time>2012-06-02T07:50:50Z</time>
      </trkpt>
      <trkpt lat="44.45757" lon="3.17336">
        <ele>807.16</ele>
        <time>2012-06-02T07:50:59Z</time>
      </trkpt>
      <trkpt lat="44.45767" lon="3.1734">
        <ele>808.13</ele>
        <time>2012-06-02T07:51:08Z</time>
      </trkpt>
      <trkpt lat="44.45778" lon="3.17341">
        <ele>807.16</ele>
        <time>2012-06-02T07:51:16Z</time>
      </trkpt>
      <trkpt lat="44.4579" lon="3.17341">
        <ele>808.13</ele>
        <time>2012-06-02T07:51:24Z</time>
      </trkpt>
      <trkpt lat="44.45799" lon="3.1734">
        <ele>808.13</ele>
        <time>2012-06-02T07:51:31Z</time>
      </trkpt>
      <trkpt lat="44.45809" lon="3.17337">
        <ele>809.09</ele>
        <time>2012-06-02T07:51:40Z</time>
      </trkpt>
      <trkpt lat="44.45821" lon="3.1733">
        <ele>809.57</ele>
        <time>2012-06-02T07:51:51Z</time>
      </trkpt>
      <trkpt lat="44.4583" lon="3.17322">
        <ele>811.49</ele>
        <time>2012-06-02T07:52:00Z</time>
      </trkpt>
      <trkpt lat="44.4584" lon="3.17313">
        <ele>811.49</ele>
        <time>2012-06-02T07:52:13Z</time>
      </trkpt>
      <trkpt lat="44.45844" lon="3.17299">
        <ele>812.45</ele>
        <time>2012-06-02T07:52:23Z</time>
      </trkpt>
      <trkpt lat="44.45846" lon="3.17286">
        <ele>812.93</ele>
        <time>2012-06-02T07:52:31Z</time>
      </trkpt>
      <trkpt lat="44.45847" lon="3.17271">
        <ele>812.45</ele>
        <time>2012-06-02T07:52:39Z</time>
      </trkpt>
      <trkpt lat="44.45849" lon="3.17258">
        <ele>812.45</ele>
        <time>2012-06-02T07:52:46Z</time>
      </trkpt>
      <trkpt lat="44.45853" lon="3.17246">
        <ele>811.49</ele>
        <time>2012-06-02T07:52:55Z</time>
      </trkpt>
      <trkpt lat="44.45856" lon="3.17233">
        <ele>810.53</ele>
        <time>2012-06-02T07:53:03Z</time>
      </trkpt>
      <trkpt lat="44.45859" lon="3.17218">
        <ele>810.53</ele>
        <time>2012-06-02T07:53:13Z</time>
      </trkpt>
      <trkpt lat="44.45861" lon="3.17203">
        <ele>809.57</ele>
        <time>2012-06-02T07:53:23Z</time>
      </trkpt>
      <trkpt lat="44.45862" lon="3.1719">
        <ele>809.09</ele>
        <time>2012-06-02T07:53:31Z</time>
      </trkpt>
      <trkpt lat="44.45863" lon="3.17176">
        <ele>809.09</ele>
        <time>2012-06-02T07:53:38Z</time>
      </trkpt>
      <trkpt lat="44.45863" lon="3.17162">
        <ele>809.09</ele>
        <time>2012-06-02T07:53:46Z</time>
      </trkpt>
      <trkpt lat="44.45864" lon="3.17147">
        <ele>809.09</ele>
        <time>2012-06-02T07:53:55Z</time>
      </trkpt>
      <trkpt lat="44.45865" lon="3.17132">
        <ele>808.61</ele>
        <time>2012-06-02T07:54:03Z</time>
      </trkpt>
      <trkpt lat="44.45865" lon="3.1712">
        <ele>809.09</ele>
        <time>2012-06-02T07:54:10Z</time>
      </trkpt>
      <trkpt lat="44.45866" lon="3.17106">
        <ele>809.57</ele>
        <time>2012-06-02T07:54:18Z</time>
      </trkpt>
      <trkpt lat="44.45868" lon="3.17091">
        <ele>809.57</ele>
        <time>2012-06-02T07:54:26Z</time>
      </trkpt>
      <trkpt lat="44.45869" lon="3.17075">
        <ele>810.05</ele>
        <time>2012-06-02T07:54:35Z</time>
      </trkpt>
      <trkpt lat="44.45871" lon="3.17061">
        <ele>810.05</ele>
        <time>2012-06-02T07:54:43Z</time>
      </trkpt>
      <trkpt lat="44.45872" lon="3.17047">
        <ele>810.05</ele>
        <time>2012-06-02T07:54:51Z</time>
      </trkpt>
      <trkpt lat="44.45872" lon="3.17034">
        <ele>810.05</ele>
        <time>2012-06-02T07:54:58Z</time>
      </trkpt>
      <trkpt lat="44.45874" lon="3.1702">
        <ele>810.05</ele>
        <time>2012-06-02T07:55:06Z</time>
      </trkpt>
      <trkpt lat="44.45877" lon="3.17006">
        <ele>809.57</ele>
        <time>2012-06-02T07:55:15Z</time>
      </trkpt>
      <trkpt lat="44.45879" lon="3.16991">
        <ele>809.57</ele>
        <time>2012-06-02T07:55:24Z</time>
      </trkpt>
      <trkpt lat="44.45883" lon="3.16976">
        <ele>810.53</ele>
        <time>2012-06-02T07:55:33Z</time>
      </trkpt>
      <trkpt lat="44.45887" lon="3.16962">
        <ele>809.57</ele>
        <time>2012-06-02T07:55:43Z</time>
      </trkpt>
      <trkpt lat="44.45891" lon="3.16947">
        <ele>809.09</ele>
        <time>2012-06-02T07:55:54Z</time>
      </trkpt>
      <trkpt lat="44.45891" lon="3.16932">
        <ele>808.13</ele>
        <time>2012-06-02T07:56:02Z</time>
      </trkpt>
      <trkpt lat="44.45889" lon="3.16917">
        <ele>806.68</ele>
        <time>2012-06-02T07:56:13Z</time>
      </trkpt>
      <trkpt lat="44.45885" lon="3.16903">
        <ele>805.24</ele>
        <time>2012-06-02T07:56:22Z</time>
      </trkpt>
      <trkpt lat="44.45882" lon="3.16891">
        <ele>804.28</ele>
        <time>2012-06-02T07:56:30Z</time>
      </trkpt>
      <trkpt lat="44.4588" lon="3.16877">
        <ele>803.32</ele>
        <time>2012-06-02T07:56:39Z</time>
      </trkpt>
      <trkpt lat="44.45879" lon="3.16865">
        <ele>802.36</ele>
        <time>2012-06-02T07:56:48Z</time>
      </trkpt>
      <trkpt lat="44.45877" lon="3.16852">
        <ele>801.88</ele>
        <time>2012-06-02T07:56:57Z</time>
      </trkpt>
      <trkpt lat="44.45877" lon="3.16833">
        <ele>800.44</ele>
        <time>2012-06-02T07:57:11Z</time>
      </trkpt>
      <trkpt lat="44.45876" lon="3.1682">
        <ele>799.47</ele>
        <time>2012-06-02T07:57:25Z</time>
      </trkpt>
      <trkpt lat="44.45873" lon="3.16806">
        <ele>798.03</ele>
        <time>2012-06-02T07:57:34Z</time>
      </trkpt>
      <trkpt lat="44.4587" lon="3.16793">
        <ele>796.59</ele>
        <time>2012-06-02T07:57:43Z</time>
      </trkpt>
      <trkpt lat="44.4587" lon="3.1678">
        <ele>795.63</ele>
        <time>2012-06-02T07:57:51Z</time>
      </trkpt>
      <trkpt lat="44.4587" lon="3.16767">
        <ele>794.67</ele>
        <time>2012-06-02T07:58:00Z</time>
      </trkpt>
      <trkpt lat="44.4587" lon="3.16753">
        <ele>793.71</ele>
        <time>2012-06-02T07:58:19Z</time>
      </trkpt>
      <trkpt lat="44.45871" lon="3.16747">
        <ele>793.22</ele>
        <time>2012-06-02T07:58:48Z</time>
      </trkpt>
      <trkpt lat="44.45863" lon="3.16755">
        <ele>792.74</ele>
        <time>2012-06-02T07:58:56Z</time>
      </trkpt>
      <trkpt lat="44.45853" lon="3.16758">
        <ele>791.78</ele>
        <time>2012-06-02T07:59:05Z</time>
      </trkpt>
      <trkpt lat="44.45843" lon="3.1676">
        <ele>791.3</ele>
        <time>2012-06-02T07:59:14Z</time>
      </trkpt>
      <trkpt lat="44.45833" lon="3.16761">
        <ele>790.82</ele>
        <time>2012-06-02T07:59:23Z</time>
      </trkpt>
      <trkpt lat="44.45823" lon="3.16759">
        <ele>789.86</ele>
        <time>2012-06-02T07:59:33Z</time>
      </trkpt>
      <trkpt lat="44.45814" lon="3.16751">
        <ele>788.9</ele>
        <time>2012-06-02T07:59:43Z</time>
      </trkpt>
      <trkpt lat="44.45806" lon="3.16741">
        <ele>788.42</ele>
        <time>2012-06-02T07:59:52Z</time>
      </trkpt>
      <trkpt lat="44.45799" lon="3.16731">
        <ele>787.94</ele>
        <time>2012-06-02T08:00:00Z</time>
      </trkpt>
      <trkpt lat="44.45793" lon="3.16721">
        <ele>786.98</ele>
        <time>2012-06-02T08:00:08Z</time>
      </trkpt>
      <trkpt lat="44.45787" lon="3.1671">
        <ele>786.5</ele>
        <time>2012-06-02T08:00:16Z</time>
      </trkpt>
      <trkpt lat="44.45784" lon="3.16698">
        <ele>785.53</ele>
        <time>2012-06-02T08:00:24Z</time>
      </trkpt>
      <trkpt lat="44.45782" lon="3.16685">
        <ele>786.02</ele>
        <time>2012-06-02T08:00:31Z</time>
      </trkpt>
      <trkpt lat="44.45784" lon="3.16672">
        <ele>784.57</ele>
        <time>2012-06-02T08:00:39Z</time>
      </trkpt>
      <trkpt lat="44.45787" lon="3.16659">
        <ele>783.61</ele>
        <time>2012-06-02T08:00:47Z</time>
      </trkpt>
      <trkpt lat="44.45792" lon="3.16646">
        <ele>782.65</ele>
        <time>2012-06-02T08:00:56Z</time>
      </trkpt>
      <trkpt lat="44.45795" lon="3.16633">
        <ele>781.69</ele>
        <time>2012-06-02T08:01:04Z</time>
      </trkpt>
      <trkpt lat="44.45797" lon="3.16618">
        <ele>780.73</ele>
        <time>2012-06-02T08:01:12Z</time>
      </trkpt>
      <trkpt lat="44.45797" lon="3.16604">
        <ele>780.25</ele>
        <time>2012-06-02T08:01:19Z</time>
      </trkpt>
      <trkpt lat="44.45796" lon="3.16593">
        <ele>779.29</ele>
        <time>2012-06-02T08:01:26Z</time>
      </trkpt>
      <trkpt lat="44.45796" lon="3.16585">
        <ele>779.29</ele>
        <time>2012-06-02T08:01:52Z</time>
      </trkpt>
      <trkpt lat="44.45793" lon="3.16573">
        <ele>778.32</ele>
        <time>2012-06-02T08:02:01Z</time>
      </trkpt>
      <trkpt lat="44.45791" lon="3.1656">
        <ele>777.84</ele>
        <time>2012-06-02T08:02:09Z</time>
      </trkpt>
      <trkpt lat="44.4579" lon="3.16547">
        <ele>777.36</ele>
        <time>2012-06-02T08:02:17Z</time>
      </trkpt>
      <trkpt lat="44.45787" lon="3.16533">
        <ele>776.4</ele>
        <time>2012-06-02T08:02:30Z</time>
      </trkpt>
      <trkpt lat="44.45783" lon="3.1652">
        <ele>775.92</ele>
        <time>2012-06-02T08:02:37Z</time>
      </trkpt>
      <trkpt lat="44.45779" lon="3.16508">
        <ele>775.92</ele>
        <time>2012-06-02T08:02:45Z</time>
      </trkpt>
      <trkpt lat="44.45774" lon="3.16497">
        <ele>775.44</ele>
        <time>2012-06-02T08:02:52Z</time>
      </trkpt>
      <trkpt lat="44.45771" lon="3.16484">
        <ele>774.96</ele>
        <time>2012-06-02T08:03:00Z</time>
      </trkpt>
      <trkpt lat="44.45769" lon="3.16471">
        <ele>774.48</ele>
        <time>2012-06-02T08:03:08Z</time>
      </trkpt>
      <trkpt lat="44.45768" lon="3.16458">
        <ele>774</ele>
        <time>2012-06-02T08:03:17Z</time>
      </trkpt>
      <trkpt lat="44.45768" lon="3.16445">
        <ele>774</ele>
        <time>2012-06-02T08:03:25Z</time>
      </trkpt>
      <trkpt lat="44.45768" lon="3.16432">
        <ele>773.04</ele>
        <time>2012-06-02T08:03:35Z</time>
      </trkpt>
      <trkpt lat="44.45767" lon="3.16418">
        <ele>773.04</ele>
        <time>2012-06-02T08:03:44Z</time>
      </trkpt>
      <trkpt lat="44.45766" lon="3.16403">
        <ele>773.04</ele>
        <time>2012-06-02T08:03:52Z</time>
      </trkpt>
      <trkpt lat="44.45764" lon="3.16388">
        <ele>772.08</ele>
        <time>2012-06-02T08:04:01Z</time>
      </trkpt>
      <trkpt lat="44.45764" lon="3.16373">
        <ele>772.08</ele>
        <time>2012-06-02T08:04:10Z</time>
      </trkpt>
      <trkpt lat="44.45762" lon="3.1636">
        <ele>772.08</ele>
        <time>2012-06-02T08:04:17Z</time>
      </trkpt>
      <trkpt lat="44.45761" lon="3.16345">
        <ele>771.11</ele>
        <time>2012-06-02T08:04:25Z</time>
      </trkpt>
      <trkpt lat="44.45761" lon="3.16331">
        <ele>770.15</ele>
        <time>2012-06-02T08:04:34Z</time>
      </trkpt>
      <trkpt lat="44.4576" lon="3.16316">
        <ele>768.23</ele>
        <time>2012-06-02T08:04:45Z</time>
      </trkpt>
      <trkpt lat="44.4576" lon="3.163">
        <ele>766.79</ele>
        <time>2012-06-02T08:05:06Z</time>
      </trkpt>
      <trkpt lat="44.4576" lon="3.16289">
        <ele>765.83</ele>
        <time>2012-06-02T08:05:22Z</time>
      </trkpt>
      <trkpt lat="44.45759" lon="3.16277">
        <ele>764.39</ele>
        <time>2012-06-02T08:05:33Z</time>
      </trkpt>
      <trkpt lat="44.4575" lon="3.16267">
        <ele>762.46</ele>
        <time>2012-06-02T08:05:42Z</time>
      </trkpt>
      <trkpt lat="44.4574" lon="3.16265">
        <ele>760.54</ele>
        <time>2012-06-02T08:05:51Z</time>
      </trkpt>
      <trkpt lat="44.4573" lon="3.16262">
        <ele>759.58</ele>
        <time>2012-06-02T08:06:01Z</time>
      </trkpt>
      <trkpt lat="44.4572" lon="3.16256">
        <ele>757.66</ele>
        <time>2012-06-02T08:06:11Z</time>
      </trkpt>
      <trkpt lat="44.45711" lon="3.16246">
        <ele>756.69</ele>
        <time>2012-06-02T08:06:21Z</time>
      </trkpt>
      <trkpt lat="44.45704" lon="3.16237">
        <ele>754.77</ele>
        <time>2012-06-02T08:06:31Z</time>
      </trkpt>
      <trkpt lat="44.45699" lon="3.16224">
        <ele>753.81</ele>
        <time>2012-06-02T08:06:41Z</time>
      </trkpt>
      <trkpt lat="44.45693" lon="3.16208">
        <ele>752.37</ele>
        <time>2012-06-02T08:06:53Z</time>
      </trkpt>
      <trkpt lat="44.45691" lon="3.16195">
        <ele>750.93</ele>
        <time>2012-06-02T08:07:02Z</time>
      </trkpt>
      <trkpt lat="44.45688" lon="3.16179">
        <ele>749.49</ele>
        <time>2012-06-02T08:07:14Z</time>
      </trkpt>
      <trkpt lat="44.45685" lon="3.16166">
        <ele>747.56</ele>
        <time>2012-06-02T08:07:24Z</time>
      </trkpt>
      <trkpt lat="44.45683" lon="3.16151">
        <ele>746.12</ele>
        <time>2012-06-02T08:07:39Z</time>
      </trkpt>
      <trkpt lat="44.45676" lon="3.16138">
        <ele>746.6</ele>
        <time>2012-06-02T08:07:48Z</time>
      </trkpt>
      <trkpt lat="44.45669" lon="3.16128">
        <ele>744.2</ele>
        <time>2012-06-02T08:07:58Z</time>
      </trkpt>
      <trkpt lat="44.4566" lon="3.16121">
        <ele>744.2</ele>
        <time>2012-06-02T08:08:08Z</time>
      </trkpt>
      <trkpt lat="44.45649" lon="3.16115">
        <ele>743.24</ele>
        <time>2012-06-02T08:08:17Z</time>
      </trkpt>
      <trkpt lat="44.45644" lon="3.16103">
        <ele>741.79</ele>
        <time>2012-06-02T08:08:26Z</time>
      </trkpt>
      <trkpt lat="44.45644" lon="3.16089">
        <ele>742.28</ele>
        <time>2012-06-02T08:08:34Z</time>
      </trkpt>
      <trkpt lat="44.45646" lon="3.16075">
        <ele>742.28</ele>
        <time>2012-06-02T08:08:42Z</time>
      </trkpt>
      <trkpt lat="44.45645" lon="3.16061">
        <ele>741.31</ele>
        <time>2012-06-02T08:08:49Z</time>
      </trkpt>
      <trkpt lat="44.45645" lon="3.16048">
        <ele>739.87</ele>
        <time>2012-06-02T08:08:58Z</time>
      </trkpt>
      <trkpt lat="44.45646" lon="3.16032">
        <ele>738.43</ele>
        <time>2012-06-02T08:09:08Z</time>
      </trkpt>
      <trkpt lat="44.45647" lon="3.16019">
        <ele>737.47</ele>
        <time>2012-06-02T08:09:18Z</time>
      </trkpt>
      <trkpt lat="44.45645" lon="3.16008">
        <ele>736.03</ele>
        <time>2012-06-02T08:09:29Z</time>
      </trkpt>
      <trkpt lat="44.4564" lon="3.15995">
        <ele>735.07</ele>
        <time>2012-06-02T08:09:38Z</time>
      </trkpt>
      <trkpt lat="44.45636" lon="3.15984">
        <ele>734.1</ele>
        <time>2012-06-02T08:09:46Z</time>
      </trkpt>
      <trkpt lat="44.45629" lon="3.15974">
        <ele>733.62</ele>
        <time>2012-06-02T08:09:54Z</time>
      </trkpt>
      <trkpt lat="44.45622" lon="3.15965">
        <ele>733.14</ele>
        <time>2012-06-02T08:10:01Z</time>
      </trkpt>
      <trkpt lat="44.45615" lon="3.15954">
        <ele>733.14</ele>
        <time>2012-06-02T08:10:09Z</time>
      </trkpt>
      <trkpt lat="44.45608" lon="3.15945">
        <ele>732.18</ele>
        <time>2012-06-02T08:10:18Z</time>
      </trkpt>
      <trkpt lat="44.45601" lon="3.15936">
        <ele>731.7</ele>
        <time>2012-06-02T08:10:27Z</time>
      </trkpt>
      <trkpt lat="44.45592" lon="3.15927">
        <ele>731.22</ele>
        <time>2012-06-02T08:10:36Z</time>
      </trkpt>
      <trkpt lat="44.45582" lon="3.15918">
        <ele>730.26</ele>
        <time>2012-06-02T08:10:46Z</time>
      </trkpt>
      <trkpt lat="44.45574" lon="3.1591">
        <ele>729.3</ele>
        <time>2012-06-02T08:10:54Z</time>
      </trkpt>
      <trkpt lat="44.45565" lon="3.15903">
        <ele>728.82</ele>
        <time>2012-06-02T08:11:02Z</time>
      </trkpt>
      <trkpt lat="44.45555" lon="3.15897">
        <ele>728.34</ele>
        <time>2012-06-02T08:11:13Z</time>
      </trkpt>
      <trkpt lat="44.45544" lon="3.15896">
        <ele>727.86</ele>
        <time>2012-06-02T08:11:24Z</time>
      </trkpt>
      <trkpt lat="44.45535" lon="3.15897">
        <ele>727.37</ele>
        <time>2012-06-02T08:11:49Z</time>
      </trkpt>
      <trkpt lat="44.45523" lon="3.15895">
        <ele>726.89</ele>
        <time>2012-06-02T08:11:58Z</time>
      </trkpt>
      <trkpt lat="44.45511" lon="3.15895">
        <ele>726.41</ele>
        <time>2012-06-02T08:12:07Z</time>
      </trkpt>
      <trkpt lat="44.45499" lon="3.15897">
        <ele>726.41</ele>
        <time>2012-06-02T08:12:15Z</time>
      </trkpt>
      <trkpt lat="44.45489" lon="3.15895">
        <ele>725.93</ele>
        <time>2012-06-02T08:12:23Z</time>
      </trkpt>
      <trkpt lat="44.45477" lon="3.1589">
        <ele>725.45</ele>
        <time>2012-06-02T08:12:33Z</time>
      </trkpt>
      <trkpt lat="44.45467" lon="3.15885">
        <ele>724.49</ele>
        <time>2012-06-02T08:12:43Z</time>
      </trkpt>
      <trkpt lat="44.45459" lon="3.15877">
        <ele>723.53</ele>
        <time>2012-06-02T08:12:52Z</time>
      </trkpt>
      <trkpt lat="44.45451" lon="3.15866">
        <ele>722.09</ele>
        <time>2012-06-02T08:13:03Z</time>
      </trkpt>
      <trkpt lat="44.45443" lon="3.15853">
        <ele>720.16</ele>
        <time>2012-06-02T08:13:12Z</time>
      </trkpt>
      <trkpt lat="44.45439" lon="3.1584">
        <ele>718.72</ele>
        <time>2012-06-02T08:13:22Z</time>
      </trkpt>
      <trkpt lat="44.45436" lon="3.15827">
        <ele>716.32</ele>
        <time>2012-06-02T08:13:32Z</time>
      </trkpt>
      <trkpt lat="44.45434" lon="3.15813">
        <ele>714.88</ele>
        <time>2012-06-02T08:13:43Z</time>
      </trkpt>
      <trkpt lat="44.45434" lon="3.15796">
        <ele>712.95</ele>
        <time>2012-06-02T08:13:53Z</time>
      </trkpt>
      <trkpt lat="44.45438" lon="3.15781">
        <ele>711.03</ele>
        <time>2012-06-02T08:14:05Z</time>
      </trkpt>
      <trkpt lat="44.45442" lon="3.15762">
        <ele>710.07</ele>
        <time>2012-06-02T08:14:19Z</time>
      </trkpt>
      <trkpt lat="44.45436" lon="3.15759">
        <ele>708.15</ele>
        <time>2012-06-02T08:14:31Z</time>
      </trkpt>
      <trkpt lat="44.45424" lon="3.15761">
        <ele>706.71</ele>
        <time>2012-06-02T08:14:43Z</time>
      </trkpt>
      <trkpt lat="44.4541" lon="3.1576">
        <ele>703.82</ele>
        <time>2012-06-02T08:14:57Z</time>
      </trkpt>
      <trkpt lat="44.45396" lon="3.15754">
        <ele>702.38</ele>
        <time>2012-06-02T08:15:09Z</time>
      </trkpt>
      <trkpt lat="44.45389" lon="3.1574">
        <ele>699.5</ele>
        <time>2012-06-02T08:15:26Z</time>
      </trkpt>
      <trkpt lat="44.45381" lon="3.15721">
        <ele>696.13</ele>
        <time>2012-06-02T08:15:54Z</time>
      </trkpt>
      <trkpt lat="44.45371" lon="3.157">
        <ele>692.77</ele>
        <time>2012-06-02T08:16:11Z</time>
      </trkpt>
      <trkpt lat="44.45366" lon="3.15678">
        <ele>688.44</ele>
        <time>2012-06-02T08:16:33Z</time>
      </trkpt>
      <trkpt lat="44.45352" lon="3.15661">
        <ele>685.56</ele>
        <time>2012-06-02T08:16:50Z</time>
      </trkpt>
      <trkpt lat="44.45336" lon="3.15661">
        <ele>683.63</ele>
        <time>2012-06-02T08:17:16Z</time>
      </trkpt>
      <trkpt lat="44.45324" lon="3.15663">
        <ele>680.75</ele>
        <time>2012-06-02T08:17:30Z</time>
      </trkpt>
      <trkpt lat="44.45308" lon="3.15655">
        <ele>676.91</ele>
        <time>2012-06-02T08:17:48Z</time>
      </trkpt>
      <trkpt lat="44.45296" lon="3.15648">
        <ele>675.46</ele>
        <time>2012-06-02T08:18:01Z</time>
      </trkpt>
      <trkpt lat="44.45284" lon="3.15636">
        <ele>673.54</ele>
        <time>2012-06-02T08:18:22Z</time>
      </trkpt>
      <trkpt lat="44.45265" lon="3.15618">
        <ele>667.77</ele>
        <time>2012-06-02T08:18:51Z</time>
      </trkpt>
      <trkpt lat="44.45245" lon="3.15599">
        <ele>663.93</ele>
        <time>2012-06-02T08:19:10Z</time>
      </trkpt>
      <trkpt lat="44.45232" lon="3.15587">
        <ele>660.08</ele>
        <time>2012-06-02T08:19:35Z</time>
      </trkpt>
      <trkpt lat="44.45214" lon="3.15577">
        <ele>655.76</ele>
        <time>2012-06-02T08:20:10Z</time>
      </trkpt>
      <trkpt lat="44.452" lon="3.15549">
        <ele>651.91</ele>
        <time>2012-06-02T08:20:34Z</time>
      </trkpt>
      <trkpt lat="44.45187" lon="3.15526">
        <ele>649.51</ele>
        <time>2012-06-02T08:20:57Z</time>
      </trkpt>
      <trkpt lat="44.45171" lon="3.15504">
        <ele>646.14</ele>
        <time>2012-06-02T08:21:22Z</time>
      </trkpt>
      <trkpt lat="44.45158" lon="3.15482">
        <ele>644.22</ele>
        <time>2012-06-02T08:21:39Z</time>
      </trkpt>
      <trkpt lat="44.45148" lon="3.15458">
        <ele>643.74</ele>
        <time>2012-06-02T08:22:00Z</time>
      </trkpt>
      <trkpt lat="44.4514" lon="3.15437">
        <ele>640.38</ele>
        <time>2012-06-02T08:22:27Z</time>
      </trkpt>
      <trkpt lat="44.45126" lon="3.15414">
        <ele>634.13</ele>
        <time>2012-06-02T08:22:56Z</time>
      </trkpt>
      <trkpt lat="44.45106" lon="3.15383">
        <ele>630.28</ele>
        <time>2012-06-02T08:23:17Z</time>
      </trkpt>
      <trkpt lat="44.45088" lon="3.15373">
        <ele>627.4</ele>
        <time>2012-06-02T08:23:40Z</time>
      </trkpt>
      <trkpt lat="44.45069" lon="3.15376">
        <ele>625.96</ele>
        <time>2012-06-02T08:23:55Z</time>
      </trkpt>
      <trkpt lat="44.45051" lon="3.15369">
        <ele>622.11</ele>
        <time>2012-06-02T08:24:15Z</time>
      </trkpt>
      <trkpt lat="44.45035" lon="3.15361">
        <ele>619.71</ele>
        <time>2012-06-02T08:24:34Z</time>
      </trkpt>
      <trkpt lat="44.45019" lon="3.15351">
        <ele>616.82</ele>
        <time>2012-06-02T08:24:52Z</time>
      </trkpt>
      <trkpt lat="44.45" lon="3.15337">
        <ele>611.06</ele>
        <time>2012-06-02T08:25:13Z</time>
      </trkpt>
      <trkpt lat="44.44985" lon="3.1533">
        <ele>608.17</ele>
        <time>2012-06-02T08:25:32Z</time>
      </trkpt>
      <trkpt lat="44.44965" lon="3.15329">
        <ele>606.25</ele>
        <time>2012-06-02T08:25:51Z</time>
      </trkpt>
      <trkpt lat="44.44949" lon="3.15316">
        <ele>602.4</ele>
        <time>2012-06-02T08:26:12Z</time>
      </trkpt>
      <trkpt lat="44.44934" lon="3.15306">
        <ele>600.96</ele>
        <time>2012-06-02T08:26:23Z</time>
      </trkpt>
      <trkpt lat="44.44922" lon="3.15302">
        <ele>599.52</ele>
        <time>2012-06-02T08:26:35Z</time>
      </trkpt>
      <trkpt lat="44.44905" lon="3.15291">
        <ele>598.56</ele>
        <time>2012-06-02T08:26:53Z</time>
      </trkpt>
      <trkpt lat="44.44893" lon="3.15278">
        <ele>596.15</ele>
        <time>2012-06-02T08:27:08Z</time>
      </trkpt>
      <trkpt lat="44.44883" lon="3.15273">
        <ele>593.75</ele>
        <time>2012-06-02T08:28:59Z</time>
      </trkpt>
      <trkpt lat="44.44869" lon="3.15266">
        <ele>591.83</ele>
        <time>2012-06-02T08:29:14Z</time>
      </trkpt>
      <trkpt lat="44.44854" lon="3.15257">
        <ele>589.91</ele>
        <time>2012-06-02T08:29:32Z</time>
      </trkpt>
      <trkpt lat="44.4484" lon="3.15244">
        <ele>588.95</ele>
        <time>2012-06-02T08:29:44Z</time>
      </trkpt>
      <trkpt lat="44.44823" lon="3.15236">
        <ele>587.02</ele>
        <time>2012-06-02T08:29:59Z</time>
      </trkpt>
      <trkpt lat="44.4481" lon="3.15228">
        <ele>585.58</ele>
        <time>2012-06-02T08:30:16Z</time>
      </trkpt>
      <trkpt lat="44.44794" lon="3.15223">
        <ele>583.18</ele>
        <time>2012-06-02T08:30:38Z</time>
      </trkpt>
      <trkpt lat="44.44778" lon="3.15219">
        <ele>581.25</ele>
        <time>2012-06-02T08:30:53Z</time>
      </trkpt>
      <trkpt lat="44.44761" lon="3.15221">
        <ele>581.25</ele>
        <time>2012-06-02T08:31:10Z</time>
      </trkpt>
      <trkpt lat="44.44743" lon="3.15219">
        <ele>580.29</ele>
        <time>2012-06-02T08:31:23Z</time>
      </trkpt>
      <trkpt lat="44.4473" lon="3.15213">
        <ele>578.85</ele>
        <time>2012-06-02T08:31:36Z</time>
      </trkpt>
      <trkpt lat="44.44717" lon="3.1521">
        <ele>576.93</ele>
        <time>2012-06-02T08:31:49Z</time>
      </trkpt>
      <trkpt lat="44.44706" lon="3.15208">
        <ele>575.97</ele>
        <time>2012-06-02T08:31:59Z</time>
      </trkpt>
      <trkpt lat="44.44697" lon="3.15204">
        <ele>574.53</ele>
        <time>2012-06-02T08:32:16Z</time>
      </trkpt>
      <trkpt lat="44.44692" lon="3.15191">
        <ele>572.12</ele>
        <time>2012-06-02T08:32:29Z</time>
      </trkpt>
      <trkpt lat="44.44702" lon="3.15178">
        <ele>568.76</ele>
        <time>2012-06-02T08:32:54Z</time>
      </trkpt>
      <trkpt lat="44.44713" lon="3.15175">
        <ele>565.39</ele>
        <time>2012-06-02T08:33:14Z</time>
      </trkpt>
      <trkpt lat="44.44726" lon="3.15171">
        <ele>562.03</ele>
        <time>2012-06-02T08:33:33Z</time>
      </trkpt>
      <trkpt lat="44.44733" lon="3.15171">
        <ele>560.59</ele>
        <time>2012-06-02T08:33:53Z</time>
      </trkpt>
      <trkpt lat="44.44755" lon="3.15171">
        <ele>559.14</ele>
        <time>2012-06-02T08:34:13Z</time>
      </trkpt>
      <trkpt lat="44.44799" lon="3.15167">
        <ele>558.18</ele>
        <time>2012-06-02T08:34:30Z</time>
      </trkpt>
      <trkpt lat="44.44838" lon="3.15164">
        <ele>556.26</ele>
        <time>2012-06-02T08:34:57Z</time>
      </trkpt>
      <trkpt lat="44.44869" lon="3.15167">
        <ele>553.38</ele>
        <time>2012-06-02T08:35:25Z</time>
      </trkpt>
      <trkpt lat="44.4489" lon="3.1516">
        <ele>549.05</ele>
        <time>2012-06-02T08:35:49Z</time>
      </trkpt>
      <trkpt lat="44.44905" lon="3.1515">
        <ele>546.17</ele>
        <time>2012-06-02T08:36:05Z</time>
      </trkpt>
      <trkpt lat="44.44915" lon="3.15139">
        <ele>544.24</ele>
        <time>2012-06-02T08:36:16Z</time>
      </trkpt>
      <trkpt lat="44.44921" lon="3.15126">
        <ele>544.24</ele>
        <time>2012-06-02T08:36:27Z</time>
      </trkpt>
      <trkpt lat="44.44927" lon="3.15114">
        <ele>544.24</ele>
        <time>2012-06-02T08:36:40Z</time>
      </trkpt>
      <trkpt lat="44.44934" lon="3.15094">
        <ele>545.2</ele>
        <time>2012-06-02T08:37:11Z</time>
      </trkpt>
      <trkpt lat="44.44936" lon="3.15076">
        <ele>546.17</ele>
        <time>2012-06-02T08:37:37Z</time>
      </trkpt>
      <trkpt lat="44.44941" lon="3.15062">
        <ele>546.65</ele>
        <time>2012-06-02T08:37:51Z</time>
      </trkpt>
      <trkpt lat="44.44945" lon="3.15047">
        <ele>547.13</ele>
        <time>2012-06-02T08:38:00Z</time>
      </trkpt>
      <trkpt lat="44.44949" lon="3.15026">
        <ele>549.05</ele>
        <time>2012-06-02T08:38:14Z</time>
      </trkpt>
      <trkpt lat="44.44949" lon="3.15015">
        <ele>550.49</ele>
        <time>2012-06-02T08:38:30Z</time>
      </trkpt>
      <trkpt lat="44.44942" lon="3.15005">
        <ele>550.01</ele>
        <time>2012-06-02T08:38:38Z</time>
      </trkpt>
      <trkpt lat="44.44935" lon="3.14996">
        <ele>549.53</ele>
        <time>2012-06-02T08:38:46Z</time>
      </trkpt>
      <trkpt lat="44.44927" lon="3.14987">
        <ele>549.05</ele>
        <time>2012-06-02T08:38:54Z</time>
      </trkpt>
      <trkpt lat="44.44919" lon="3.14979">
        <ele>548.09</ele>
        <time>2012-06-02T08:39:02Z</time>
      </trkpt>
      <trkpt lat="44.44911" lon="3.14972">
        <ele>548.09</ele>
        <time>2012-06-02T08:39:10Z</time>
      </trkpt>
      <trkpt lat="44.44904" lon="3.14964">
        <ele>547.61</ele>
        <time>2012-06-02T08:39:18Z</time>
      </trkpt>
      <trkpt lat="44.44896" lon="3.14959">
        <ele>547.13</ele>
        <time>2012-06-02T08:39:25Z</time>
      </trkpt>
      <trkpt lat="44.44887" lon="3.14954">
        <ele>546.65</ele>
        <time>2012-06-02T08:39:32Z</time>
      </trkpt>
      <trkpt lat="44.44879" lon="3.14949">
        <ele>546.65</ele>
        <time>2012-06-02T08:39:40Z</time>
      </trkpt>
      <trkpt lat="44.44871" lon="3.14943">
        <ele>546.17</ele>
        <time>2012-06-02T08:39:48Z</time>
      </trkpt>
      <trkpt lat="44.44865" lon="3.14936">
        <ele>546.65</ele>
        <time>2012-06-02T08:39:56Z</time>
      </trkpt>
      <trkpt lat="44.44858" lon="3.1493">
        <ele>546.17</ele>
        <time>2012-06-02T08:40:09Z</time>
      </trkpt>
      <trkpt lat="44.4485" lon="3.14922">
        <ele>546.65</ele>
        <time>2012-06-02T08:40:17Z</time>
      </trkpt>
      <trkpt lat="44.44843" lon="3.14914">
        <ele>546.17</ele>
        <time>2012-06-02T08:40:25Z</time>
      </trkpt>
      <trkpt lat="44.44834" lon="3.14905">
        <ele>546.17</ele>
        <time>2012-06-02T08:40:33Z</time>
      </trkpt>
      <trkpt lat="44.44828" lon="3.14897">
        <ele>545.69</ele>
        <time>2012-06-02T08:40:40Z</time>
      </trkpt>
      <trkpt lat="44.4482" lon="3.1489">
        <ele>546.17</ele>
        <time>2012-06-02T08:40:47Z</time>
      </trkpt>
      <trkpt lat="44.44812" lon="3.14882">
        <ele>545.69</ele>
        <time>2012-06-02T08:40:55Z</time>
      </trkpt>
      <trkpt lat="44.44805" lon="3.14874">
        <ele>545.2</ele>
        <time>2012-06-02T08:41:03Z</time>
      </trkpt>
      <trkpt lat="44.44798" lon="3.14865">
        <ele>545.69</ele>
        <time>2012-06-02T08:41:11Z</time>
      </trkpt>
      <trkpt lat="44.44792" lon="3.14855">
        <ele>545.69</ele>
        <time>2012-06-02T08:41:18Z</time>
      </trkpt>
      <trkpt lat="44.44786" lon="3.14845">
        <ele>546.17</ele>
        <time>2012-06-02T08:41:25Z</time>
      </trkpt>
      <trkpt lat="44.44782" lon="3.14835">
        <ele>546.65</ele>
        <time>2012-06-02T08:41:33Z</time>
      </trkpt>
      <trkpt lat="44.44776" lon="3.14823">
        <ele>546.65</ele>
        <time>2012-06-02T08:41:41Z</time>
      </trkpt>
      <trkpt lat="44.44771" lon="3.14813">
        <ele>547.13</ele>
        <time>2012-06-02T08:41:48Z</time>
      </trkpt>
      <trkpt lat="44.44766" lon="3.14803">
        <ele>546.65</ele>
        <time>2012-06-02T08:41:56Z</time>
      </trkpt>
      <trkpt lat="44.44762" lon="3.14792">
        <ele>547.13</ele>
        <time>2012-06-02T08:42:04Z</time>
      </trkpt>
      <trkpt lat="44.44757" lon="3.14781">
        <ele>547.61</ele>
        <time>2012-06-02T08:42:12Z</time>
      </trkpt>
      <trkpt lat="44.44752" lon="3.14771">
        <ele>547.61</ele>
        <time>2012-06-02T08:42:20Z</time>
      </trkpt>
      <trkpt lat="44.44748" lon="3.1476">
        <ele>548.57</ele>
        <time>2012-06-02T08:42:30Z</time>
      </trkpt>
      <trkpt lat="44.44744" lon="3.14754">
        <ele>548.57</ele>
        <time>2012-06-02T08:43:30Z</time>
      </trkpt>
      <trkpt lat="44.44739" lon="3.14742">
        <ele>548.57</ele>
        <time>2012-06-02T08:43:39Z</time>
      </trkpt>
      <trkpt lat="44.44733" lon="3.14732">
        <ele>549.05</ele>
        <time>2012-06-02T08:43:47Z</time>
      </trkpt>
      <trkpt lat="44.44726" lon="3.14723">
        <ele>549.05</ele>
        <time>2012-06-02T08:44:05Z</time>
      </trkpt>
      <trkpt lat="44.44718" lon="3.14716">
        <ele>548.09</ele>
        <time>2012-06-02T08:44:15Z</time>
      </trkpt>
      <trkpt lat="44.4471" lon="3.14708">
        <ele>548.09</ele>
        <time>2012-06-02T08:44:23Z</time>
      </trkpt>
      <trkpt lat="44.44704" lon="3.14703">
        <ele>547.61</ele>
        <time>2012-06-02T08:44:48Z</time>
      </trkpt>
      <trkpt lat="44.44697" lon="3.14695">
        <ele>547.61</ele>
        <time>2012-06-02T08:44:56Z</time>
      </trkpt>
      <trkpt lat="44.4469" lon="3.14685">
        <ele>547.61</ele>
        <time>2012-06-02T08:45:05Z</time>
      </trkpt>
      <trkpt lat="44.44684" lon="3.14674">
        <ele>546.65</ele>
        <time>2012-06-02T08:45:17Z</time>
      </trkpt>
      <trkpt lat="44.44676" lon="3.14665">
        <ele>546.17</ele>
        <time>2012-06-02T08:45:26Z</time>
      </trkpt>
      <trkpt lat="44.44669" lon="3.14657">
        <ele>546.17</ele>
        <time>2012-06-02T08:45:34Z</time>
      </trkpt>
      <trkpt lat="44.44663" lon="3.14648">
        <ele>546.17</ele>
        <time>2012-06-02T08:45:42Z</time>
      </trkpt>
      <trkpt lat="44.44657" lon="3.14638">
        <ele>546.17</ele>
        <time>2012-06-02T08:45:50Z</time>
      </trkpt>
      <trkpt lat="44.44662" lon="3.14626">
        <ele>546.65</ele>
        <time>2012-06-02T08:46:01Z</time>
      </trkpt>
      <trkpt lat="44.44671" lon="3.14621">
        <ele>547.61</ele>
        <time>2012-06-02T08:46:12Z</time>
      </trkpt>
      <trkpt lat="44.44683" lon="3.14614">
        <ele>549.05</ele>
        <time>2012-06-02T08:46:25Z</time>
      </trkpt>
      <trkpt lat="44.44694" lon="3.1461">
        <ele>549.53</ele>
        <time>2012-06-02T08:46:35Z</time>
      </trkpt>
      <trkpt lat="44.44704" lon="3.14606">
        <ele>550.97</ele>
        <time>2012-06-02T08:46:45Z</time>
      </trkpt>
      <trkpt lat="44.44715" lon="3.146">
        <ele>551.45</ele>
        <time>2012-06-02T08:46:54Z</time>
      </trkpt>
      <trkpt lat="44.44726" lon="3.14593">
        <ele>552.41</ele>
        <time>2012-06-02T08:47:04Z</time>
      </trkpt>
      <trkpt lat="44.44736" lon="3.14587">
        <ele>553.86</ele>
        <time>2012-06-02T08:47:14Z</time>
      </trkpt>
      <trkpt lat="44.44746" lon="3.1458">
        <ele>555.3</ele>
        <time>2012-06-02T08:47:26Z</time>
      </trkpt>
      <trkpt lat="44.44757" lon="3.14575">
        <ele>556.74</ele>
        <time>2012-06-02T08:47:39Z</time>
      </trkpt>
      <trkpt lat="44.44767" lon="3.14569">
        <ele>559.14</ele>
        <time>2012-06-02T08:47:49Z</time>
      </trkpt>
      <trkpt lat="44.44779" lon="3.14563">
        <ele>560.59</ele>
        <time>2012-06-02T08:48:07Z</time>
      </trkpt>
      <trkpt lat="44.44804" lon="3.14563">
        <ele>563.47</ele>
        <time>2012-06-02T08:48:32Z</time>
      </trkpt>
      <trkpt lat="44.44825" lon="3.14565">
        <ele>566.35</ele>
        <time>2012-06-02T08:48:56Z</time>
      </trkpt>
      <trkpt lat="44.44852" lon="3.14564">
        <ele>571.64</ele>
        <time>2012-06-02T08:49:32Z</time>
      </trkpt>
      <trkpt lat="44.4488" lon="3.14568">
        <ele>575.49</ele>
        <time>2012-06-02T08:49:53Z</time>
      </trkpt>
      <trkpt lat="44.44916" lon="3.14566">
        <ele>583.18</ele>
        <time>2012-06-02T08:50:40Z</time>
      </trkpt>
      <trkpt lat="44.44948" lon="3.14552">
        <ele>586.54</ele>
        <time>2012-06-02T08:51:07Z</time>
      </trkpt>
      <trkpt lat="44.4497" lon="3.14557">
        <ele>587.98</ele>
        <time>2012-06-02T08:51:21Z</time>
      </trkpt>
      <trkpt lat="44.44978" lon="3.14565">
        <ele>590.39</ele>
        <time>2012-06-02T08:53:55Z</time>
      </trkpt>
      <trkpt lat="44.44977" lon="3.14573">
        <ele>590.39</ele>
        <time>2012-06-02T08:54:40Z</time>
      </trkpt>
      <trkpt lat="44.44986" lon="3.14583">
        <ele>592.31</ele>
        <time>2012-06-02T08:55:02Z</time>
      </trkpt>
      <trkpt lat="44.44997" lon="3.14593">
        <ele>594.71</ele>
        <time>2012-06-02T08:55:17Z</time>
      </trkpt>
      <trkpt lat="44.45012" lon="3.14598">
        <ele>597.12</ele>
        <time>2012-06-02T08:55:38Z</time>
      </trkpt>
      <trkpt lat="44.45026" lon="3.14597">
        <ele>599.52</ele>
        <time>2012-06-02T08:55:56Z</time>
      </trkpt>
      <trkpt lat="44.45043" lon="3.14606">
        <ele>601.92</ele>
        <time>2012-06-02T08:56:13Z</time>
      </trkpt>
      <trkpt lat="44.4506" lon="3.14616">
        <ele>603.36</ele>
        <time>2012-06-02T08:56:31Z</time>
      </trkpt>
      <trkpt lat="44.45062" lon="3.14602">
        <ele>606.73</ele>
        <time>2012-06-02T08:56:50Z</time>
      </trkpt>
      <trkpt lat="44.45066" lon="3.14581">
        <ele>610.09</ele>
        <time>2012-06-02T08:57:12Z</time>
      </trkpt>
      <trkpt lat="44.45075" lon="3.14563">
        <ele>613.46</ele>
        <time>2012-06-02T08:57:32Z</time>
      </trkpt>
      <trkpt lat="44.45086" lon="3.14552">
        <ele>617.3</ele>
        <time>2012-06-02T08:57:56Z</time>
      </trkpt>
      <trkpt lat="44.45102" lon="3.14539">
        <ele>622.11</ele>
        <time>2012-06-02T08:58:22Z</time>
      </trkpt>
      <trkpt lat="44.4512" lon="3.14527">
        <ele>624.03</ele>
        <time>2012-06-02T08:58:36Z</time>
      </trkpt>
      <trkpt lat="44.45127" lon="3.14506">
        <ele>625.47</ele>
        <time>2012-06-02T08:58:48Z</time>
      </trkpt>
      <trkpt lat="44.45128" lon="3.14489">
        <ele>626.92</ele>
        <time>2012-06-02T09:00:01Z</time>
      </trkpt>
      <trkpt lat="44.45138" lon="3.14484">
        <ele>627.88</ele>
        <time>2012-06-02T09:00:13Z</time>
      </trkpt>
      <trkpt lat="44.45147" lon="3.14484">
        <ele>629.32</ele>
        <time>2012-06-02T09:00:23Z</time>
      </trkpt>
      <trkpt lat="44.45157" lon="3.14486">
        <ele>629.8</ele>
        <time>2012-06-02T09:00:31Z</time>
      </trkpt>
      <trkpt lat="44.4517" lon="3.14495">
        <ele>630.76</ele>
        <time>2012-06-02T09:00:42Z</time>
      </trkpt>
      <trkpt lat="44.45178" lon="3.1451">
        <ele>632.2</ele>
        <time>2012-06-02T09:00:54Z</time>
      </trkpt>
      <trkpt lat="44.45185" lon="3.1452">
        <ele>633.65</ele>
        <time>2012-06-02T09:01:04Z</time>
      </trkpt>
      <trkpt lat="44.45196" lon="3.14525">
        <ele>634.61</ele>
        <time>2012-06-02T09:01:14Z</time>
      </trkpt>
      <trkpt lat="44.45207" lon="3.14526">
        <ele>636.05</ele>
        <time>2012-06-02T09:01:24Z</time>
      </trkpt>
      <trkpt lat="44.45218" lon="3.14523">
        <ele>638.45</ele>
        <time>2012-06-02T09:01:36Z</time>
      </trkpt>
      <trkpt lat="44.4523" lon="3.14518">
        <ele>640.86</ele>
        <time>2012-06-02T09:01:49Z</time>
      </trkpt>
      <trkpt lat="44.4524" lon="3.14513">
        <ele>642.3</ele>
        <time>2012-06-02T09:02:01Z</time>
      </trkpt>
      <trkpt lat="44.45253" lon="3.14507">
        <ele>644.22</ele>
        <time>2012-06-02T09:02:15Z</time>
      </trkpt>
      <trkpt lat="44.45264" lon="3.14504">
        <ele>645.66</ele>
        <time>2012-06-02T09:02:26Z</time>
      </trkpt>
      <trkpt lat="44.45276" lon="3.14501">
        <ele>646.62</ele>
        <time>2012-06-02T09:02:37Z</time>
      </trkpt>
      <trkpt lat="44.4529" lon="3.145">
        <ele>647.59</ele>
        <time>2012-06-02T09:02:51Z</time>
      </trkpt>
      <trkpt lat="44.45303" lon="3.145">
        <ele>649.03</ele>
        <time>2012-06-02T09:03:00Z</time>
      </trkpt>
      <trkpt lat="44.45313" lon="3.14499">
        <ele>649.99</ele>
        <time>2012-06-02T09:03:08Z</time>
      </trkpt>
      <trkpt lat="44.45324" lon="3.14497">
        <ele>649.99</ele>
        <time>2012-06-02T09:03:18Z</time>
      </trkpt>
      <trkpt lat="44.45336" lon="3.14496">
        <ele>650.95</ele>
        <time>2012-06-02T09:03:28Z</time>
      </trkpt>
      <trkpt lat="44.45346" lon="3.14493">
        <ele>652.87</ele>
        <time>2012-06-02T09:03:37Z</time>
      </trkpt>
      <trkpt lat="44.45356" lon="3.14488">
        <ele>653.35</ele>
        <time>2012-06-02T09:03:47Z</time>
      </trkpt>
      <trkpt lat="44.45368" lon="3.14482">
        <ele>654.31</ele>
        <time>2012-06-02T09:03:57Z</time>
      </trkpt>
      <trkpt lat="44.45379" lon="3.14476">
        <ele>654.8</ele>
        <time>2012-06-02T09:04:07Z</time>
      </trkpt>
      <trkpt lat="44.45391" lon="3.14471">
        <ele>655.28</ele>
        <time>2012-06-02T09:04:18Z</time>
      </trkpt>
      <trkpt lat="44.45403" lon="3.14468">
        <ele>656.72</ele>
        <time>2012-06-02T09:04:30Z</time>
      </trkpt>
      <trkpt lat="44.45417" lon="3.14464">
        <ele>658.16</ele>
        <time>2012-06-02T09:04:46Z</time>
      </trkpt>
      <trkpt lat="44.45429" lon="3.14459">
        <ele>658.16</ele>
        <time>2012-06-02T09:04:56Z</time>
      </trkpt>
      <trkpt lat="44.45441" lon="3.14453">
        <ele>659.12</ele>
        <time>2012-06-02T09:05:05Z</time>
      </trkpt>
      <trkpt lat="44.45452" lon="3.14447">
        <ele>661.04</ele>
        <time>2012-06-02T09:05:22Z</time>
      </trkpt>
      <trkpt lat="44.45456" lon="3.14435">
        <ele>662.01</ele>
        <time>2012-06-02T09:07:43Z</time>
      </trkpt>
      <trkpt lat="44.45467" lon="3.14428">
        <ele>663.45</ele>
        <time>2012-06-02T09:10:31Z</time>
      </trkpt>
      <trkpt lat="44.45477" lon="3.14429">
        <ele>664.41</ele>
        <time>2012-06-02T09:10:43Z</time>
      </trkpt>
      <trkpt lat="44.45487" lon="3.14436">
        <ele>665.85</ele>
        <time>2012-06-02T09:10:53Z</time>
      </trkpt>
      <trkpt lat="44.45494" lon="3.14445">
        <ele>667.29</ele>
        <time>2012-06-02T09:11:04Z</time>
      </trkpt>
      <trkpt lat="44.45503" lon="3.14451">
        <ele>668.73</ele>
        <time>2012-06-02T09:11:15Z</time>
      </trkpt>
      <trkpt lat="44.45513" lon="3.14446">
        <ele>671.14</ele>
        <time>2012-06-02T09:11:27Z</time>
      </trkpt>
      <trkpt lat="44.45525" lon="3.14439">
        <ele>673.06</ele>
        <time>2012-06-02T09:11:41Z</time>
      </trkpt>
      <trkpt lat="44.45532" lon="3.14432">
        <ele>675.46</ele>
        <time>2012-06-02T09:11:52Z</time>
      </trkpt>
      <trkpt lat="44.4554" lon="3.14425">
        <ele>675.94</ele>
        <time>2012-06-02T09:12:02Z</time>
      </trkpt>
      <trkpt lat="44.4555" lon="3.14417">
        <ele>677.87</ele>
        <time>2012-06-02T09:12:17Z</time>
      </trkpt>
      <trkpt lat="44.45561" lon="3.14413">
        <ele>678.83</ele>
        <time>2012-06-02T09:12:30Z</time>
      </trkpt>
      <trkpt lat="44.45572" lon="3.14412">
        <ele>681.71</ele>
        <time>2012-06-02T09:12:48Z</time>
      </trkpt>
      <trkpt lat="44.45584" lon="3.14411">
        <ele>683.63</ele>
        <time>2012-06-02T09:13:00Z</time>
      </trkpt>
      <trkpt lat="44.45598" lon="3.14409">
        <ele>686.04</ele>
        <time>2012-06-02T09:13:13Z</time>
      </trkpt>
      <trkpt lat="44.45612" lon="3.14404">
        <ele>688.44</ele>
        <time>2012-06-02T09:13:27Z</time>
      </trkpt>
      <trkpt lat="44.45622" lon="3.14394">
        <ele>690.36</ele>
        <time>2012-06-02T09:13:39Z</time>
      </trkpt>
      <trkpt lat="44.45631" lon="3.14395">
        <ele>692.29</ele>
        <time>2012-06-02T09:13:51Z</time>
      </trkpt>
      <trkpt lat="44.45639" lon="3.14388">
        <ele>692.29</ele>
        <time>2012-06-02T09:14:04Z</time>
      </trkpt>
      <trkpt lat="44.45648" lon="3.14376">
        <ele>692.77</ele>
        <time>2012-06-02T09:14:24Z</time>
      </trkpt>
      <trkpt lat="44.45658" lon="3.14368">
        <ele>692.29</ele>
        <time>2012-06-02T09:14:34Z</time>
      </trkpt>
      <trkpt lat="44.45673" lon="3.14363">
        <ele>691.81</ele>
        <time>2012-06-02T09:14:47Z</time>
      </trkpt>
      <trkpt lat="44.45685" lon="3.14361">
        <ele>691.81</ele>
        <time>2012-06-02T09:15:00Z</time>
      </trkpt>
      <trkpt lat="44.45698" lon="3.14356">
        <ele>691.33</ele>
        <time>2012-06-02T09:15:12Z</time>
      </trkpt>
      <trkpt lat="44.45707" lon="3.14345">
        <ele>691.33</ele>
        <time>2012-06-02T09:15:31Z</time>
      </trkpt>
      <trkpt lat="44.45718" lon="3.14331">
        <ele>690.36</ele>
        <time>2012-06-02T09:15:43Z</time>
      </trkpt>
      <trkpt lat="44.45722" lon="3.14307">
        <ele>690.36</ele>
        <time>2012-06-02T09:15:56Z</time>
      </trkpt>
      <trkpt lat="44.45726" lon="3.14297">
        <ele>690.84</ele>
        <time>2012-06-02T09:16:16Z</time>
      </trkpt>
      <trkpt lat="44.45731" lon="3.14287">
        <ele>692.77</ele>
        <time>2012-06-02T09:16:37Z</time>
      </trkpt>
      <trkpt lat="44.45737" lon="3.14286">
        <ele>695.17</ele>
        <time>2012-06-02T09:16:50Z</time>
      </trkpt>
      <trkpt lat="44.45755" lon="3.14292">
        <ele>699.02</ele>
        <time>2012-06-02T09:17:09Z</time>
      </trkpt>
      <trkpt lat="44.45768" lon="3.143">
        <ele>702.38</ele>
        <time>2012-06-02T09:17:31Z</time>
      </trkpt>
      <trkpt lat="44.45784" lon="3.14306">
        <ele>704.3</ele>
        <time>2012-06-02T09:17:48Z</time>
      </trkpt>
      <trkpt lat="44.45796" lon="3.14313">
        <ele>706.71</ele>
        <time>2012-06-02T09:18:02Z</time>
      </trkpt>
      <trkpt lat="44.45808" lon="3.14321">
        <ele>709.11</ele>
        <time>2012-06-02T09:18:20Z</time>
      </trkpt>
      <trkpt lat="44.45823" lon="3.14325">
        <ele>711.51</ele>
        <time>2012-06-02T09:18:37Z</time>
      </trkpt>
      <trkpt lat="44.45831" lon="3.14333">
        <ele>713.92</ele>
        <time>2012-06-02T09:18:52Z</time>
      </trkpt>
      <trkpt lat="44.45839" lon="3.14326">
        <ele>714.4</ele>
        <time>2012-06-02T09:19:05Z</time>
      </trkpt>
      <trkpt lat="44.45848" lon="3.14316">
        <ele>715.84</ele>
        <time>2012-06-02T09:19:28Z</time>
      </trkpt>
      <trkpt lat="44.45857" lon="3.14306">
        <ele>716.8</ele>
        <time>2012-06-02T09:19:42Z</time>
      </trkpt>
      <trkpt lat="44.45867" lon="3.14298">
        <ele>717.28</ele>
        <time>2012-06-02T09:19:53Z</time>
      </trkpt>
      <trkpt lat="44.45877" lon="3.14293">
        <ele>718.24</ele>
        <time>2012-06-02T09:20:03Z</time>
      </trkpt>
      <trkpt lat="44.45886" lon="3.14283">
        <ele>718.24</ele>
        <time>2012-06-02T09:20:13Z</time>
      </trkpt>
      <trkpt lat="44.45895" lon="3.14275">
        <ele>719.2</ele>
        <time>2012-06-02T09:20:22Z</time>
      </trkpt>
      <trkpt lat="44.45904" lon="3.14265">
        <ele>720.16</ele>
        <time>2012-06-02T09:20:29Z</time>
      </trkpt>
      <trkpt lat="44.45911" lon="3.14253">
        <ele>721.13</ele>
        <time>2012-06-02T09:20:39Z</time>
      </trkpt>
      <trkpt lat="44.45917" lon="3.14239">
        <ele>722.09</ele>
        <time>2012-06-02T09:20:49Z</time>
      </trkpt>
      <trkpt lat="44.45921" lon="3.14224">
        <ele>723.05</ele>
        <time>2012-06-02T09:20:58Z</time>
      </trkpt>
      <trkpt lat="44.45923" lon="3.14208">
        <ele>723.53</ele>
        <time>2012-06-02T09:21:10Z</time>
      </trkpt>
      <trkpt lat="44.45927" lon="3.14193">
        <ele>724.97</ele>
        <time>2012-06-02T09:21:21Z</time>
      </trkpt>
      <trkpt lat="44.45932" lon="3.14177">
        <ele>725.45</ele>
        <time>2012-06-02T09:21:31Z</time>
      </trkpt>
      <trkpt lat="44.45936" lon="3.1416">
        <ele>725.93</ele>
        <time>2012-06-02T09:21:42Z</time>
      </trkpt>
      <trkpt lat="44.45938" lon="3.14143">
        <ele>726.89</ele>
        <time>2012-06-02T09:21:59Z</time>
      </trkpt>
      <trkpt lat="44.45948" lon="3.14135">
        <ele>727.37</ele>
        <time>2012-06-02T09:22:10Z</time>
      </trkpt>
      <trkpt lat="44.4596" lon="3.14129">
        <ele>728.34</ele>
        <time>2012-06-02T09:22:19Z</time>
      </trkpt>
      <trkpt lat="44.4597" lon="3.14124">
        <ele>729.3</ele>
        <time>2012-06-02T09:22:26Z</time>
      </trkpt>
      <trkpt lat="44.45983" lon="3.14118">
        <ele>730.26</ele>
        <time>2012-06-02T09:22:36Z</time>
      </trkpt>
      <trkpt lat="44.45989" lon="3.14109">
        <ele>730.74</ele>
        <time>2012-06-02T09:22:46Z</time>
      </trkpt>
      <trkpt lat="44.45995" lon="3.14097">
        <ele>733.62</ele>
        <time>2012-06-02T09:23:00Z</time>
      </trkpt>
      <trkpt lat="44.45996" lon="3.14084">
        <ele>735.07</ele>
        <time>2012-06-02T09:26:40Z</time>
      </trkpt>
      <trkpt lat="44.45997" lon="3.14069">
        <ele>736.51</ele>
        <time>2012-06-02T09:26:52Z</time>
      </trkpt>
      <trkpt lat="44.45997" lon="3.14052">
        <ele>736.99</ele>
        <time>2012-06-02T09:27:08Z</time>
      </trkpt>
      <trkpt lat="44.45997" lon="3.14037">
        <ele>738.91</ele>
        <time>2012-06-02T09:27:18Z</time>
      </trkpt>
      <trkpt lat="44.45996" lon="3.14023">
        <ele>739.87</ele>
        <time>2012-06-02T09:27:29Z</time>
      </trkpt>
      <trkpt lat="44.45997" lon="3.14002">
        <ele>740.83</ele>
        <time>2012-06-02T09:27:43Z</time>
      </trkpt>
      <trkpt lat="44.45998" lon="3.13985">
        <ele>741.79</ele>
        <time>2012-06-02T09:27:54Z</time>
      </trkpt>
      <trkpt lat="44.45997" lon="3.13966">
        <ele>742.28</ele>
        <time>2012-06-02T09:28:05Z</time>
      </trkpt>
      <trkpt lat="44.46" lon="3.13947">
        <ele>743.24</ele>
        <time>2012-06-02T09:28:19Z</time>
      </trkpt>
      <trkpt lat="44.46005" lon="3.13931">
        <ele>745.16</ele>
        <time>2012-06-02T09:28:31Z</time>
      </trkpt>
      <trkpt lat="44.46015" lon="3.1393">
        <ele>747.56</ele>
        <time>2012-06-02T09:28:43Z</time>
      </trkpt>
      <trkpt lat="44.46026" lon="3.13939">
        <ele>749.97</ele>
        <time>2012-06-02T09:28:56Z</time>
      </trkpt>
      <trkpt lat="44.46035" lon="3.13947">
        <ele>751.89</ele>
        <time>2012-06-02T09:29:09Z</time>
      </trkpt>
      <trkpt lat="44.46044" lon="3.13958">
        <ele>753.81</ele>
        <time>2012-06-02T09:29:24Z</time>
      </trkpt>
      <trkpt lat="44.46054" lon="3.13967">
        <ele>756.21</ele>
        <time>2012-06-02T09:29:36Z</time>
      </trkpt>
      <trkpt lat="44.46066" lon="3.13975">
        <ele>758.62</ele>
        <time>2012-06-02T09:29:52Z</time>
      </trkpt>
      <trkpt lat="44.46077" lon="3.13981">
        <ele>760.06</ele>
        <time>2012-06-02T09:30:05Z</time>
      </trkpt>
      <trkpt lat="44.46089" lon="3.13981">
        <ele>761.98</ele>
        <time>2012-06-02T09:30:15Z</time>
      </trkpt>
      <trkpt lat="44.46102" lon="3.13989">
        <ele>764.39</ele>
        <time>2012-06-02T09:30:31Z</time>
      </trkpt>
      <trkpt lat="44.46113" lon="3.13991">
        <ele>767.27</ele>
        <time>2012-06-02T09:30:45Z</time>
      </trkpt>
      <trkpt lat="44.46125" lon="3.1399">
        <ele>769.67</ele>
        <time>2012-06-02T09:31:00Z</time>
      </trkpt>
      <trkpt lat="44.4614" lon="3.13992">
        <ele>772.56</ele>
        <time>2012-06-02T09:31:17Z</time>
      </trkpt>
      <trkpt lat="44.46155" lon="3.14001">
        <ele>773.52</ele>
        <time>2012-06-02T09:31:29Z</time>
      </trkpt>
      <trkpt lat="44.46167" lon="3.14006">
        <ele>774.96</ele>
        <time>2012-06-02T09:31:39Z</time>
      </trkpt>
      <trkpt lat="44.46176" lon="3.14011">
        <ele>775.44</ele>
        <time>2012-06-02T09:31:49Z</time>
      </trkpt>
      <trkpt lat="44.46185" lon="3.14008">
        <ele>776.88</ele>
        <time>2012-06-02T09:32:58Z</time>
      </trkpt>
      <trkpt lat="44.46179" lon="3.13997">
        <ele>778.32</ele>
        <time>2012-06-02T09:33:06Z</time>
      </trkpt>
      <trkpt lat="44.46173" lon="3.13985">
        <ele>779.29</ele>
        <time>2012-06-02T09:33:15Z</time>
      </trkpt>
      <trkpt lat="44.46168" lon="3.13973">
        <ele>779.77</ele>
        <time>2012-06-02T09:33:24Z</time>
      </trkpt>
      <trkpt lat="44.46167" lon="3.13958">
        <ele>781.21</ele>
        <time>2012-06-02T09:33:35Z</time>
      </trkpt>
      <trkpt lat="44.46164" lon="3.13942">
        <ele>781.69</ele>
        <time>2012-06-02T09:33:45Z</time>
      </trkpt>
      <trkpt lat="44.46164" lon="3.13926">
        <ele>783.13</ele>
        <time>2012-06-02T09:33:55Z</time>
      </trkpt>
      <trkpt lat="44.46166" lon="3.1391">
        <ele>783.13</ele>
        <time>2012-06-02T09:34:07Z</time>
      </trkpt>
      <trkpt lat="44.46168" lon="3.13893">
        <ele>784.57</ele>
        <time>2012-06-02T09:34:20Z</time>
      </trkpt>
      <trkpt lat="44.46167" lon="3.1387">
        <ele>786.02</ele>
        <time>2012-06-02T09:34:34Z</time>
      </trkpt>
      <trkpt lat="44.46167" lon="3.13853">
        <ele>785.53</ele>
        <time>2012-06-02T09:34:52Z</time>
      </trkpt>
      <trkpt lat="44.4617" lon="3.13839">
        <ele>786.5</ele>
        <time>2012-06-02T09:35:01Z</time>
      </trkpt>
      <trkpt lat="44.46174" lon="3.13825">
        <ele>786.98</ele>
        <time>2012-06-02T09:35:10Z</time>
      </trkpt>
      <trkpt lat="44.46178" lon="3.13813">
        <ele>787.46</ele>
        <time>2012-06-02T09:35:19Z</time>
      </trkpt>
      <trkpt lat="44.46183" lon="3.138">
        <ele>788.42</ele>
        <time>2012-06-02T09:35:28Z</time>
      </trkpt>
      <trkpt lat="44.4619" lon="3.13786">
        <ele>789.38</ele>
        <time>2012-06-02T09:35:37Z</time>
      </trkpt>
      <trkpt lat="44.46194" lon="3.1377">
        <ele>789.86</ele>
        <time>2012-06-02T09:35:47Z</time>
      </trkpt>
      <trkpt lat="44.46199" lon="3.13755">
        <ele>791.3</ele>
        <time>2012-06-02T09:35:57Z</time>
      </trkpt>
      <trkpt lat="44.46205" lon="3.13742">
        <ele>791.3</ele>
        <time>2012-06-02T09:36:07Z</time>
      </trkpt>
      <trkpt lat="44.46211" lon="3.13728">
        <ele>792.74</ele>
        <time>2012-06-02T09:36:18Z</time>
      </trkpt>
      <trkpt lat="44.46213" lon="3.1371">
        <ele>793.71</ele>
        <time>2012-06-02T09:36:28Z</time>
      </trkpt>
      <trkpt lat="44.46215" lon="3.13694">
        <ele>794.67</ele>
        <time>2012-06-02T09:36:38Z</time>
      </trkpt>
      <trkpt lat="44.46219" lon="3.13677">
        <ele>795.15</ele>
        <time>2012-06-02T09:36:47Z</time>
      </trkpt>
      <trkpt lat="44.46223" lon="3.13662">
        <ele>796.11</ele>
        <time>2012-06-02T09:36:56Z</time>
      </trkpt>
      <trkpt lat="44.46228" lon="3.13648">
        <ele>796.59</ele>
        <time>2012-06-02T09:37:05Z</time>
      </trkpt>
      <trkpt lat="44.46233" lon="3.13636">
        <ele>797.07</ele>
        <time>2012-06-02T09:37:13Z</time>
      </trkpt>
      <trkpt lat="44.4624" lon="3.13625">
        <ele>798.03</ele>
        <time>2012-06-02T09:37:24Z</time>
      </trkpt>
      <trkpt lat="44.46245" lon="3.13611">
        <ele>798.51</ele>
        <time>2012-06-02T09:37:35Z</time>
      </trkpt>
      <trkpt lat="44.46247" lon="3.1359">
        <ele>798.99</ele>
        <time>2012-06-02T09:37:47Z</time>
      </trkpt>
      <trkpt lat="44.46254" lon="3.13576">
        <ele>797.07</ele>
        <time>2012-06-02T09:38:00Z</time>
      </trkpt>
      <trkpt lat="44.46257" lon="3.13553">
        <ele>798.03</ele>
        <time>2012-06-02T09:38:12Z</time>
      </trkpt>
      <trkpt lat="44.46259" lon="3.13537">
        <ele>799.47</ele>
        <time>2012-06-02T09:40:03Z</time>
      </trkpt>
      <trkpt lat="44.46264" lon="3.13525">
        <ele>800.44</ele>
        <time>2012-06-02T09:40:14Z</time>
      </trkpt>
      <trkpt lat="44.46271" lon="3.13513">
        <ele>801.88</ele>
        <time>2012-06-02T09:40:24Z</time>
      </trkpt>
      <trkpt lat="44.46276" lon="3.13493">
        <ele>802.84</ele>
        <time>2012-06-02T09:40:35Z</time>
      </trkpt>
      <trkpt lat="44.46279" lon="3.13474">
        <ele>804.76</ele>
        <time>2012-06-02T09:40:48Z</time>
      </trkpt>
      <trkpt lat="44.46278" lon="3.13457">
        <ele>805.72</ele>
        <time>2012-06-02T09:40:58Z</time>
      </trkpt>
      <trkpt lat="44.46275" lon="3.13442">
        <ele>806.2</ele>
        <time>2012-06-02T09:41:07Z</time>
      </trkpt>
      <trkpt lat="44.46271" lon="3.13427">
        <ele>806.68</ele>
        <time>2012-06-02T09:41:16Z</time>
      </trkpt>
      <trkpt lat="44.46269" lon="3.13413">
        <ele>808.13</ele>
        <time>2012-06-02T09:41:25Z</time>
      </trkpt>
      <trkpt lat="44.4627" lon="3.13398">
        <ele>808.61</ele>
        <time>2012-06-02T09:41:35Z</time>
      </trkpt>
      <trkpt lat="44.46274" lon="3.13388">
        <ele>808.61</ele>
        <time>2012-06-02T09:42:25Z</time>
      </trkpt>
      <trkpt lat="44.46284" lon="3.13381">
        <ele>809.57</ele>
        <time>2012-06-02T09:42:34Z</time>
      </trkpt>
      <trkpt lat="44.46294" lon="3.13377">
        <ele>810.53</ele>
        <time>2012-06-02T09:42:46Z</time>
      </trkpt>
      <trkpt lat="44.46307" lon="3.13378">
        <ele>812.45</ele>
        <time>2012-06-02T09:42:59Z</time>
      </trkpt>
      <trkpt lat="44.4633" lon="3.13376">
        <ele>813.89</ele>
        <time>2012-06-02T09:43:19Z</time>
      </trkpt>
      <trkpt lat="44.46348" lon="3.13373">
        <ele>815.34</ele>
        <time>2012-06-02T09:43:31Z</time>
      </trkpt>
      <trkpt lat="44.46361" lon="3.1337">
        <ele>816.78</ele>
        <time>2012-06-02T09:43:41Z</time>
      </trkpt>
      <trkpt lat="44.46374" lon="3.13369">
        <ele>818.7</ele>
        <time>2012-06-02T09:43:52Z</time>
      </trkpt>
      <trkpt lat="44.46385" lon="3.13367">
        <ele>820.14</ele>
        <time>2012-06-02T09:44:02Z</time>
      </trkpt>
      <trkpt lat="44.46396" lon="3.13364">
        <ele>822.06</ele>
        <time>2012-06-02T09:44:13Z</time>
      </trkpt>
      <trkpt lat="44.46406" lon="3.13358">
        <ele>823.51</ele>
        <time>2012-06-02T09:44:22Z</time>
      </trkpt>
      <trkpt lat="44.46414" lon="3.13351">
        <ele>824.47</ele>
        <time>2012-06-02T09:44:30Z</time>
      </trkpt>
      <trkpt lat="44.46422" lon="3.13344">
        <ele>824.95</ele>
        <time>2012-06-02T09:44:38Z</time>
      </trkpt>
      <trkpt lat="44.46432" lon="3.13334">
        <ele>825.91</ele>
        <time>2012-06-02T09:44:47Z</time>
      </trkpt>
      <trkpt lat="44.46442" lon="3.13328">
        <ele>826.39</ele>
        <time>2012-06-02T09:44:55Z</time>
      </trkpt>
      <trkpt lat="44.46451" lon="3.13322">
        <ele>826.39</ele>
        <time>2012-06-02T09:45:05Z</time>
      </trkpt>
      <trkpt lat="44.4646" lon="3.13314">
        <ele>827.35</ele>
        <time>2012-06-02T09:45:16Z</time>
      </trkpt>
      <trkpt lat="44.46469" lon="3.13307">
        <ele>827.35</ele>
        <time>2012-06-02T09:45:25Z</time>
      </trkpt>
      <trkpt lat="44.46478" lon="3.13299">
        <ele>828.31</ele>
        <time>2012-06-02T09:45:33Z</time>
      </trkpt>
      <trkpt lat="44.46486" lon="3.13288">
        <ele>828.31</ele>
        <time>2012-06-02T09:45:42Z</time>
      </trkpt>
      <trkpt lat="44.46489" lon="3.13274">
        <ele>828.79</ele>
        <time>2012-06-02T09:45:53Z</time>
      </trkpt>
      <trkpt lat="44.46489" lon="3.13258">
        <ele>829.76</ele>
        <time>2012-06-02T09:46:01Z</time>
      </trkpt>
      <trkpt lat="44.46486" lon="3.13244">
        <ele>830.72</ele>
        <time>2012-06-02T09:46:13Z</time>
      </trkpt>
      <trkpt lat="44.46483" lon="3.1323">
        <ele>831.68</ele>
        <time>2012-06-02T09:46:22Z</time>
      </trkpt>
      <trkpt lat="44.4648" lon="3.13215">
        <ele>832.16</ele>
        <time>2012-06-02T09:46:30Z</time>
      </trkpt>
      <trkpt lat="44.46479" lon="3.13199">
        <ele>832.64</ele>
        <time>2012-06-02T09:46:39Z</time>
      </trkpt>
      <trkpt lat="44.4648" lon="3.13184">
        <ele>833.6</ele>
        <time>2012-06-02T09:46:48Z</time>
      </trkpt>
      <trkpt lat="44.46482" lon="3.1317">
        <ele>836</ele>
        <time>2012-06-02T09:46:58Z</time>
      </trkpt>
      <trkpt lat="44.46483" lon="3.13153">
        <ele>838.41</ele>
        <time>2012-06-02T09:47:09Z</time>
      </trkpt>
      <trkpt lat="44.46486" lon="3.13138">
        <ele>838.89</ele>
        <time>2012-06-02T09:47:18Z</time>
      </trkpt>
      <trkpt lat="44.46491" lon="3.13126">
        <ele>839.85</ele>
        <time>2012-06-02T09:47:27Z</time>
      </trkpt>
      <trkpt lat="44.46497" lon="3.13116">
        <ele>842.25</ele>
        <time>2012-06-02T09:47:37Z</time>
      </trkpt>
      <trkpt lat="44.46505" lon="3.1311">
        <ele>843.69</ele>
        <time>2012-06-02T09:47:46Z</time>
      </trkpt>
      <trkpt lat="44.46516" lon="3.1311">
        <ele>845.14</ele>
        <time>2012-06-02T09:47:56Z</time>
      </trkpt>
      <trkpt lat="44.46526" lon="3.13115">
        <ele>846.58</ele>
        <time>2012-06-02T09:48:06Z</time>
      </trkpt>
      <trkpt lat="44.46534" lon="3.13124">
        <ele>847.06</ele>
        <time>2012-06-02T09:48:15Z</time>
      </trkpt>
      <trkpt lat="44.46541" lon="3.13133">
        <ele>848.5</ele>
        <time>2012-06-02T09:48:24Z</time>
      </trkpt>
      <trkpt lat="44.46549" lon="3.13143">
        <ele>850.42</ele>
        <time>2012-06-02T09:48:40Z</time>
      </trkpt>
      <trkpt lat="44.46557" lon="3.13152">
        <ele>851.87</ele>
        <time>2012-06-02T09:48:49Z</time>
      </trkpt>
      <trkpt lat="44.46565" lon="3.13161">
        <ele>853.31</ele>
        <time>2012-06-02T09:48:58Z</time>
      </trkpt>
      <trkpt lat="44.46572" lon="3.13171">
        <ele>855.23</ele>
        <time>2012-06-02T09:49:07Z</time>
      </trkpt>
      <trkpt lat="44.46581" lon="3.13179">
        <ele>856.67</ele>
        <time>2012-06-02T09:49:16Z</time>
      </trkpt>
      <trkpt lat="44.4659" lon="3.13189">
        <ele>858.11</ele>
        <time>2012-06-02T09:49:25Z</time>
      </trkpt>
      <trkpt lat="44.46598" lon="3.13197">
        <ele>859.08</ele>
        <time>2012-06-02T09:49:33Z</time>
      </trkpt>
      <trkpt lat="44.46607" lon="3.13205">
        <ele>861</ele>
        <time>2012-06-02T09:49:41Z</time>
      </trkpt>
      <trkpt lat="44.46614" lon="3.13213">
        <ele>861.96</ele>
        <time>2012-06-02T09:49:49Z</time>
      </trkpt>
      <trkpt lat="44.46622" lon="3.13222">
        <ele>863.4</ele>
        <time>2012-06-02T09:49:57Z</time>
      </trkpt>
      <trkpt lat="44.46629" lon="3.13231">
        <ele>864.84</ele>
        <time>2012-06-02T09:50:05Z</time>
      </trkpt>
      <trkpt lat="44.46635" lon="3.13242">
        <ele>866.29</ele>
        <time>2012-06-02T09:50:15Z</time>
      </trkpt>
      <trkpt lat="44.4664" lon="3.13245">
        <ele>869.65</ele>
        <time>2012-06-02T09:56:07Z</time>
      </trkpt>
      <trkpt lat="44.46648" lon="3.13255">
        <ele>870.13</ele>
        <time>2012-06-02T09:56:18Z</time>
      </trkpt>
      <trkpt lat="44.46656" lon="3.13263">
        <ele>871.09</ele>
        <time>2012-06-02T09:56:28Z</time>
      </trkpt>
      <trkpt lat="44.46665" lon="3.13271">
        <ele>872.05</ele>
        <time>2012-06-02T09:56:38Z</time>
      </trkpt>
      <trkpt lat="44.46674" lon="3.13277">
        <ele>873.5</ele>
        <time>2012-06-02T09:56:47Z</time>
      </trkpt>
      <trkpt lat="44.46683" lon="3.13281">
        <ele>873.5</ele>
        <time>2012-06-02T09:56:57Z</time>
      </trkpt>
      <trkpt lat="44.46693" lon="3.13285">
        <ele>874.94</ele>
        <time>2012-06-02T09:57:06Z</time>
      </trkpt>
      <trkpt lat="44.46703" lon="3.1329">
        <ele>874.94</ele>
        <time>2012-06-02T09:57:14Z</time>
      </trkpt>
      <trkpt lat="44.46713" lon="3.13296">
        <ele>875.9</ele>
        <time>2012-06-02T09:57:24Z</time>
      </trkpt>
      <trkpt lat="44.46722" lon="3.13299">
        <ele>876.38</ele>
        <time>2012-06-02T09:57:36Z</time>
      </trkpt>
      <trkpt lat="44.46732" lon="3.13304">
        <ele>877.34</ele>
        <time>2012-06-02T09:57:47Z</time>
      </trkpt>
      <trkpt lat="44.46742" lon="3.1331">
        <ele>878.3</ele>
        <time>2012-06-02T09:57:56Z</time>
      </trkpt>
      <trkpt lat="44.46751" lon="3.13314">
        <ele>879.26</ele>
        <time>2012-06-02T09:58:04Z</time>
      </trkpt>
      <trkpt lat="44.4676" lon="3.13318">
        <ele>879.74</ele>
        <time>2012-06-02T09:58:12Z</time>
      </trkpt>
      <trkpt lat="44.46769" lon="3.13322">
        <ele>880.71</ele>
        <time>2012-06-02T09:58:21Z</time>
      </trkpt>
      <trkpt lat="44.46779" lon="3.13325">
        <ele>881.19</ele>
        <time>2012-06-02T09:58:30Z</time>
      </trkpt>
      <trkpt lat="44.46788" lon="3.13326">
        <ele>881.19</ele>
        <time>2012-06-02T09:58:38Z</time>
      </trkpt>
      <trkpt lat="44.46798" lon="3.13328">
        <ele>881.67</ele>
        <time>2012-06-02T09:58:46Z</time>
      </trkpt>
      <trkpt lat="44.46807" lon="3.13327">
        <ele>882.15</ele>
        <time>2012-06-02T09:58:54Z</time>
      </trkpt>
      <trkpt lat="44.46818" lon="3.13328">
        <ele>882.15</ele>
        <time>2012-06-02T09:59:02Z</time>
      </trkpt>
      <trkpt lat="44.46827" lon="3.13328">
        <ele>882.15</ele>
        <time>2012-06-02T09:59:10Z</time>
      </trkpt>
      <trkpt lat="44.46837" lon="3.13326">
        <ele>882.63</ele>
        <time>2012-06-02T09:59:18Z</time>
      </trkpt>
      <trkpt lat="44.46846" lon="3.13324">
        <ele>883.11</ele>
        <time>2012-06-02T09:59:26Z</time>
      </trkpt>
      <trkpt lat="44.46857" lon="3.13322">
        <ele>883.59</ele>
        <time>2012-06-02T09:59:34Z</time>
      </trkpt>
      <trkpt lat="44.46866" lon="3.13319">
        <ele>884.55</ele>
        <time>2012-06-02T09:59:42Z</time>
      </trkpt>
      <trkpt lat="44.46876" lon="3.13318">
        <ele>885.03</ele>
        <time>2012-06-02T09:59:50Z</time>
      </trkpt>
      <trkpt lat="44.46885" lon="3.13316">
        <ele>884.55</ele>
        <time>2012-06-02T09:59:58Z</time>
      </trkpt>
      <trkpt lat="44.46894" lon="3.13312">
        <ele>885.51</ele>
        <time>2012-06-02T10:00:06Z</time>
      </trkpt>
      <trkpt lat="44.46904" lon="3.13308">
        <ele>885.51</ele>
        <time>2012-06-02T10:00:15Z</time>
      </trkpt>
      <trkpt lat="44.46914" lon="3.13304">
        <ele>886.47</ele>
        <time>2012-06-02T10:00:24Z</time>
      </trkpt>
      <trkpt lat="44.46921" lon="3.13298">
        <ele>887.43</ele>
        <time>2012-06-02T10:01:13Z</time>
      </trkpt>
      <trkpt lat="44.46929" lon="3.13296">
        <ele>888.88</ele>
        <time>2012-06-02T10:01:36Z</time>
      </trkpt>
      <trkpt lat="44.46939" lon="3.13295">
        <ele>889.84</ele>
        <time>2012-06-02T10:01:45Z</time>
      </trkpt>
      <trkpt lat="44.46949" lon="3.13293">
        <ele>890.32</ele>
        <time>2012-06-02T10:01:53Z</time>
      </trkpt>
      <trkpt lat="44.46958" lon="3.13294">
        <ele>890.8</ele>
        <time>2012-06-02T10:02:01Z</time>
      </trkpt>
      <trkpt lat="44.46967" lon="3.13293">
        <ele>891.28</ele>
        <time>2012-06-02T10:02:09Z</time>
      </trkpt>
      <trkpt lat="44.46976" lon="3.13289">
        <ele>891.28</ele>
        <time>2012-06-02T10:02:17Z</time>
      </trkpt>
      <trkpt lat="44.46985" lon="3.13283">
        <ele>892.24</ele>
        <time>2012-06-02T10:02:25Z</time>
      </trkpt>
      <trkpt lat="44.46994" lon="3.13277">
        <ele>892.24</ele>
        <time>2012-06-02T10:02:34Z</time>
      </trkpt>
      <trkpt lat="44.47001" lon="3.1327">
        <ele>893.2</ele>
        <time>2012-06-02T10:02:43Z</time>
      </trkpt>
      <trkpt lat="44.47011" lon="3.13262">
        <ele>893.68</ele>
        <time>2012-06-02T10:02:52Z</time>
      </trkpt>
      <trkpt lat="44.47018" lon="3.13253">
        <ele>894.64</ele>
        <time>2012-06-02T10:03:00Z</time>
      </trkpt>
      <trkpt lat="44.47025" lon="3.13244">
        <ele>895.12</ele>
        <time>2012-06-02T10:03:09Z</time>
      </trkpt>
      <trkpt lat="44.47032" lon="3.13234">
        <ele>895.61</ele>
        <time>2012-06-02T10:03:19Z</time>
      </trkpt>
      <trkpt lat="44.4704" lon="3.13224">
        <ele>897.05</ele>
        <time>2012-06-02T10:03:29Z</time>
      </trkpt>
      <trkpt lat="44.47047" lon="3.13214">
        <ele>898.01</ele>
        <time>2012-06-02T10:03:39Z</time>
      </trkpt>
      <trkpt lat="44.47054" lon="3.13203">
        <ele>899.45</ele>
        <time>2012-06-02T10:03:49Z</time>
      </trkpt>
      <trkpt lat="44.4706" lon="3.13192">
        <ele>899.93</ele>
        <time>2012-06-02T10:03:57Z</time>
      </trkpt>
      <trkpt lat="44.47066" lon="3.1318">
        <ele>900.89</ele>
        <time>2012-06-02T10:04:06Z</time>
      </trkpt>
      <trkpt lat="44.47072" lon="3.13169">
        <ele>901.85</ele>
        <time>2012-06-02T10:04:15Z</time>
      </trkpt>
      <trkpt lat="44.47078" lon="3.13157">
        <ele>902.33</ele>
        <time>2012-06-02T10:04:24Z</time>
      </trkpt>
      <trkpt lat="44.47083" lon="3.13146">
        <ele>903.78</ele>
        <time>2012-06-02T10:04:33Z</time>
      </trkpt>
      <trkpt lat="44.47088" lon="3.13134">
        <ele>903.78</ele>
        <time>2012-06-02T10:04:42Z</time>
      </trkpt>
      <trkpt lat="44.47092" lon="3.13121">
        <ele>904.74</ele>
        <time>2012-06-02T10:04:50Z</time>
      </trkpt>
      <trkpt lat="44.47097" lon="3.13109">
        <ele>905.22</ele>
        <time>2012-06-02T10:05:00Z</time>
      </trkpt>
      <trkpt lat="44.47102" lon="3.13097">
        <ele>906.66</ele>
        <time>2012-06-02T10:05:09Z</time>
      </trkpt>
      <trkpt lat="44.47108" lon="3.13085">
        <ele>907.62</ele>
        <time>2012-06-02T10:05:18Z</time>
      </trkpt>
      <trkpt lat="44.47114" lon="3.13072">
        <ele>908.1</ele>
        <time>2012-06-02T10:05:28Z</time>
      </trkpt>
      <trkpt lat="44.4712" lon="3.1306">
        <ele>909.54</ele>
        <time>2012-06-02T10:05:39Z</time>
      </trkpt>
      <trkpt lat="44.47126" lon="3.13048">
        <ele>910.51</ele>
        <time>2012-06-02T10:05:48Z</time>
      </trkpt>
      <trkpt lat="44.47133" lon="3.13036">
        <ele>910.99</ele>
        <time>2012-06-02T10:05:57Z</time>
      </trkpt>
      <trkpt lat="44.4714" lon="3.13025">
        <ele>911.47</ele>
        <time>2012-06-02T10:06:06Z</time>
      </trkpt>
      <trkpt lat="44.47146" lon="3.13014">
        <ele>912.91</ele>
        <time>2012-06-02T10:06:15Z</time>
      </trkpt>
      <trkpt lat="44.47154" lon="3.13005">
        <ele>913.87</ele>
        <time>2012-06-02T10:06:25Z</time>
      </trkpt>
      <trkpt lat="44.47162" lon="3.12999">
        <ele>915.31</ele>
        <time>2012-06-02T10:06:35Z</time>
      </trkpt>
      <trkpt lat="44.4717" lon="3.12995">
        <ele>916.27</ele>
        <time>2012-06-02T10:09:25Z</time>
      </trkpt>
      <trkpt lat="44.47179" lon="3.12991">
        <ele>917.24</ele>
        <time>2012-06-02T10:09:35Z</time>
      </trkpt>
      <trkpt lat="44.47188" lon="3.12984">
        <ele>918.2</ele>
        <time>2012-06-02T10:09:45Z</time>
      </trkpt>
      <trkpt lat="44.47195" lon="3.12976">
        <ele>919.16</ele>
        <time>2012-06-02T10:10:23Z</time>
      </trkpt>
      <trkpt lat="44.47199" lon="3.12965">
        <ele>919.16</ele>
        <time>2012-06-02T10:10:33Z</time>
      </trkpt>
      <trkpt lat="44.47203" lon="3.12951">
        <ele>919.16</ele>
        <time>2012-06-02T10:10:43Z</time>
      </trkpt>
      <trkpt lat="44.47206" lon="3.12936">
        <ele>919.16</ele>
        <time>2012-06-02T10:11:04Z</time>
      </trkpt>
      <trkpt lat="44.47209" lon="3.12922">
        <ele>920.12</ele>
        <time>2012-06-02T10:11:12Z</time>
      </trkpt>
      <trkpt lat="44.47211" lon="3.12909">
        <ele>919.16</ele>
        <time>2012-06-02T10:11:20Z</time>
      </trkpt>
      <trkpt lat="44.47214" lon="3.12896">
        <ele>920.6</ele>
        <time>2012-06-02T10:11:29Z</time>
      </trkpt>
      <trkpt lat="44.47216" lon="3.12885">
        <ele>921.56</ele>
        <time>2012-06-02T10:12:08Z</time>
      </trkpt>
      <trkpt lat="44.4722" lon="3.12871">
        <ele>921.08</ele>
        <time>2012-06-02T10:12:18Z</time>
      </trkpt>
      <trkpt lat="44.47223" lon="3.12858">
        <ele>923</ele>
        <time>2012-06-02T10:12:27Z</time>
      </trkpt>
      <trkpt lat="44.47226" lon="3.12845">
        <ele>923</ele>
        <time>2012-06-02T10:12:47Z</time>
      </trkpt>
      <trkpt lat="44.47228" lon="3.1283">
        <ele>924.45</ele>
        <time>2012-06-02T10:13:33Z</time>
      </trkpt>
      <trkpt lat="44.47232" lon="3.12818">
        <ele>926.37</ele>
        <time>2012-06-02T10:13:43Z</time>
      </trkpt>
      <trkpt lat="44.47237" lon="3.12803">
        <ele>928.29</ele>
        <time>2012-06-02T10:13:55Z</time>
      </trkpt>
      <trkpt lat="44.47241" lon="3.12786">
        <ele>928.29</ele>
        <time>2012-06-02T10:14:07Z</time>
      </trkpt>
      <trkpt lat="44.47246" lon="3.12771">
        <ele>930.69</ele>
        <time>2012-06-02T10:14:18Z</time>
      </trkpt>
      <trkpt lat="44.4725" lon="3.12756">
        <ele>932.14</ele>
        <time>2012-06-02T10:14:28Z</time>
      </trkpt>
      <trkpt lat="44.47254" lon="3.12743">
        <ele>933.58</ele>
        <time>2012-06-02T10:14:38Z</time>
      </trkpt>
      <trkpt lat="44.47258" lon="3.12728">
        <ele>935.5</ele>
        <time>2012-06-02T10:14:49Z</time>
      </trkpt>
      <trkpt lat="44.47264" lon="3.12713">
        <ele>936.94</ele>
        <time>2012-06-02T10:15:02Z</time>
      </trkpt>
      <trkpt lat="44.47269" lon="3.12699">
        <ele>937.9</ele>
        <time>2012-06-02T10:15:14Z</time>
      </trkpt>
      <trkpt lat="44.47269" lon="3.12684">
        <ele>938.86</ele>
        <time>2012-06-02T10:15:25Z</time>
      </trkpt>
      <trkpt lat="44.47266" lon="3.12669">
        <ele>940.31</ele>
        <time>2012-06-02T10:15:35Z</time>
      </trkpt>
      <trkpt lat="44.47262" lon="3.12652">
        <ele>940.31</ele>
        <time>2012-06-02T10:15:45Z</time>
      </trkpt>
      <trkpt lat="44.47256" lon="3.1264">
        <ele>939.83</ele>
        <time>2012-06-02T10:15:53Z</time>
      </trkpt>
      <trkpt lat="44.4725" lon="3.12628">
        <ele>939.83</ele>
        <time>2012-06-02T10:16:01Z</time>
      </trkpt>
      <trkpt lat="44.47244" lon="3.12615">
        <ele>940.79</ele>
        <time>2012-06-02T10:16:10Z</time>
      </trkpt>
      <trkpt lat="44.47238" lon="3.12603">
        <ele>941.27</ele>
        <time>2012-06-02T10:16:19Z</time>
      </trkpt>
      <trkpt lat="44.4723" lon="3.12592">
        <ele>942.23</ele>
        <time>2012-06-02T10:16:28Z</time>
      </trkpt>
      <trkpt lat="44.47223" lon="3.12582">
        <ele>942.71</ele>
        <time>2012-06-02T10:16:36Z</time>
      </trkpt>
      <trkpt lat="44.47214" lon="3.12571">
        <ele>943.19</ele>
        <time>2012-06-02T10:16:46Z</time>
      </trkpt>
      <trkpt lat="44.47206" lon="3.12562">
        <ele>945.11</ele>
        <time>2012-06-02T10:16:56Z</time>
      </trkpt>
      <trkpt lat="44.472" lon="3.12551">
        <ele>946.07</ele>
        <time>2012-06-02T10:17:07Z</time>
      </trkpt>
      <trkpt lat="44.47195" lon="3.12538">
        <ele>948</ele>
        <time>2012-06-02T10:17:17Z</time>
      </trkpt>
      <trkpt lat="44.47192" lon="3.12524">
        <ele>948.48</ele>
        <time>2012-06-02T10:17:33Z</time>
      </trkpt>
      <trkpt lat="44.47188" lon="3.12514">
        <ele>950.4</ele>
        <time>2012-06-02T10:18:02Z</time>
      </trkpt>
      <trkpt lat="44.47187" lon="3.12503">
        <ele>951.84</ele>
        <time>2012-06-02T10:18:14Z</time>
      </trkpt>
      <trkpt lat="44.47187" lon="3.12488">
        <ele>952.8</ele>
        <time>2012-06-02T10:18:25Z</time>
      </trkpt>
      <trkpt lat="44.47186" lon="3.12471">
        <ele>953.28</ele>
        <time>2012-06-02T10:18:37Z</time>
      </trkpt>
      <trkpt lat="44.47183" lon="3.12464">
        <ele>956.17</ele>
        <time>2012-06-02T11:04:46Z</time>
      </trkpt>
      <trkpt lat="44.47183" lon="3.12464">
        <ele>956.17</ele>
        <time>2012-06-02T11:06:38Z</time>
      </trkpt>
      <trkpt lat="44.47189" lon="3.1246">
        <ele>956.65</ele>
        <time>2012-06-02T11:06:51Z</time>
      </trkpt>
      <trkpt lat="44.47191" lon="3.12447">
        <ele>957.61</ele>
        <time>2012-06-02T11:07:01Z</time>
      </trkpt>
      <trkpt lat="44.47192" lon="3.12435">
        <ele>958.09</ele>
        <time>2012-06-02T11:07:11Z</time>
      </trkpt>
      <trkpt lat="44.47195" lon="3.12422">
        <ele>959.05</ele>
        <time>2012-06-02T11:07:21Z</time>
      </trkpt>
      <trkpt lat="44.47198" lon="3.12409">
        <ele>959.05</ele>
        <time>2012-06-02T11:07:30Z</time>
      </trkpt>
      <trkpt lat="44.47204" lon="3.12398">
        <ele>960.49</ele>
        <time>2012-06-02T11:07:39Z</time>
      </trkpt>
      <trkpt lat="44.47211" lon="3.12387">
        <ele>960.49</ele>
        <time>2012-06-02T11:07:49Z</time>
      </trkpt>
      <trkpt lat="44.47219" lon="3.12377">
        <ele>960.98</ele>
        <time>2012-06-02T11:07:59Z</time>
      </trkpt>
      <trkpt lat="44.47225" lon="3.12366">
        <ele>961.46</ele>
        <time>2012-06-02T11:08:08Z</time>
      </trkpt>
      <trkpt lat="44.47231" lon="3.12353">
        <ele>961.94</ele>
        <time>2012-06-02T11:08:18Z</time>
      </trkpt>
      <trkpt lat="44.47236" lon="3.12341">
        <ele>962.42</ele>
        <time>2012-06-02T11:08:28Z</time>
      </trkpt>
      <trkpt lat="44.4724" lon="3.12328">
        <ele>962.9</ele>
        <time>2012-06-02T11:08:38Z</time>
      </trkpt>
      <trkpt lat="44.47244" lon="3.12316">
        <ele>963.86</ele>
        <time>2012-06-02T11:08:47Z</time>
      </trkpt>
      <trkpt lat="44.47247" lon="3.12302">
        <ele>963.86</ele>
        <time>2012-06-02T11:08:56Z</time>
      </trkpt>
      <trkpt lat="44.47251" lon="3.1229">
        <ele>964.34</ele>
        <time>2012-06-02T11:09:05Z</time>
      </trkpt>
      <trkpt lat="44.47254" lon="3.12277">
        <ele>964.82</ele>
        <time>2012-06-02T11:09:14Z</time>
      </trkpt>
      <trkpt lat="44.47259" lon="3.12266">
        <ele>965.78</ele>
        <time>2012-06-02T11:09:23Z</time>
      </trkpt>
      <trkpt lat="44.47262" lon="3.12251">
        <ele>967.22</ele>
        <time>2012-06-02T11:09:33Z</time>
      </trkpt>
      <trkpt lat="44.47266" lon="3.12237">
        <ele>967.7</ele>
        <time>2012-06-02T11:09:43Z</time>
      </trkpt>
      <trkpt lat="44.47268" lon="3.12224">
        <ele>968.67</ele>
        <time>2012-06-02T11:09:52Z</time>
      </trkpt>
      <trkpt lat="44.47272" lon="3.12209">
        <ele>970.11</ele>
        <time>2012-06-02T11:10:03Z</time>
      </trkpt>
      <trkpt lat="44.47276" lon="3.12195">
        <ele>971.07</ele>
        <time>2012-06-02T11:10:13Z</time>
      </trkpt>
      <trkpt lat="44.47279" lon="3.12182">
        <ele>972.03</ele>
        <time>2012-06-02T11:10:22Z</time>
      </trkpt>
      <trkpt lat="44.47284" lon="3.12169">
        <ele>972.03</ele>
        <time>2012-06-02T11:10:32Z</time>
      </trkpt>
      <trkpt lat="44.47286" lon="3.12156">
        <ele>972.99</ele>
        <time>2012-06-02T11:10:41Z</time>
      </trkpt>
      <trkpt lat="44.47291" lon="3.12144">
        <ele>974.43</ele>
        <time>2012-06-02T11:10:51Z</time>
      </trkpt>
      <trkpt lat="44.47295" lon="3.12129">
        <ele>975.39</ele>
        <time>2012-06-02T11:11:01Z</time>
      </trkpt>
      <trkpt lat="44.47298" lon="3.12116">
        <ele>976.36</ele>
        <time>2012-06-02T11:11:11Z</time>
      </trkpt>
      <trkpt lat="44.47301" lon="3.12102">
        <ele>977.8</ele>
        <time>2012-06-02T11:11:21Z</time>
      </trkpt>
      <trkpt lat="44.47303" lon="3.12087">
        <ele>978.28</ele>
        <time>2012-06-02T11:11:29Z</time>
      </trkpt>
      <trkpt lat="44.47306" lon="3.12073">
        <ele>978.76</ele>
        <time>2012-06-02T11:11:38Z</time>
      </trkpt>
      <trkpt lat="44.47312" lon="3.12061">
        <ele>980.2</ele>
        <time>2012-06-02T11:11:48Z</time>
      </trkpt>
      <trkpt lat="44.47316" lon="3.12046">
        <ele>981.64</ele>
        <time>2012-06-02T11:12:00Z</time>
      </trkpt>
      <trkpt lat="44.4732" lon="3.12029">
        <ele>983.09</ele>
        <time>2012-06-02T11:12:13Z</time>
      </trkpt>
      <trkpt lat="44.47321" lon="3.1201">
        <ele>985.49</ele>
        <time>2012-06-02T11:12:26Z</time>
      </trkpt>
      <trkpt lat="44.47319" lon="3.11995">
        <ele>986.45</ele>
        <time>2012-06-02T11:12:36Z</time>
      </trkpt>
      <trkpt lat="44.47316" lon="3.11979">
        <ele>987.89</ele>
        <time>2012-06-02T11:12:48Z</time>
      </trkpt>
      <trkpt lat="44.47313" lon="3.11965">
        <ele>989.81</ele>
        <time>2012-06-02T11:12:58Z</time>
      </trkpt>
      <trkpt lat="44.47312" lon="3.1195">
        <ele>991.26</ele>
        <time>2012-06-02T11:13:08Z</time>
      </trkpt>
      <trkpt lat="44.47312" lon="3.11937">
        <ele>991.26</ele>
        <time>2012-06-02T11:13:16Z</time>
      </trkpt>
      <trkpt lat="44.47313" lon="3.11922">
        <ele>992.22</ele>
        <time>2012-06-02T11:13:25Z</time>
      </trkpt>
      <trkpt lat="44.47313" lon="3.11908">
        <ele>992.7</ele>
        <time>2012-06-02T11:13:34Z</time>
      </trkpt>
      <trkpt lat="44.47314" lon="3.11894">
        <ele>993.18</ele>
        <time>2012-06-02T11:13:43Z</time>
      </trkpt>
      <trkpt lat="44.47313" lon="3.11879">
        <ele>993.66</ele>
        <time>2012-06-02T11:13:51Z</time>
      </trkpt>
      <trkpt lat="44.47314" lon="3.11866">
        <ele>993.66</ele>
        <time>2012-06-02T11:13:59Z</time>
      </trkpt>
      <trkpt lat="44.47315" lon="3.11852">
        <ele>993.66</ele>
        <time>2012-06-02T11:14:07Z</time>
      </trkpt>
      <trkpt lat="44.47315" lon="3.11839">
        <ele>993.66</ele>
        <time>2012-06-02T11:14:15Z</time>
      </trkpt>
      <trkpt lat="44.47316" lon="3.11826">
        <ele>994.62</ele>
        <time>2012-06-02T11:14:23Z</time>
      </trkpt>
      <trkpt lat="44.47317" lon="3.11812">
        <ele>995.58</ele>
        <time>2012-06-02T11:14:32Z</time>
      </trkpt>
      <trkpt lat="44.47317" lon="3.11798">
        <ele>996.54</ele>
        <time>2012-06-02T11:14:41Z</time>
      </trkpt>
      <trkpt lat="44.47318" lon="3.11783">
        <ele>997.51</ele>
        <time>2012-06-02T11:14:50Z</time>
      </trkpt>
      <trkpt lat="44.47319" lon="3.11769">
        <ele>998.47</ele>
        <time>2012-06-02T11:14:59Z</time>
      </trkpt>
      <trkpt lat="44.47319" lon="3.11754">
        <ele>998.47</ele>
        <time>2012-06-02T11:15:08Z</time>
      </trkpt>
      <trkpt lat="44.4732" lon="3.11739">
        <ele>999.43</ele>
        <time>2012-06-02T11:15:17Z</time>
      </trkpt>
      <trkpt lat="44.47325" lon="3.11726">
        <ele>999.43</ele>
        <time>2012-06-02T11:15:29Z</time>
      </trkpt>
      <trkpt lat="44.47332" lon="3.11714">
        <ele>1000.39</ele>
        <time>2012-06-02T11:17:19Z</time>
      </trkpt>
      <trkpt lat="44.4734" lon="3.11701">
        <ele>999.91</ele>
        <time>2012-06-02T11:17:30Z</time>
      </trkpt>
      <trkpt lat="44.47348" lon="3.1169">
        <ele>998.47</ele>
        <time>2012-06-02T11:17:41Z</time>
      </trkpt>
      <trkpt lat="44.47356" lon="3.11678">
        <ele>997.99</ele>
        <time>2012-06-02T11:17:51Z</time>
      </trkpt>
      <trkpt lat="44.47363" lon="3.11666">
        <ele>997.02</ele>
        <time>2012-06-02T11:18:01Z</time>
      </trkpt>
      <trkpt lat="44.4737" lon="3.11654">
        <ele>996.54</ele>
        <time>2012-06-02T11:18:11Z</time>
      </trkpt>
      <trkpt lat="44.47378" lon="3.11644">
        <ele>997.02</ele>
        <time>2012-06-02T11:18:20Z</time>
      </trkpt>
      <trkpt lat="44.47385" lon="3.11633">
        <ele>997.02</ele>
        <time>2012-06-02T11:18:30Z</time>
      </trkpt>
      <trkpt lat="44.47393" lon="3.1162">
        <ele>997.51</ele>
        <time>2012-06-02T11:18:41Z</time>
      </trkpt>
      <trkpt lat="44.474" lon="3.11608">
        <ele>997.99</ele>
        <time>2012-06-02T11:18:51Z</time>
      </trkpt>
      <trkpt lat="44.47408" lon="3.11597">
        <ele>998.47</ele>
        <time>2012-06-02T11:19:00Z</time>
      </trkpt>
      <trkpt lat="44.47415" lon="3.11586">
        <ele>999.91</ele>
        <time>2012-06-02T11:19:10Z</time>
      </trkpt>
      <trkpt lat="44.47421" lon="3.11576">
        <ele>1000.87</ele>
        <time>2012-06-02T11:19:22Z</time>
      </trkpt>
      <trkpt lat="44.47428" lon="3.11564">
        <ele>1000.87</ele>
        <time>2012-06-02T11:19:31Z</time>
      </trkpt>
      <trkpt lat="44.47436" lon="3.11552">
        <ele>1001.35</ele>
        <time>2012-06-02T11:19:41Z</time>
      </trkpt>
      <trkpt lat="44.47443" lon="3.11542">
        <ele>1001.83</ele>
        <time>2012-06-02T11:19:53Z</time>
      </trkpt>
      <trkpt lat="44.47454" lon="3.11535">
        <ele>1000.39</ele>
        <time>2012-06-02T11:20:03Z</time>
      </trkpt>
      <trkpt lat="44.47464" lon="3.11532">
        <ele>999.91</ele>
        <time>2012-06-02T11:20:12Z</time>
      </trkpt>
      <trkpt lat="44.47475" lon="3.11527">
        <ele>999.91</ele>
        <time>2012-06-02T11:20:21Z</time>
      </trkpt>
      <trkpt lat="44.47484" lon="3.11524">
        <ele>1000.87</ele>
        <time>2012-06-02T11:20:30Z</time>
      </trkpt>
      <trkpt lat="44.47493" lon="3.11521">
        <ele>1000.87</ele>
        <time>2012-06-02T11:20:39Z</time>
      </trkpt>
      <trkpt lat="44.47503" lon="3.11517">
        <ele>1000.39</ele>
        <time>2012-06-02T11:20:48Z</time>
      </trkpt>
      <trkpt lat="44.47511" lon="3.11514">
        <ele>1000.39</ele>
        <time>2012-06-02T11:20:57Z</time>
      </trkpt>
      <trkpt lat="44.47521" lon="3.11511">
        <ele>998.95</ele>
        <time>2012-06-02T11:21:06Z</time>
      </trkpt>
      <trkpt lat="44.4753" lon="3.11507">
        <ele>998.47</ele>
        <time>2012-06-02T11:21:16Z</time>
      </trkpt>
      <trkpt lat="44.47538" lon="3.11502">
        <ele>997.02</ele>
        <time>2012-06-02T11:21:25Z</time>
      </trkpt>
      <trkpt lat="44.47548" lon="3.11497">
        <ele>997.02</ele>
        <time>2012-06-02T11:21:34Z</time>
      </trkpt>
      <trkpt lat="44.47558" lon="3.11494">
        <ele>996.06</ele>
        <time>2012-06-02T11:21:45Z</time>
      </trkpt>
      <trkpt lat="44.47566" lon="3.1149">
        <ele>996.06</ele>
        <time>2012-06-02T11:21:54Z</time>
      </trkpt>
      <trkpt lat="44.47575" lon="3.11485">
        <ele>995.58</ele>
        <time>2012-06-02T11:22:03Z</time>
      </trkpt>
      <trkpt lat="44.47585" lon="3.1148">
        <ele>994.14</ele>
        <time>2012-06-02T11:22:13Z</time>
      </trkpt>
      <trkpt lat="44.47593" lon="3.11475">
        <ele>993.66</ele>
        <time>2012-06-02T11:22:22Z</time>
      </trkpt>
      <trkpt lat="44.47604" lon="3.1147">
        <ele>991.74</ele>
        <time>2012-06-02T11:22:31Z</time>
      </trkpt>
      <trkpt lat="44.47612" lon="3.11466">
        <ele>990.78</ele>
        <time>2012-06-02T11:22:39Z</time>
      </trkpt>
      <trkpt lat="44.4762" lon="3.11462">
        <ele>989.81</ele>
        <time>2012-06-02T11:22:49Z</time>
      </trkpt>
      <trkpt lat="44.4763" lon="3.11458">
        <ele>988.85</ele>
        <time>2012-06-02T11:22:58Z</time>
      </trkpt>
      <trkpt lat="44.4764" lon="3.11453">
        <ele>987.89</ele>
        <time>2012-06-02T11:23:08Z</time>
      </trkpt>
      <trkpt lat="44.4765" lon="3.11449">
        <ele>986.93</ele>
        <time>2012-06-02T11:23:18Z</time>
      </trkpt>
      <trkpt lat="44.47655" lon="3.1144">
        <ele>986.45</ele>
        <time>2012-06-02T11:23:26Z</time>
      </trkpt>
      <trkpt lat="44.47657" lon="3.11427">
        <ele>985.97</ele>
        <time>2012-06-02T11:23:34Z</time>
      </trkpt>
      <trkpt lat="44.4766" lon="3.11413">
        <ele>985.49</ele>
        <time>2012-06-02T11:23:42Z</time>
      </trkpt>
      <trkpt lat="44.47663" lon="3.11401">
        <ele>985.01</ele>
        <time>2012-06-02T11:23:50Z</time>
      </trkpt>
      <trkpt lat="44.47665" lon="3.11389">
        <ele>985.01</ele>
        <time>2012-06-02T11:23:57Z</time>
      </trkpt>
      <trkpt lat="44.47669" lon="3.11377">
        <ele>985.01</ele>
        <time>2012-06-02T11:24:05Z</time>
      </trkpt>
      <trkpt lat="44.47675" lon="3.11365">
        <ele>985.01</ele>
        <time>2012-06-02T11:24:15Z</time>
      </trkpt>
      <trkpt lat="44.47681" lon="3.11353">
        <ele>984.53</ele>
        <time>2012-06-02T11:24:24Z</time>
      </trkpt>
      <trkpt lat="44.47687" lon="3.11342">
        <ele>983.57</ele>
        <time>2012-06-02T11:24:33Z</time>
      </trkpt>
      <trkpt lat="44.47692" lon="3.1133">
        <ele>984.05</ele>
        <time>2012-06-02T11:24:41Z</time>
      </trkpt>
      <trkpt lat="44.47698" lon="3.11319">
        <ele>983.09</ele>
        <time>2012-06-02T11:24:49Z</time>
      </trkpt>
      <trkpt lat="44.47704" lon="3.11306">
        <ele>982.6</ele>
        <time>2012-06-02T11:24:58Z</time>
      </trkpt>
      <trkpt lat="44.47709" lon="3.11294">
        <ele>982.6</ele>
        <time>2012-06-02T11:25:07Z</time>
      </trkpt>
      <trkpt lat="44.47714" lon="3.11282">
        <ele>983.09</ele>
        <time>2012-06-02T11:25:17Z</time>
      </trkpt>
      <trkpt lat="44.4772" lon="3.1127">
        <ele>982.12</ele>
        <time>2012-06-02T11:25:27Z</time>
      </trkpt>
      <trkpt lat="44.47726" lon="3.11259">
        <ele>982.6</ele>
        <time>2012-06-02T11:25:35Z</time>
      </trkpt>
      <trkpt lat="44.4773" lon="3.11245">
        <ele>982.6</ele>
        <time>2012-06-02T11:25:44Z</time>
      </trkpt>
      <trkpt lat="44.47734" lon="3.11233">
        <ele>982.12</ele>
        <time>2012-06-02T11:25:53Z</time>
      </trkpt>
      <trkpt lat="44.47739" lon="3.11219">
        <ele>981.64</ele>
        <time>2012-06-02T11:26:02Z</time>
      </trkpt>
      <trkpt lat="44.47743" lon="3.11206">
        <ele>982.6</ele>
        <time>2012-06-02T11:26:10Z</time>
      </trkpt>
      <trkpt lat="44.47746" lon="3.11195">
        <ele>982.6</ele>
        <time>2012-06-02T11:26:26Z</time>
      </trkpt>
      <trkpt lat="44.47749" lon="3.11182">
        <ele>982.6</ele>
        <time>2012-06-02T11:27:40Z</time>
      </trkpt>
      <trkpt lat="44.47752" lon="3.11173">
        <ele>983.09</ele>
        <time>2012-06-02T11:28:26Z</time>
      </trkpt>
      <trkpt lat="44.47756" lon="3.11159">
        <ele>983.09</ele>
        <time>2012-06-02T11:28:35Z</time>
      </trkpt>
      <trkpt lat="44.47759" lon="3.11146">
        <ele>982.6</ele>
        <time>2012-06-02T11:28:44Z</time>
      </trkpt>
      <trkpt lat="44.47763" lon="3.11133">
        <ele>983.57</ele>
        <time>2012-06-02T11:28:53Z</time>
      </trkpt>
      <trkpt lat="44.47765" lon="3.11119">
        <ele>983.57</ele>
        <time>2012-06-02T11:29:00Z</time>
      </trkpt>
      <trkpt lat="44.47769" lon="3.11107">
        <ele>984.53</ele>
        <time>2012-06-02T11:29:08Z</time>
      </trkpt>
      <trkpt lat="44.47771" lon="3.11093">
        <ele>985.01</ele>
        <time>2012-06-02T11:29:18Z</time>
      </trkpt>
      <trkpt lat="44.47776" lon="3.11082">
        <ele>985.97</ele>
        <time>2012-06-02T11:29:27Z</time>
      </trkpt>
      <trkpt lat="44.47779" lon="3.11069">
        <ele>987.41</ele>
        <time>2012-06-02T11:29:36Z</time>
      </trkpt>
      <trkpt lat="44.47783" lon="3.11056">
        <ele>988.37</ele>
        <time>2012-06-02T11:29:45Z</time>
      </trkpt>
      <trkpt lat="44.47786" lon="3.11045">
        <ele>989.81</ele>
        <time>2012-06-02T11:29:53Z</time>
      </trkpt>
      <trkpt lat="44.4779" lon="3.11031">
        <ele>990.78</ele>
        <time>2012-06-02T11:30:03Z</time>
      </trkpt>
      <trkpt lat="44.47793" lon="3.11018">
        <ele>990.78</ele>
        <time>2012-06-02T11:30:12Z</time>
      </trkpt>
      <trkpt lat="44.47794" lon="3.11004">
        <ele>991.26</ele>
        <time>2012-06-02T11:30:21Z</time>
      </trkpt>
      <trkpt lat="44.47795" lon="3.10991">
        <ele>990.78</ele>
        <time>2012-06-02T11:30:28Z</time>
      </trkpt>
      <trkpt lat="44.47796" lon="3.10978">
        <ele>991.26</ele>
        <time>2012-06-02T11:30:37Z</time>
      </trkpt>
      <trkpt lat="44.47796" lon="3.10964">
        <ele>991.26</ele>
        <time>2012-06-02T11:30:45Z</time>
      </trkpt>
      <trkpt lat="44.47798" lon="3.10953">
        <ele>991.26</ele>
        <time>2012-06-02T11:31:00Z</time>
      </trkpt>
      <trkpt lat="44.47802" lon="3.1094">
        <ele>991.26</ele>
        <time>2012-06-02T11:31:24Z</time>
      </trkpt>
      <trkpt lat="44.47805" lon="3.10927">
        <ele>991.74</ele>
        <time>2012-06-02T11:31:34Z</time>
      </trkpt>
      <trkpt lat="44.4781" lon="3.10913">
        <ele>991.74</ele>
        <time>2012-06-02T11:32:39Z</time>
      </trkpt>
      <trkpt lat="44.47815" lon="3.10902">
        <ele>991.74</ele>
        <time>2012-06-02T11:32:49Z</time>
      </trkpt>
      <trkpt lat="44.4782" lon="3.1089">
        <ele>991.26</ele>
        <time>2012-06-02T11:32:59Z</time>
      </trkpt>
      <trkpt lat="44.47824" lon="3.10877">
        <ele>992.22</ele>
        <time>2012-06-02T11:33:08Z</time>
      </trkpt>
      <trkpt lat="44.47826" lon="3.10864">
        <ele>991.74</ele>
        <time>2012-06-02T11:33:16Z</time>
      </trkpt>
      <trkpt lat="44.47828" lon="3.1085">
        <ele>992.22</ele>
        <time>2012-06-02T11:33:24Z</time>
      </trkpt>
      <trkpt lat="44.4783" lon="3.10838">
        <ele>992.7</ele>
        <time>2012-06-02T11:33:32Z</time>
      </trkpt>
      <trkpt lat="44.47833" lon="3.10823">
        <ele>993.18</ele>
        <time>2012-06-02T11:33:41Z</time>
      </trkpt>
      <trkpt lat="44.47837" lon="3.10809">
        <ele>993.66</ele>
        <time>2012-06-02T11:33:50Z</time>
      </trkpt>
      <trkpt lat="44.47841" lon="3.10798">
        <ele>994.14</ele>
        <time>2012-06-02T11:33:58Z</time>
      </trkpt>
      <trkpt lat="44.47845" lon="3.10784">
        <ele>994.62</ele>
        <time>2012-06-02T11:34:07Z</time>
      </trkpt>
      <trkpt lat="44.47848" lon="3.10771">
        <ele>995.1</ele>
        <time>2012-06-02T11:34:15Z</time>
      </trkpt>
      <trkpt lat="44.47852" lon="3.10759">
        <ele>996.54</ele>
        <time>2012-06-02T11:34:23Z</time>
      </trkpt>
      <trkpt lat="44.47857" lon="3.10747">
        <ele>997.02</ele>
        <time>2012-06-02T11:34:32Z</time>
      </trkpt>
      <trkpt lat="44.47865" lon="3.1074">
        <ele>998.47</ele>
        <time>2012-06-02T11:36:45Z</time>
      </trkpt>
      <trkpt lat="44.47871" lon="3.10728">
        <ele>999.91</ele>
        <time>2012-06-02T11:36:56Z</time>
      </trkpt>
      <trkpt lat="44.47877" lon="3.10717">
        <ele>1000.39</ele>
        <time>2012-06-02T11:37:05Z</time>
      </trkpt>
      <trkpt lat="44.47882" lon="3.10705">
        <ele>1000.87</ele>
        <time>2012-06-02T11:37:14Z</time>
      </trkpt>
      <trkpt lat="44.47884" lon="3.10693">
        <ele>1001.83</ele>
        <time>2012-06-02T11:37:22Z</time>
      </trkpt>
      <trkpt lat="44.47888" lon="3.10679">
        <ele>1002.79</ele>
        <time>2012-06-02T11:37:30Z</time>
      </trkpt>
      <trkpt lat="44.47893" lon="3.10669">
        <ele>1003.27</ele>
        <time>2012-06-02T11:37:39Z</time>
      </trkpt>
      <trkpt lat="44.47897" lon="3.10656">
        <ele>1004.72</ele>
        <time>2012-06-02T11:37:49Z</time>
      </trkpt>
      <trkpt lat="44.47899" lon="3.10642">
        <ele>1005.2</ele>
        <time>2012-06-02T11:37:59Z</time>
      </trkpt>
      <trkpt lat="44.47902" lon="3.10629">
        <ele>1006.16</ele>
        <time>2012-06-02T11:38:08Z</time>
      </trkpt>
      <trkpt lat="44.47905" lon="3.10616">
        <ele>1006.16</ele>
        <time>2012-06-02T11:38:15Z</time>
      </trkpt>
      <trkpt lat="44.47908" lon="3.10603">
        <ele>1007.12</ele>
        <time>2012-06-02T11:38:23Z</time>
      </trkpt>
      <trkpt lat="44.47911" lon="3.10591">
        <ele>1007.12</ele>
        <time>2012-06-02T11:38:32Z</time>
      </trkpt>
      <trkpt lat="44.47911" lon="3.1058">
        <ele>1007.6</ele>
        <time>2012-06-02T11:38:38Z</time>
      </trkpt>
      <trkpt lat="44.47913" lon="3.10566">
        <ele>1008.56</ele>
        <time>2012-06-02T11:38:47Z</time>
      </trkpt>
      <trkpt lat="44.47914" lon="3.10554">
        <ele>1009.04</ele>
        <time>2012-06-02T11:38:55Z</time>
      </trkpt>
      <trkpt lat="44.47915" lon="3.1054">
        <ele>1009.04</ele>
        <time>2012-06-02T11:39:03Z</time>
      </trkpt>
      <trkpt lat="44.47916" lon="3.10528">
        <ele>1009.52</ele>
        <time>2012-06-02T11:39:11Z</time>
      </trkpt>
      <trkpt lat="44.47916" lon="3.10515">
        <ele>1010</ele>
        <time>2012-06-02T11:39:20Z</time>
      </trkpt>
      <trkpt lat="44.47917" lon="3.10501">
        <ele>1010</ele>
        <time>2012-06-02T11:39:30Z</time>
      </trkpt>
      <trkpt lat="44.47917" lon="3.10488">
        <ele>1010.96</ele>
        <time>2012-06-02T11:39:38Z</time>
      </trkpt>
      <trkpt lat="44.4792" lon="3.10472">
        <ele>1010.96</ele>
        <time>2012-06-02T11:39:49Z</time>
      </trkpt>
      <trkpt lat="44.47923" lon="3.10456">
        <ele>1011.93</ele>
        <time>2012-06-02T11:39:59Z</time>
      </trkpt>
      <trkpt lat="44.47925" lon="3.10441">
        <ele>1011.44</ele>
        <time>2012-06-02T11:40:07Z</time>
      </trkpt>
      <trkpt lat="44.47929" lon="3.10429">
        <ele>1012.41</ele>
        <time>2012-06-02T11:40:16Z</time>
      </trkpt>
      <trkpt lat="44.47935" lon="3.10418">
        <ele>1012.41</ele>
        <time>2012-06-02T11:40:24Z</time>
      </trkpt>
      <trkpt lat="44.4794" lon="3.10404">
        <ele>1012.89</ele>
        <time>2012-06-02T11:40:34Z</time>
      </trkpt>
      <trkpt lat="44.47943" lon="3.1039">
        <ele>1013.37</ele>
        <time>2012-06-02T11:40:43Z</time>
      </trkpt>
      <trkpt lat="44.47948" lon="3.10377">
        <ele>1014.33</ele>
        <time>2012-06-02T11:40:54Z</time>
      </trkpt>
      <trkpt lat="44.4795" lon="3.10363">
        <ele>1015.29</ele>
        <time>2012-06-02T11:41:02Z</time>
      </trkpt>
      <trkpt lat="44.47952" lon="3.10351">
        <ele>1015.77</ele>
        <time>2012-06-02T11:41:10Z</time>
      </trkpt>
      <trkpt lat="44.47955" lon="3.10338">
        <ele>1016.73</ele>
        <time>2012-06-02T11:41:19Z</time>
      </trkpt>
      <trkpt lat="44.47958" lon="3.10325">
        <ele>1016.25</ele>
        <time>2012-06-02T11:41:27Z</time>
      </trkpt>
      <trkpt lat="44.47957" lon="3.10311">
        <ele>1017.21</ele>
        <time>2012-06-02T11:41:36Z</time>
      </trkpt>
      <trkpt lat="44.47956" lon="3.10298">
        <ele>1016.73</ele>
        <time>2012-06-02T11:41:44Z</time>
      </trkpt>
      <trkpt lat="44.47956" lon="3.10285">
        <ele>1016.73</ele>
        <time>2012-06-02T11:41:53Z</time>
      </trkpt>
      <trkpt lat="44.47957" lon="3.1027">
        <ele>1016.25</ele>
        <time>2012-06-02T11:42:03Z</time>
      </trkpt>
      <trkpt lat="44.47956" lon="3.10256">
        <ele>1017.21</ele>
        <time>2012-06-02T11:42:12Z</time>
      </trkpt>
      <trkpt lat="44.47957" lon="3.10242">
        <ele>1017.69</ele>
        <time>2012-06-02T11:42:20Z</time>
      </trkpt>
      <trkpt lat="44.47956" lon="3.10227">
        <ele>1018.17</ele>
        <time>2012-06-02T11:42:29Z</time>
      </trkpt>
      <trkpt lat="44.47953" lon="3.10214">
        <ele>1019.13</ele>
        <time>2012-06-02T11:42:37Z</time>
      </trkpt>
      <trkpt lat="44.47949" lon="3.10201">
        <ele>1018.17</ele>
        <time>2012-06-02T11:42:46Z</time>
      </trkpt>
      <trkpt lat="44.47946" lon="3.10189">
        <ele>1017.69</ele>
        <time>2012-06-02T11:42:55Z</time>
      </trkpt>
      <trkpt lat="44.47943" lon="3.10176">
        <ele>1017.69</ele>
        <time>2012-06-02T11:43:04Z</time>
      </trkpt>
      <trkpt lat="44.47943" lon="3.10162">
        <ele>1018.65</ele>
        <time>2012-06-02T11:43:13Z</time>
      </trkpt>
      <trkpt lat="44.47945" lon="3.10148">
        <ele>1017.69</ele>
        <time>2012-06-02T11:43:22Z</time>
      </trkpt>
      <trkpt lat="44.47948" lon="3.10135">
        <ele>1018.17</ele>
        <time>2012-06-02T11:43:31Z</time>
      </trkpt>
      <trkpt lat="44.47952" lon="3.10121">
        <ele>1019.13</ele>
        <time>2012-06-02T11:43:40Z</time>
      </trkpt>
      <trkpt lat="44.47959" lon="3.10111">
        <ele>1019.13</ele>
        <time>2012-06-02T11:43:49Z</time>
      </trkpt>
      <trkpt lat="44.47966" lon="3.10098">
        <ele>1020.1</ele>
        <time>2012-06-02T11:43:59Z</time>
      </trkpt>
      <trkpt lat="44.47972" lon="3.10083">
        <ele>1021.06</ele>
        <time>2012-06-02T11:44:10Z</time>
      </trkpt>
      <trkpt lat="44.47977" lon="3.10069">
        <ele>1021.06</ele>
        <time>2012-06-02T11:44:19Z</time>
      </trkpt>
      <trkpt lat="44.47984" lon="3.10058">
        <ele>1021.06</ele>
        <time>2012-06-02T11:44:29Z</time>
      </trkpt>
      <trkpt lat="44.47992" lon="3.10046">
        <ele>1019.62</ele>
        <time>2012-06-02T11:44:39Z</time>
      </trkpt>
      <trkpt lat="44.48" lon="3.10035">
        <ele>1020.1</ele>
        <time>2012-06-02T11:44:48Z</time>
      </trkpt>
      <trkpt lat="44.48006" lon="3.10023">
        <ele>1020.1</ele>
        <time>2012-06-02T11:44:57Z</time>
      </trkpt>
      <trkpt lat="44.48014" lon="3.10014">
        <ele>1020.1</ele>
        <time>2012-06-02T11:45:06Z</time>
      </trkpt>
      <trkpt lat="44.48022" lon="3.10005">
        <ele>1020.1</ele>
        <time>2012-06-02T11:45:15Z</time>
      </trkpt>
      <trkpt lat="44.4803" lon="3.09994">
        <ele>1020.1</ele>
        <time>2012-06-02T11:45:23Z</time>
      </trkpt>
      <trkpt lat="44.48036" lon="3.09985">
        <ele>1019.62</ele>
        <time>2012-06-02T11:45:31Z</time>
      </trkpt>
      <trkpt lat="44.48043" lon="3.09973">
        <ele>1020.1</ele>
        <time>2012-06-02T11:45:40Z</time>
      </trkpt>
      <trkpt lat="44.4805" lon="3.09964">
        <ele>1020.58</ele>
        <time>2012-06-02T11:45:48Z</time>
      </trkpt>
      <trkpt lat="44.48058" lon="3.09956">
        <ele>1021.06</ele>
        <time>2012-06-02T11:45:57Z</time>
      </trkpt>
      <trkpt lat="44.48067" lon="3.0995">
        <ele>1021.54</ele>
        <time>2012-06-02T11:46:06Z</time>
      </trkpt>
      <trkpt lat="44.48076" lon="3.09947">
        <ele>1021.06</ele>
        <time>2012-06-02T11:46:14Z</time>
      </trkpt>
      <trkpt lat="44.48086" lon="3.09948">
        <ele>1021.06</ele>
        <time>2012-06-02T11:46:24Z</time>
      </trkpt>
      <trkpt lat="44.48097" lon="3.09952">
        <ele>1021.06</ele>
        <time>2012-06-02T11:46:34Z</time>
      </trkpt>
      <trkpt lat="44.48107" lon="3.09956">
        <ele>1021.06</ele>
        <time>2012-06-02T11:46:43Z</time>
      </trkpt>
      <trkpt lat="44.48118" lon="3.09959">
        <ele>1020.58</ele>
        <time>2012-06-02T11:46:53Z</time>
      </trkpt>
      <trkpt lat="44.4813" lon="3.09957">
        <ele>1019.13</ele>
        <time>2012-06-02T11:47:04Z</time>
      </trkpt>
      <trkpt lat="44.48143" lon="3.09954">
        <ele>1018.17</ele>
        <time>2012-06-02T11:47:15Z</time>
      </trkpt>
      <trkpt lat="44.48155" lon="3.09954">
        <ele>1017.21</ele>
        <time>2012-06-02T11:47:25Z</time>
      </trkpt>
      <trkpt lat="44.48165" lon="3.0995">
        <ele>1016.25</ele>
        <time>2012-06-02T11:47:36Z</time>
      </trkpt>
      <trkpt lat="44.48174" lon="3.09945">
        <ele>1016.25</ele>
        <time>2012-06-02T11:47:44Z</time>
      </trkpt>
      <trkpt lat="44.48182" lon="3.09938">
        <ele>1015.29</ele>
        <time>2012-06-02T11:47:52Z</time>
      </trkpt>
      <trkpt lat="44.4819" lon="3.0993">
        <ele>1014.33</ele>
        <time>2012-06-02T11:48:00Z</time>
      </trkpt>
      <trkpt lat="44.48197" lon="3.09921">
        <ele>1014.81</ele>
        <time>2012-06-02T11:48:10Z</time>
      </trkpt>
      <trkpt lat="44.48204" lon="3.0991">
        <ele>1014.33</ele>
        <time>2012-06-02T11:48:21Z</time>
      </trkpt>
      <trkpt lat="44.4821" lon="3.09901">
        <ele>1013.85</ele>
        <time>2012-06-02T11:55:26Z</time>
      </trkpt>
      <trkpt lat="44.48217" lon="3.09889">
        <ele>1013.37</ele>
        <time>2012-06-02T11:55:41Z</time>
      </trkpt>
      <trkpt lat="44.48223" lon="3.09876">
        <ele>1012.89</ele>
        <time>2012-06-02T11:55:52Z</time>
      </trkpt>
      <trkpt lat="44.48228" lon="3.09861">
        <ele>1011.93</ele>
        <time>2012-06-02T11:56:02Z</time>
      </trkpt>
      <trkpt lat="44.48233" lon="3.09847">
        <ele>1011.93</ele>
        <time>2012-06-02T11:56:11Z</time>
      </trkpt>
      <trkpt lat="44.48237" lon="3.09833">
        <ele>1011.44</ele>
        <time>2012-06-02T11:56:20Z</time>
      </trkpt>
      <trkpt lat="44.48242" lon="3.0982">
        <ele>1010.96</ele>
        <time>2012-06-02T11:56:29Z</time>
      </trkpt>
      <trkpt lat="44.48246" lon="3.09808">
        <ele>1010.48</ele>
        <time>2012-06-02T11:56:37Z</time>
      </trkpt>
      <trkpt lat="44.48251" lon="3.09795">
        <ele>1010.48</ele>
        <time>2012-06-02T11:56:46Z</time>
      </trkpt>
      <trkpt lat="44.48256" lon="3.09781">
        <ele>1010</ele>
        <time>2012-06-02T11:56:54Z</time>
      </trkpt>
      <trkpt lat="44.4826" lon="3.0977">
        <ele>1010</ele>
        <time>2012-06-02T11:57:01Z</time>
      </trkpt>
      <trkpt lat="44.48265" lon="3.09757">
        <ele>1010</ele>
        <time>2012-06-02T11:57:09Z</time>
      </trkpt>
      <trkpt lat="44.4827" lon="3.09746">
        <ele>1010</ele>
        <time>2012-06-02T11:57:17Z</time>
      </trkpt>
      <trkpt lat="44.48276" lon="3.09736">
        <ele>1009.52</ele>
        <time>2012-06-02T11:57:25Z</time>
      </trkpt>
      <trkpt lat="44.48281" lon="3.09725">
        <ele>1010.48</ele>
        <time>2012-06-02T11:57:33Z</time>
      </trkpt>
      <trkpt lat="44.48286" lon="3.09714">
        <ele>1010</ele>
        <time>2012-06-02T11:57:41Z</time>
      </trkpt>
      <trkpt lat="44.48289" lon="3.09701">
        <ele>1009.52</ele>
        <time>2012-06-02T11:57:49Z</time>
      </trkpt>
      <trkpt lat="44.48293" lon="3.09689">
        <ele>1009.52</ele>
        <time>2012-06-02T11:57:58Z</time>
      </trkpt>
      <trkpt lat="44.48298" lon="3.09677">
        <ele>1010</ele>
        <time>2012-06-02T11:58:06Z</time>
      </trkpt>
      <trkpt lat="44.48303" lon="3.09666">
        <ele>1009.52</ele>
        <time>2012-06-02T11:58:14Z</time>
      </trkpt>
      <trkpt lat="44.48309" lon="3.09653">
        <ele>1009.52</ele>
        <time>2012-06-02T11:58:23Z</time>
      </trkpt>
      <trkpt lat="44.48314" lon="3.09641">
        <ele>1010</ele>
        <time>2012-06-02T11:58:32Z</time>
      </trkpt>
      <trkpt lat="44.48318" lon="3.09628">
        <ele>1009.52</ele>
        <time>2012-06-02T11:58:40Z</time>
      </trkpt>
      <trkpt lat="44.48323" lon="3.09616">
        <ele>1010</ele>
        <time>2012-06-02T11:58:49Z</time>
      </trkpt>
      <trkpt lat="44.48329" lon="3.09603">
        <ele>1010.96</ele>
        <time>2012-06-02T11:58:58Z</time>
      </trkpt>
      <trkpt lat="44.48334" lon="3.09591">
        <ele>1010.96</ele>
        <time>2012-06-02T11:59:07Z</time>
      </trkpt>
      <trkpt lat="44.48336" lon="3.09578">
        <ele>1010.96</ele>
        <time>2012-06-02T11:59:14Z</time>
      </trkpt>
      <trkpt lat="44.48341" lon="3.09567">
        <ele>1011.44</ele>
        <time>2012-06-02T11:59:22Z</time>
      </trkpt>
      <trkpt lat="44.48347" lon="3.09556">
        <ele>1011.93</ele>
        <time>2012-06-02T11:59:31Z</time>
      </trkpt>
      <trkpt lat="44.48351" lon="3.09544">
        <ele>1011.93</ele>
        <time>2012-06-02T11:59:39Z</time>
      </trkpt>
      <trkpt lat="44.48358" lon="3.09536">
        <ele>1011.93</ele>
        <time>2012-06-02T11:59:47Z</time>
      </trkpt>
      <trkpt lat="44.48364" lon="3.09524">
        <ele>1012.89</ele>
        <time>2012-06-02T11:59:56Z</time>
      </trkpt>
      <trkpt lat="44.48371" lon="3.09513">
        <ele>1014.33</ele>
        <time>2012-06-02T12:00:06Z</time>
      </trkpt>
      <trkpt lat="44.48379" lon="3.09502">
        <ele>1014.33</ele>
        <time>2012-06-02T12:00:16Z</time>
      </trkpt>
      <trkpt lat="44.48386" lon="3.09492">
        <ele>1015.29</ele>
        <time>2012-06-02T12:00:25Z</time>
      </trkpt>
      <trkpt lat="44.48393" lon="3.09481">
        <ele>1015.77</ele>
        <time>2012-06-02T12:00:34Z</time>
      </trkpt>
      <trkpt lat="44.484" lon="3.09473">
        <ele>1016.73</ele>
        <time>2012-06-02T12:00:43Z</time>
      </trkpt>
      <trkpt lat="44.48407" lon="3.09462">
        <ele>1018.17</ele>
        <time>2012-06-02T12:00:52Z</time>
      </trkpt>
      <trkpt lat="44.48415" lon="3.09453">
        <ele>1019.62</ele>
        <time>2012-06-02T12:01:01Z</time>
      </trkpt>
      <trkpt lat="44.48422" lon="3.09443">
        <ele>1020.1</ele>
        <time>2012-06-02T12:01:10Z</time>
      </trkpt>
      <trkpt lat="44.48429" lon="3.09433">
        <ele>1021.06</ele>
        <time>2012-06-02T12:01:19Z</time>
      </trkpt>
      <trkpt lat="44.48436" lon="3.09425">
        <ele>1021.54</ele>
        <time>2012-06-02T12:01:28Z</time>
      </trkpt>
      <trkpt lat="44.48444" lon="3.09415">
        <ele>1022.02</ele>
        <time>2012-06-02T12:01:37Z</time>
      </trkpt>
      <trkpt lat="44.4845" lon="3.09404">
        <ele>1022.5</ele>
        <time>2012-06-02T12:01:46Z</time>
      </trkpt>
      <trkpt lat="44.48456" lon="3.09393">
        <ele>1022.98</ele>
        <time>2012-06-02T12:01:55Z</time>
      </trkpt>
      <trkpt lat="44.4846" lon="3.09379">
        <ele>1022.98</ele>
        <time>2012-06-02T12:02:03Z</time>
      </trkpt>
      <trkpt lat="44.48466" lon="3.09367">
        <ele>1022.98</ele>
        <time>2012-06-02T12:02:12Z</time>
      </trkpt>
      <trkpt lat="44.4847" lon="3.09355">
        <ele>1023.46</ele>
        <time>2012-06-02T12:02:21Z</time>
      </trkpt>
      <trkpt lat="44.48474" lon="3.09341">
        <ele>1023.46</ele>
        <time>2012-06-02T12:02:29Z</time>
      </trkpt>
      <trkpt lat="44.48478" lon="3.09328">
        <ele>1023.46</ele>
        <time>2012-06-02T12:02:37Z</time>
      </trkpt>
      <trkpt lat="44.48482" lon="3.09316">
        <ele>1024.42</ele>
        <time>2012-06-02T12:02:45Z</time>
      </trkpt>
      <trkpt lat="44.48487" lon="3.09304">
        <ele>1024.42</ele>
        <time>2012-06-02T12:02:53Z</time>
      </trkpt>
      <trkpt lat="44.48492" lon="3.0929">
        <ele>1024.9</ele>
        <time>2012-06-02T12:03:02Z</time>
      </trkpt>
      <trkpt lat="44.48494" lon="3.09278">
        <ele>1025.38</ele>
        <time>2012-06-02T12:03:09Z</time>
      </trkpt>
      <trkpt lat="44.48501" lon="3.09268">
        <ele>1025.38</ele>
        <time>2012-06-02T12:03:18Z</time>
      </trkpt>
      <trkpt lat="44.48509" lon="3.09259">
        <ele>1026.83</ele>
        <time>2012-06-02T12:03:27Z</time>
      </trkpt>
      <trkpt lat="44.48516" lon="3.0925">
        <ele>1026.83</ele>
        <time>2012-06-02T12:03:38Z</time>
      </trkpt>
      <trkpt lat="44.48523" lon="3.09239">
        <ele>1027.79</ele>
        <time>2012-06-02T12:03:48Z</time>
      </trkpt>
      <trkpt lat="44.4853" lon="3.09227">
        <ele>1028.27</ele>
        <time>2012-06-02T12:03:57Z</time>
      </trkpt>
      <trkpt lat="44.48537" lon="3.09217">
        <ele>1029.23</ele>
        <time>2012-06-02T12:04:06Z</time>
      </trkpt>
      <trkpt lat="44.48544" lon="3.09205">
        <ele>1029.71</ele>
        <time>2012-06-02T12:04:15Z</time>
      </trkpt>
      <trkpt lat="44.4855" lon="3.09191">
        <ele>1029.23</ele>
        <time>2012-06-02T12:04:25Z</time>
      </trkpt>
      <trkpt lat="44.48557" lon="3.09179">
        <ele>1031.15</ele>
        <time>2012-06-02T12:04:35Z</time>
      </trkpt>
      <trkpt lat="44.48564" lon="3.09169">
        <ele>1031.15</ele>
        <time>2012-06-02T12:04:44Z</time>
      </trkpt>
      <trkpt lat="44.48572" lon="3.09159">
        <ele>1031.15</ele>
        <time>2012-06-02T12:04:53Z</time>
      </trkpt>
      <trkpt lat="44.48581" lon="3.09152">
        <ele>1031.15</ele>
        <time>2012-06-02T12:05:02Z</time>
      </trkpt>
      <trkpt lat="44.4859" lon="3.0914">
        <ele>1031.63</ele>
        <time>2012-06-02T12:05:12Z</time>
      </trkpt>
      <trkpt lat="44.48599" lon="3.0913">
        <ele>1032.11</ele>
        <time>2012-06-02T12:05:21Z</time>
      </trkpt>
      <trkpt lat="44.48607" lon="3.09119">
        <ele>1032.59</ele>
        <time>2012-06-02T12:05:30Z</time>
      </trkpt>
      <trkpt lat="44.48614" lon="3.0911">
        <ele>1032.59</ele>
        <time>2012-06-02T12:05:40Z</time>
      </trkpt>
      <trkpt lat="44.48621" lon="3.09099">
        <ele>1033.55</ele>
        <time>2012-06-02T12:05:49Z</time>
      </trkpt>
      <trkpt lat="44.48628" lon="3.09088">
        <ele>1034.04</ele>
        <time>2012-06-02T12:05:59Z</time>
      </trkpt>
      <trkpt lat="44.48635" lon="3.09077">
        <ele>1034.52</ele>
        <time>2012-06-02T12:06:08Z</time>
      </trkpt>
      <trkpt lat="44.48644" lon="3.09062">
        <ele>1035.96</ele>
        <time>2012-06-02T12:06:19Z</time>
      </trkpt>
      <trkpt lat="44.48652" lon="3.09045">
        <ele>1036.92</ele>
        <time>2012-06-02T12:06:30Z</time>
      </trkpt>
      <trkpt lat="44.48656" lon="3.09026">
        <ele>1036.92</ele>
        <time>2012-06-02T12:08:10Z</time>
      </trkpt>
      <trkpt lat="44.48663" lon="3.09017">
        <ele>1036.92</ele>
        <time>2012-06-02T12:08:21Z</time>
      </trkpt>
      <trkpt lat="44.48669" lon="3.09007">
        <ele>1036.92</ele>
        <time>2012-06-02T12:08:30Z</time>
      </trkpt>
      <trkpt lat="44.48676" lon="3.08996">
        <ele>1037.4</ele>
        <time>2012-06-02T12:08:39Z</time>
      </trkpt>
      <trkpt lat="44.4868" lon="3.08984">
        <ele>1036.92</ele>
        <time>2012-06-02T12:08:47Z</time>
      </trkpt>
      <trkpt lat="44.48685" lon="3.08972">
        <ele>1037.88</ele>
        <time>2012-06-02T12:08:56Z</time>
      </trkpt>
      <trkpt lat="44.48691" lon="3.08962">
        <ele>1037.88</ele>
        <time>2012-06-02T12:09:05Z</time>
      </trkpt>
      <trkpt lat="44.48698" lon="3.08953">
        <ele>1037.88</ele>
        <time>2012-06-02T12:09:15Z</time>
      </trkpt>
      <trkpt lat="44.48704" lon="3.08943">
        <ele>1037.88</ele>
        <time>2012-06-02T12:09:24Z</time>
      </trkpt>
      <trkpt lat="44.4871" lon="3.08931">
        <ele>1037.4</ele>
        <time>2012-06-02T12:09:33Z</time>
      </trkpt>
      <trkpt lat="44.4872" lon="3.08921">
        <ele>1036.92</ele>
        <time>2012-06-02T12:09:42Z</time>
      </trkpt>
      <trkpt lat="44.48729" lon="3.08914">
        <ele>1036.44</ele>
        <time>2012-06-02T12:09:51Z</time>
      </trkpt>
      <trkpt lat="44.48736" lon="3.08905">
        <ele>1036.44</ele>
        <time>2012-06-02T12:09:59Z</time>
      </trkpt>
      <trkpt lat="44.48743" lon="3.08896">
        <ele>1035.96</ele>
        <time>2012-06-02T12:10:07Z</time>
      </trkpt>
      <trkpt lat="44.48752" lon="3.08888">
        <ele>1035.48</ele>
        <time>2012-06-02T12:10:15Z</time>
      </trkpt>
      <trkpt lat="44.4876" lon="3.08879">
        <ele>1035.48</ele>
        <time>2012-06-02T12:10:24Z</time>
      </trkpt>
      <trkpt lat="44.48768" lon="3.08869">
        <ele>1035</ele>
        <time>2012-06-02T12:10:34Z</time>
      </trkpt>
      <trkpt lat="44.48773" lon="3.08868">
        <ele>1035</ele>
        <time>2012-06-02T12:10:48Z</time>
      </trkpt>
      <trkpt lat="44.4878" lon="3.08855">
        <ele>1034.52</ele>
        <time>2012-06-02T12:11:06Z</time>
      </trkpt>
      <trkpt lat="44.48788" lon="3.08846">
        <ele>1034.04</ele>
        <time>2012-06-02T12:11:15Z</time>
      </trkpt>
      <trkpt lat="44.48794" lon="3.08835">
        <ele>1033.55</ele>
        <time>2012-06-02T12:11:24Z</time>
      </trkpt>
      <trkpt lat="44.48801" lon="3.08825">
        <ele>1033.55</ele>
        <time>2012-06-02T12:11:32Z</time>
      </trkpt>
      <trkpt lat="44.48808" lon="3.08815">
        <ele>1032.59</ele>
        <time>2012-06-02T12:11:41Z</time>
      </trkpt>
      <trkpt lat="44.48815" lon="3.08804">
        <ele>1032.59</ele>
        <time>2012-06-02T12:11:50Z</time>
      </trkpt>
      <trkpt lat="44.48821" lon="3.08793">
        <ele>1031.63</ele>
        <time>2012-06-02T12:11:59Z</time>
      </trkpt>
      <trkpt lat="44.48825" lon="3.0878">
        <ele>1031.63</ele>
        <time>2012-06-02T12:12:08Z</time>
      </trkpt>
      <trkpt lat="44.48832" lon="3.0877">
        <ele>1031.15</ele>
        <time>2012-06-02T12:12:17Z</time>
      </trkpt>
      <trkpt lat="44.48839" lon="3.0876">
        <ele>1030.67</ele>
        <time>2012-06-02T12:12:26Z</time>
      </trkpt>
      <trkpt lat="44.48847" lon="3.08749">
        <ele>1030.67</ele>
        <time>2012-06-02T12:12:35Z</time>
      </trkpt>
      <trkpt lat="44.48853" lon="3.08737">
        <ele>1030.19</ele>
        <time>2012-06-02T12:12:44Z</time>
      </trkpt>
      <trkpt lat="44.4886" lon="3.08725">
        <ele>1030.19</ele>
        <time>2012-06-02T12:12:53Z</time>
      </trkpt>
      <trkpt lat="44.48867" lon="3.08716">
        <ele>1029.71</ele>
        <time>2012-06-02T12:13:01Z</time>
      </trkpt>
      <trkpt lat="44.48877" lon="3.08708">
        <ele>1028.75</ele>
        <time>2012-06-02T12:13:12Z</time>
      </trkpt>
      <trkpt lat="44.48887" lon="3.08698">
        <ele>1027.79</ele>
        <time>2012-06-02T12:13:22Z</time>
      </trkpt>
      <trkpt lat="44.48897" lon="3.08697">
        <ele>1027.31</ele>
        <time>2012-06-02T12:13:29Z</time>
      </trkpt>
      <trkpt lat="44.48904" lon="3.08689">
        <ele>1026.83</ele>
        <time>2012-06-02T12:13:36Z</time>
      </trkpt>
      <trkpt lat="44.48911" lon="3.08682">
        <ele>1026.83</ele>
        <time>2012-06-02T12:13:44Z</time>
      </trkpt>
      <trkpt lat="44.48919" lon="3.08672">
        <ele>1026.83</ele>
        <time>2012-06-02T12:13:54Z</time>
      </trkpt>
      <trkpt lat="44.48926" lon="3.08658">
        <ele>1027.31</ele>
        <time>2012-06-02T12:14:02Z</time>
      </trkpt>
      <trkpt lat="44.48934" lon="3.08649">
        <ele>1026.83</ele>
        <time>2012-06-02T12:14:11Z</time>
      </trkpt>
      <trkpt lat="44.48942" lon="3.0864">
        <ele>1027.31</ele>
        <time>2012-06-02T12:14:19Z</time>
      </trkpt>
      <trkpt lat="44.48949" lon="3.08635">
        <ele>1027.79</ele>
        <time>2012-06-02T12:14:27Z</time>
      </trkpt>
      <trkpt lat="44.48957" lon="3.08625">
        <ele>1027.79</ele>
        <time>2012-06-02T12:14:36Z</time>
      </trkpt>
      <trkpt lat="44.48966" lon="3.08614">
        <ele>1029.23</ele>
        <time>2012-06-02T12:14:47Z</time>
      </trkpt>
      <trkpt lat="44.48973" lon="3.08604">
        <ele>1029.23</ele>
        <time>2012-06-02T12:14:55Z</time>
      </trkpt>
      <trkpt lat="44.48981" lon="3.08598">
        <ele>1030.19</ele>
        <time>2012-06-02T12:15:04Z</time>
      </trkpt>
      <trkpt lat="44.48989" lon="3.08589">
        <ele>1031.15</ele>
        <time>2012-06-02T12:15:14Z</time>
      </trkpt>
      <trkpt lat="44.48995" lon="3.08579">
        <ele>1031.63</ele>
        <time>2012-06-02T12:15:22Z</time>
      </trkpt>
      <trkpt lat="44.49" lon="3.08565">
        <ele>1032.11</ele>
        <time>2012-06-02T12:15:31Z</time>
      </trkpt>
      <trkpt lat="44.49007" lon="3.08555">
        <ele>1032.59</ele>
        <time>2012-06-02T12:15:39Z</time>
      </trkpt>
      <trkpt lat="44.49014" lon="3.08543">
        <ele>1032.11</ele>
        <time>2012-06-02T12:15:48Z</time>
      </trkpt>
      <trkpt lat="44.49023" lon="3.08535">
        <ele>1032.11</ele>
        <time>2012-06-02T12:15:57Z</time>
      </trkpt>
      <trkpt lat="44.4903" lon="3.08527">
        <ele>1033.55</ele>
        <time>2012-06-02T12:16:05Z</time>
      </trkpt>
      <trkpt lat="44.49038" lon="3.08518">
        <ele>1034.04</ele>
        <time>2012-06-02T12:16:15Z</time>
      </trkpt>
      <trkpt lat="44.49046" lon="3.08512">
        <ele>1035</ele>
        <time>2012-06-02T12:16:24Z</time>
      </trkpt>
      <trkpt lat="44.49055" lon="3.08506">
        <ele>1034.52</ele>
        <time>2012-06-02T12:16:33Z</time>
      </trkpt>
      <trkpt lat="44.49061" lon="3.08494">
        <ele>1035.48</ele>
        <time>2012-06-02T12:16:43Z</time>
      </trkpt>
      <trkpt lat="44.49065" lon="3.08477">
        <ele>1035.48</ele>
        <time>2012-06-02T12:16:51Z</time>
      </trkpt>
      <trkpt lat="44.4907" lon="3.08463">
        <ele>1036.44</ele>
        <time>2012-06-02T12:17:00Z</time>
      </trkpt>
      <trkpt lat="44.49078" lon="3.08451">
        <ele>1036.44</ele>
        <time>2012-06-02T12:17:09Z</time>
      </trkpt>
      <trkpt lat="44.49085" lon="3.08441">
        <ele>1036.44</ele>
        <time>2012-06-02T12:17:17Z</time>
      </trkpt>
      <trkpt lat="44.49094" lon="3.08434">
        <ele>1035.96</ele>
        <time>2012-06-02T12:17:26Z</time>
      </trkpt>
      <trkpt lat="44.49104" lon="3.08429">
        <ele>1036.92</ele>
        <time>2012-06-02T12:17:35Z</time>
      </trkpt>
      <trkpt lat="44.49112" lon="3.08419">
        <ele>1036.44</ele>
        <time>2012-06-02T12:17:45Z</time>
      </trkpt>
      <trkpt lat="44.49119" lon="3.08409">
        <ele>1036.44</ele>
        <time>2012-06-02T12:17:54Z</time>
      </trkpt>
      <trkpt lat="44.49127" lon="3.08397">
        <ele>1035.96</ele>
        <time>2012-06-02T12:18:03Z</time>
      </trkpt>
      <trkpt lat="44.49134" lon="3.08385">
        <ele>1035.96</ele>
        <time>2012-06-02T12:18:11Z</time>
      </trkpt>
      <trkpt lat="44.49143" lon="3.08376">
        <ele>1035.96</ele>
        <time>2012-06-02T12:18:20Z</time>
      </trkpt>
      <trkpt lat="44.49153" lon="3.08369">
        <ele>1035.96</ele>
        <time>2012-06-02T12:18:29Z</time>
      </trkpt>
      <trkpt lat="44.49162" lon="3.08363">
        <ele>1035.96</ele>
        <time>2012-06-02T12:18:38Z</time>
      </trkpt>
      <trkpt lat="44.49172" lon="3.08354">
        <ele>1035</ele>
        <time>2012-06-02T12:18:47Z</time>
      </trkpt>
      <trkpt lat="44.49182" lon="3.08348">
        <ele>1035</ele>
        <time>2012-06-02T12:18:57Z</time>
      </trkpt>
      <trkpt lat="44.49191" lon="3.08341">
        <ele>1035</ele>
        <time>2012-06-02T12:19:05Z</time>
      </trkpt>
      <trkpt lat="44.492" lon="3.08335">
        <ele>1035.48</ele>
        <time>2012-06-02T12:19:13Z</time>
      </trkpt>
      <trkpt lat="44.49207" lon="3.08326">
        <ele>1034.52</ele>
        <time>2012-06-02T12:19:30Z</time>
      </trkpt>
      <trkpt lat="44.49214" lon="3.08315">
        <ele>1035.96</ele>
        <time>2012-06-02T12:19:39Z</time>
      </trkpt>
      <trkpt lat="44.4922" lon="3.08303">
        <ele>1035</ele>
        <time>2012-06-02T12:19:55Z</time>
      </trkpt>
      <trkpt lat="44.49227" lon="3.08295">
        <ele>1035</ele>
        <time>2012-06-02T12:20:12Z</time>
      </trkpt>
      <trkpt lat="44.49235" lon="3.08288">
        <ele>1035</ele>
        <time>2012-06-02T12:20:21Z</time>
      </trkpt>
      <trkpt lat="44.49245" lon="3.08283">
        <ele>1035.48</ele>
        <time>2012-06-02T12:20:30Z</time>
      </trkpt>
      <trkpt lat="44.49254" lon="3.08279">
        <ele>1036.92</ele>
        <time>2012-06-02T12:20:39Z</time>
      </trkpt>
      <trkpt lat="44.49263" lon="3.08278">
        <ele>1037.4</ele>
        <time>2012-06-02T12:20:48Z</time>
      </trkpt>
      <trkpt lat="44.49272" lon="3.08273">
        <ele>1039.32</ele>
        <time>2012-06-02T12:20:58Z</time>
      </trkpt>
      <trkpt lat="44.49278" lon="3.08272">
        <ele>1039.32</ele>
        <time>2012-06-02T12:21:11Z</time>
      </trkpt>
      <trkpt lat="44.49284" lon="3.08259">
        <ele>1038.36</ele>
        <time>2012-06-02T12:21:59Z</time>
      </trkpt>
      <trkpt lat="44.49286" lon="3.08267">
        <ele>1036.44</ele>
        <time>2012-06-02T12:24:24Z</time>
      </trkpt>
      <trkpt lat="44.4929" lon="3.08272">
        <ele>1035</ele>
        <time>2012-06-02T12:24:46Z</time>
      </trkpt>
      <trkpt lat="44.49296" lon="3.08276">
        <ele>1031.15</ele>
        <time>2012-06-02T12:25:08Z</time>
      </trkpt>
      <trkpt lat="44.49301" lon="3.08281">
        <ele>1027.79</ele>
        <time>2012-06-02T12:25:32Z</time>
      </trkpt>
      <trkpt lat="44.49314" lon="3.08293">
        <ele>1023.46</ele>
        <time>2012-06-02T12:25:57Z</time>
      </trkpt>
      <trkpt lat="44.49332" lon="3.08307">
        <ele>1019.62</ele>
        <time>2012-06-02T12:26:18Z</time>
      </trkpt>
      <trkpt lat="44.49354" lon="3.08331">
        <ele>1017.21</ele>
        <time>2012-06-02T12:26:32Z</time>
      </trkpt>
      <trkpt lat="44.49385" lon="3.0836">
        <ele>1014.81</ele>
        <time>2012-06-02T12:26:48Z</time>
      </trkpt>
      <trkpt lat="44.49403" lon="3.08375">
        <ele>1011.93</ele>
        <time>2012-06-02T12:27:02Z</time>
      </trkpt>
      <trkpt lat="44.49419" lon="3.08383">
        <ele>1009.04</ele>
        <time>2012-06-02T12:27:14Z</time>
      </trkpt>
      <trkpt lat="44.49438" lon="3.08396">
        <ele>1005.68</ele>
        <time>2012-06-02T12:27:31Z</time>
      </trkpt>
      <trkpt lat="44.49456" lon="3.08405">
        <ele>1001.35</ele>
        <time>2012-06-02T12:27:50Z</time>
      </trkpt>
      <trkpt lat="44.49467" lon="3.0841">
        <ele>998.95</ele>
        <time>2012-06-02T12:28:07Z</time>
      </trkpt>
      <trkpt lat="44.49479" lon="3.08415">
        <ele>995.58</ele>
        <time>2012-06-02T12:28:22Z</time>
      </trkpt>
      <trkpt lat="44.49497" lon="3.08421">
        <ele>994.14</ele>
        <time>2012-06-02T12:29:27Z</time>
      </trkpt>
      <trkpt lat="44.49513" lon="3.08423">
        <ele>993.18</ele>
        <time>2012-06-02T12:29:39Z</time>
      </trkpt>
      <trkpt lat="44.49524" lon="3.08427">
        <ele>991.26</ele>
        <time>2012-06-02T12:29:48Z</time>
      </trkpt>
      <trkpt lat="44.49531" lon="3.0843">
        <ele>990.78</ele>
        <time>2012-06-02T12:31:30Z</time>
      </trkpt>
      <trkpt lat="44.49542" lon="3.08434">
        <ele>988.85</ele>
        <time>2012-06-02T12:33:49Z</time>
      </trkpt>
      <trkpt lat="44.49554" lon="3.08435">
        <ele>987.89</ele>
        <time>2012-06-02T12:34:12Z</time>
      </trkpt>
      <trkpt lat="44.49567" lon="3.08439">
        <ele>986.45</ele>
        <time>2012-06-02T12:34:24Z</time>
      </trkpt>
      <trkpt lat="44.49578" lon="3.08442">
        <ele>985.97</ele>
        <time>2012-06-02T12:34:35Z</time>
      </trkpt>
      <trkpt lat="44.49587" lon="3.08447">
        <ele>984.05</ele>
        <time>2012-06-02T12:34:49Z</time>
      </trkpt>
      <trkpt lat="44.49597" lon="3.08455">
        <ele>982.12</ele>
        <time>2012-06-02T12:35:02Z</time>
      </trkpt>
      <trkpt lat="44.49606" lon="3.08464">
        <ele>980.2</ele>
        <time>2012-06-02T12:35:14Z</time>
      </trkpt>
      <trkpt lat="44.49614" lon="3.08472">
        <ele>978.28</ele>
        <time>2012-06-02T12:35:25Z</time>
      </trkpt>
      <trkpt lat="44.49624" lon="3.08478">
        <ele>977.8</ele>
        <time>2012-06-02T12:35:34Z</time>
      </trkpt>
      <trkpt lat="44.49634" lon="3.08484">
        <ele>976.36</ele>
        <time>2012-06-02T12:35:44Z</time>
      </trkpt>
      <trkpt lat="44.49645" lon="3.08489">
        <ele>974.91</ele>
        <time>2012-06-02T12:35:53Z</time>
      </trkpt>
      <trkpt lat="44.49655" lon="3.08492">
        <ele>973.95</ele>
        <time>2012-06-02T12:36:03Z</time>
      </trkpt>
      <trkpt lat="44.49664" lon="3.08495">
        <ele>972.03</ele>
        <time>2012-06-02T12:36:12Z</time>
      </trkpt>
      <trkpt lat="44.49671" lon="3.085">
        <ele>970.59</ele>
        <time>2012-06-02T12:36:21Z</time>
      </trkpt>
      <trkpt lat="44.49677" lon="3.08503">
        <ele>969.63</ele>
        <time>2012-06-02T12:36:30Z</time>
      </trkpt>
      <trkpt lat="44.49684" lon="3.08512">
        <ele>967.22</ele>
        <time>2012-06-02T12:36:41Z</time>
      </trkpt>
      <trkpt lat="44.49689" lon="3.08519">
        <ele>966.26</ele>
        <time>2012-06-02T12:36:50Z</time>
      </trkpt>
      <trkpt lat="44.49695" lon="3.08531">
        <ele>965.3</ele>
        <time>2012-06-02T12:37:00Z</time>
      </trkpt>
      <trkpt lat="44.49702" lon="3.08543">
        <ele>963.86</ele>
        <time>2012-06-02T12:37:10Z</time>
      </trkpt>
      <trkpt lat="44.49707" lon="3.08555">
        <ele>962.42</ele>
        <time>2012-06-02T12:37:19Z</time>
      </trkpt>
      <trkpt lat="44.4971" lon="3.08569">
        <ele>960.98</ele>
        <time>2012-06-02T12:37:29Z</time>
      </trkpt>
      <trkpt lat="44.49713" lon="3.08584">
        <ele>960.49</ele>
        <time>2012-06-02T12:37:40Z</time>
      </trkpt>
      <trkpt lat="44.49713" lon="3.086">
        <ele>959.05</ele>
        <time>2012-06-02T12:37:52Z</time>
      </trkpt>
      <trkpt lat="44.49709" lon="3.08615">
        <ele>957.13</ele>
        <time>2012-06-02T12:38:06Z</time>
      </trkpt>
      <trkpt lat="44.49704" lon="3.08632">
        <ele>956.17</ele>
        <time>2012-06-02T12:38:18Z</time>
      </trkpt>
      <trkpt lat="44.49698" lon="3.08648">
        <ele>955.21</ele>
        <time>2012-06-02T12:38:29Z</time>
      </trkpt>
      <trkpt lat="44.49693" lon="3.08665">
        <ele>953.77</ele>
        <time>2012-06-02T12:38:42Z</time>
      </trkpt>
      <trkpt lat="44.49691" lon="3.0868">
        <ele>952.32</ele>
        <time>2012-06-02T12:38:56Z</time>
      </trkpt>
      <trkpt lat="44.49702" lon="3.08681">
        <ele>949.92</ele>
        <time>2012-06-02T12:39:11Z</time>
      </trkpt>
      <trkpt lat="44.49713" lon="3.08674">
        <ele>948</ele>
        <time>2012-06-02T12:39:26Z</time>
      </trkpt>
      <trkpt lat="44.49723" lon="3.08667">
        <ele>947.04</ele>
        <time>2012-06-02T12:39:37Z</time>
      </trkpt>
      <trkpt lat="44.49735" lon="3.08648">
        <ele>943.67</ele>
        <time>2012-06-02T12:39:53Z</time>
      </trkpt>
      <trkpt lat="44.49745" lon="3.08637">
        <ele>942.71</ele>
        <time>2012-06-02T12:40:04Z</time>
      </trkpt>
      <trkpt lat="44.49753" lon="3.08623">
        <ele>942.23</ele>
        <time>2012-06-02T12:40:15Z</time>
      </trkpt>
      <trkpt lat="44.49762" lon="3.08611">
        <ele>941.75</ele>
        <time>2012-06-02T12:40:25Z</time>
      </trkpt>
      <trkpt lat="44.49769" lon="3.08597">
        <ele>941.27</ele>
        <time>2012-06-02T12:40:36Z</time>
      </trkpt>
      <trkpt lat="44.49777" lon="3.08585">
        <ele>940.31</ele>
        <time>2012-06-02T12:40:48Z</time>
      </trkpt>
      <trkpt lat="44.49782" lon="3.08572">
        <ele>940.31</ele>
        <time>2012-06-02T12:40:57Z</time>
      </trkpt>
      <trkpt lat="44.4979" lon="3.08558">
        <ele>939.35</ele>
        <time>2012-06-02T12:41:09Z</time>
      </trkpt>
      <trkpt lat="44.49803" lon="3.08557">
        <ele>938.86</ele>
        <time>2012-06-02T12:41:18Z</time>
      </trkpt>
      <trkpt lat="44.49816" lon="3.08557">
        <ele>939.83</ele>
        <time>2012-06-02T12:41:28Z</time>
      </trkpt>
      <trkpt lat="44.4983" lon="3.08551">
        <ele>940.31</ele>
        <time>2012-06-02T12:41:43Z</time>
      </trkpt>
      <trkpt lat="44.4985" lon="3.08543">
        <ele>941.27</ele>
        <time>2012-06-02T12:41:59Z</time>
      </trkpt>
      <trkpt lat="44.49862" lon="3.0854">
        <ele>942.23</ele>
        <time>2012-06-02T12:42:13Z</time>
      </trkpt>
      <trkpt lat="44.49877" lon="3.08536">
        <ele>942.71</ele>
        <time>2012-06-02T12:42:31Z</time>
      </trkpt>
      <trkpt lat="44.4989" lon="3.08529">
        <ele>944.63</ele>
        <time>2012-06-02T12:42:42Z</time>
      </trkpt>
      <trkpt lat="44.49906" lon="3.08524">
        <ele>945.11</ele>
        <time>2012-06-02T12:43:01Z</time>
      </trkpt>
      <trkpt lat="44.49929" lon="3.08511">
        <ele>948</ele>
        <time>2012-06-02T12:43:28Z</time>
      </trkpt>
      <trkpt lat="44.49944" lon="3.08498">
        <ele>948</ele>
        <time>2012-06-02T12:43:46Z</time>
      </trkpt>
      <trkpt lat="44.49963" lon="3.08486">
        <ele>948</ele>
        <time>2012-06-02T12:43:56Z</time>
      </trkpt>
      <trkpt lat="44.49975" lon="3.08478">
        <ele>948</ele>
        <time>2012-06-02T12:44:05Z</time>
      </trkpt>
      <trkpt lat="44.49986" lon="3.08473">
        <ele>948.48</ele>
        <time>2012-06-02T12:44:14Z</time>
      </trkpt>
      <trkpt lat="44.49997" lon="3.08466">
        <ele>948</ele>
        <time>2012-06-02T12:44:24Z</time>
      </trkpt>
      <trkpt lat="44.50009" lon="3.08461">
        <ele>947.52</ele>
        <time>2012-06-02T12:44:34Z</time>
      </trkpt>
      <trkpt lat="44.5002" lon="3.08457">
        <ele>947.04</ele>
        <time>2012-06-02T12:44:42Z</time>
      </trkpt>
      <trkpt lat="44.50031" lon="3.08457">
        <ele>948.48</ele>
        <time>2012-06-02T12:44:56Z</time>
      </trkpt>
      <trkpt lat="44.50044" lon="3.08457">
        <ele>948.96</ele>
        <time>2012-06-02T12:45:08Z</time>
      </trkpt>
      <trkpt lat="44.5006" lon="3.08458">
        <ele>949.92</ele>
        <time>2012-06-02T12:45:22Z</time>
      </trkpt>
      <trkpt lat="44.50075" lon="3.08455">
        <ele>949.92</ele>
        <time>2012-06-02T12:45:33Z</time>
      </trkpt>
      <trkpt lat="44.50086" lon="3.0845">
        <ele>948.96</ele>
        <time>2012-06-02T12:45:47Z</time>
      </trkpt>
      <trkpt lat="44.501" lon="3.08449">
        <ele>948.96</ele>
        <time>2012-06-02T12:46:12Z</time>
      </trkpt>
      <trkpt lat="44.50107" lon="3.08455">
        <ele>948.96</ele>
        <time>2012-06-02T12:48:24Z</time>
      </trkpt>
      <trkpt lat="44.50106" lon="3.08471">
        <ele>949.92</ele>
        <time>2012-06-02T12:48:36Z</time>
      </trkpt>
      <trkpt lat="44.50101" lon="3.08488">
        <ele>951.36</ele>
        <time>2012-06-02T12:48:45Z</time>
      </trkpt>
      <trkpt lat="44.50094" lon="3.08507">
        <ele>952.32</ele>
        <time>2012-06-02T12:48:59Z</time>
      </trkpt>
      <trkpt lat="44.50083" lon="3.0852">
        <ele>954.73</ele>
        <time>2012-06-02T12:49:16Z</time>
      </trkpt>
      <trkpt lat="44.50072" lon="3.08532">
        <ele>956.17</ele>
        <time>2012-06-02T12:49:33Z</time>
      </trkpt>
      <trkpt lat="44.5006" lon="3.08538">
        <ele>957.61</ele>
        <time>2012-06-02T12:49:45Z</time>
      </trkpt>
      <trkpt lat="44.50052" lon="3.08545">
        <ele>957.61</ele>
        <time>2012-06-02T12:49:55Z</time>
      </trkpt>
      <trkpt lat="44.50045" lon="3.08555">
        <ele>958.09</ele>
        <time>2012-06-02T12:50:06Z</time>
      </trkpt>
      <trkpt lat="44.50037" lon="3.08564">
        <ele>960.01</ele>
        <time>2012-06-02T12:50:16Z</time>
      </trkpt>
      <trkpt lat="44.50029" lon="3.08575">
        <ele>960.49</ele>
        <time>2012-06-02T12:50:26Z</time>
      </trkpt>
      <trkpt lat="44.50021" lon="3.08585">
        <ele>960.98</ele>
        <time>2012-06-02T12:50:36Z</time>
      </trkpt>
      <trkpt lat="44.50015" lon="3.08594">
        <ele>961.94</ele>
        <time>2012-06-02T12:50:45Z</time>
      </trkpt>
      <trkpt lat="44.5001" lon="3.08605">
        <ele>963.38</ele>
        <time>2012-06-02T12:50:54Z</time>
      </trkpt>
      <trkpt lat="44.50004" lon="3.08615">
        <ele>962.9</ele>
        <time>2012-06-02T12:51:03Z</time>
      </trkpt>
      <trkpt lat="44.49997" lon="3.08625">
        <ele>963.86</ele>
        <time>2012-06-02T12:51:14Z</time>
      </trkpt>
      <trkpt lat="44.4999" lon="3.08636">
        <ele>964.82</ele>
        <time>2012-06-02T12:51:25Z</time>
      </trkpt>
      <trkpt lat="44.49983" lon="3.08647">
        <ele>965.78</ele>
        <time>2012-06-02T12:51:35Z</time>
      </trkpt>
      <trkpt lat="44.49974" lon="3.08657">
        <ele>966.74</ele>
        <time>2012-06-02T12:51:46Z</time>
      </trkpt>
      <trkpt lat="44.49968" lon="3.08667">
        <ele>967.22</ele>
        <time>2012-06-02T12:51:56Z</time>
      </trkpt>
      <trkpt lat="44.49961" lon="3.08678">
        <ele>967.7</ele>
        <time>2012-06-02T12:52:06Z</time>
      </trkpt>
      <trkpt lat="44.49955" lon="3.08688">
        <ele>968.18</ele>
        <time>2012-06-02T12:52:15Z</time>
      </trkpt>
      <trkpt lat="44.49949" lon="3.08697">
        <ele>968.67</ele>
        <time>2012-06-02T12:52:23Z</time>
      </trkpt>
      <trkpt lat="44.49943" lon="3.08708">
        <ele>968.67</ele>
        <time>2012-06-02T12:52:31Z</time>
      </trkpt>
      <trkpt lat="44.49937" lon="3.08721">
        <ele>969.63</ele>
        <time>2012-06-02T12:52:40Z</time>
      </trkpt>
      <trkpt lat="44.49933" lon="3.08735">
        <ele>969.63</ele>
        <time>2012-06-02T12:52:49Z</time>
      </trkpt>
      <trkpt lat="44.49929" lon="3.08747">
        <ele>970.11</ele>
        <time>2012-06-02T12:52:57Z</time>
      </trkpt>
      <trkpt lat="44.49925" lon="3.08762">
        <ele>969.63</ele>
        <time>2012-06-02T12:53:07Z</time>
      </trkpt>
      <trkpt lat="44.49923" lon="3.08777">
        <ele>971.07</ele>
        <time>2012-06-02T12:53:17Z</time>
      </trkpt>
      <trkpt lat="44.49921" lon="3.08793">
        <ele>971.55</ele>
        <time>2012-06-02T12:53:28Z</time>
      </trkpt>
      <trkpt lat="44.4992" lon="3.08806">
        <ele>972.51</ele>
        <time>2012-06-02T12:53:37Z</time>
      </trkpt>
      <trkpt lat="44.49919" lon="3.08822">
        <ele>972.51</ele>
        <time>2012-06-02T12:53:48Z</time>
      </trkpt>
      <trkpt lat="44.49922" lon="3.08836">
        <ele>973.95</ele>
        <time>2012-06-02T12:53:58Z</time>
      </trkpt>
      <trkpt lat="44.49923" lon="3.08852">
        <ele>974.91</ele>
        <time>2012-06-02T12:54:08Z</time>
      </trkpt>
      <trkpt lat="44.49927" lon="3.08868">
        <ele>975.39</ele>
        <time>2012-06-02T12:54:21Z</time>
      </trkpt>
      <trkpt lat="44.49931" lon="3.08883">
        <ele>976.36</ele>
        <time>2012-06-02T12:54:31Z</time>
      </trkpt>
      <trkpt lat="44.49935" lon="3.089">
        <ele>975.88</ele>
        <time>2012-06-02T12:54:41Z</time>
      </trkpt>
      <trkpt lat="44.49938" lon="3.08916">
        <ele>977.32</ele>
        <time>2012-06-02T12:54:52Z</time>
      </trkpt>
      <trkpt lat="44.49943" lon="3.08931">
        <ele>977.32</ele>
        <time>2012-06-02T12:55:03Z</time>
      </trkpt>
      <trkpt lat="44.49946" lon="3.08945">
        <ele>976.84</ele>
        <time>2012-06-02T12:55:31Z</time>
      </trkpt>
      <trkpt lat="44.49952" lon="3.08957">
        <ele>976.84</ele>
        <time>2012-06-02T12:55:41Z</time>
      </trkpt>
      <trkpt lat="44.49956" lon="3.0897">
        <ele>976.84</ele>
        <time>2012-06-02T12:55:51Z</time>
      </trkpt>
      <trkpt lat="44.49961" lon="3.08983">
        <ele>977.32</ele>
        <time>2012-06-02T12:56:08Z</time>
      </trkpt>
      <trkpt lat="44.49965" lon="3.08999">
        <ele>977.8</ele>
        <time>2012-06-02T12:56:18Z</time>
      </trkpt>
      <trkpt lat="44.49972" lon="3.09011">
        <ele>977.8</ele>
        <time>2012-06-02T12:56:28Z</time>
      </trkpt>
      <trkpt lat="44.49981" lon="3.09021">
        <ele>978.76</ele>
        <time>2012-06-02T12:56:42Z</time>
      </trkpt>
      <trkpt lat="44.49986" lon="3.09037">
        <ele>979.72</ele>
        <time>2012-06-02T12:56:54Z</time>
      </trkpt>
      <trkpt lat="44.49996" lon="3.09053">
        <ele>980.2</ele>
        <time>2012-06-02T12:57:05Z</time>
      </trkpt>
      <trkpt lat="44.50003" lon="3.09065">
        <ele>981.64</ele>
        <time>2012-06-02T12:57:17Z</time>
      </trkpt>
      <trkpt lat="44.50011" lon="3.0908">
        <ele>983.09</ele>
        <time>2012-06-02T12:57:29Z</time>
      </trkpt>
      <trkpt lat="44.50017" lon="3.09093">
        <ele>983.09</ele>
        <time>2012-06-02T12:57:39Z</time>
      </trkpt>
      <trkpt lat="44.50021" lon="3.0911">
        <ele>984.05</ele>
        <time>2012-06-02T12:57:50Z</time>
      </trkpt>
      <trkpt lat="44.50023" lon="3.09131">
        <ele>986.45</ele>
        <time>2012-06-02T12:58:03Z</time>
      </trkpt>
      <trkpt lat="44.50025" lon="3.0915">
        <ele>985.97</ele>
        <time>2012-06-02T12:58:26Z</time>
      </trkpt>
      <trkpt lat="44.50026" lon="3.0917">
        <ele>986.93</ele>
        <time>2012-06-02T12:58:39Z</time>
      </trkpt>
      <trkpt lat="44.50026" lon="3.09189">
        <ele>986.93</ele>
        <time>2012-06-02T12:58:51Z</time>
      </trkpt>
      <trkpt lat="44.50024" lon="3.09209">
        <ele>986.93</ele>
        <time>2012-06-02T12:59:06Z</time>
      </trkpt>
      <trkpt lat="44.50026" lon="3.09229">
        <ele>987.41</ele>
        <time>2012-06-02T12:59:21Z</time>
      </trkpt>
      <trkpt lat="44.50027" lon="3.0925">
        <ele>987.89</ele>
        <time>2012-06-02T12:59:34Z</time>
      </trkpt>
      <trkpt lat="44.50028" lon="3.09268">
        <ele>988.85</ele>
        <time>2012-06-02T12:59:44Z</time>
      </trkpt>
      <trkpt lat="44.50027" lon="3.0927">
        <ele>988.37</ele>
        <time>2012-06-02T12:59:56Z</time>
      </trkpt>
      <trkpt lat="44.50025" lon="3.09257">
        <ele>988.37</ele>
        <time>2012-06-02T13:00:07Z</time>
      </trkpt>
      <trkpt lat="44.50026" lon="3.09246">
        <ele>987.41</ele>
        <time>2012-06-02T13:00:31Z</time>
      </trkpt>
      <trkpt lat="44.50036" lon="3.09246">
        <ele>989.33</ele>
        <time>2012-06-02T13:00:52Z</time>
      </trkpt>
      <trkpt lat="44.50046" lon="3.09251">
        <ele>991.26</ele>
        <time>2012-06-02T13:01:19Z</time>
      </trkpt>
      <trkpt lat="44.50057" lon="3.09257">
        <ele>993.66</ele>
        <time>2012-06-02T13:01:52Z</time>
      </trkpt>
      <trkpt lat="44.50068" lon="3.09256">
        <ele>995.1</ele>
        <time>2012-06-02T13:02:55Z</time>
      </trkpt>
      <trkpt lat="44.50078" lon="3.09255">
        <ele>996.06</ele>
        <time>2012-06-02T13:03:06Z</time>
      </trkpt>
      <trkpt lat="44.5009" lon="3.09259">
        <ele>997.51</ele>
        <time>2012-06-02T13:03:17Z</time>
      </trkpt>
      <trkpt lat="44.50099" lon="3.09264">
        <ele>999.43</ele>
        <time>2012-06-02T13:03:28Z</time>
      </trkpt>
      <trkpt lat="44.5011" lon="3.09268">
        <ele>1000.39</ele>
        <time>2012-06-02T13:03:39Z</time>
      </trkpt>
      <trkpt lat="44.5012" lon="3.09271">
        <ele>1001.35</ele>
        <time>2012-06-02T13:03:49Z</time>
      </trkpt>
      <trkpt lat="44.50131" lon="3.09272">
        <ele>1002.79</ele>
        <time>2012-06-02T13:04:01Z</time>
      </trkpt>
      <trkpt lat="44.50141" lon="3.0927">
        <ele>1004.72</ele>
        <time>2012-06-02T13:04:15Z</time>
      </trkpt>
      <trkpt lat="44.50151" lon="3.09266">
        <ele>1005.68</ele>
        <time>2012-06-02T13:04:25Z</time>
      </trkpt>
      <trkpt lat="44.5016" lon="3.09259">
        <ele>1007.12</ele>
        <time>2012-06-02T13:04:36Z</time>
      </trkpt>
      <trkpt lat="44.5017" lon="3.09252">
        <ele>1008.08</ele>
        <time>2012-06-02T13:04:46Z</time>
      </trkpt>
      <trkpt lat="44.50178" lon="3.09244">
        <ele>1010</ele>
        <time>2012-06-02T13:04:56Z</time>
      </trkpt>
      <trkpt lat="44.50187" lon="3.09239">
        <ele>1010.96</ele>
        <time>2012-06-02T13:05:05Z</time>
      </trkpt>
      <trkpt lat="44.50195" lon="3.09233">
        <ele>1012.41</ele>
        <time>2012-06-02T13:05:14Z</time>
      </trkpt>
      <trkpt lat="44.50205" lon="3.09227">
        <ele>1013.85</ele>
        <time>2012-06-02T13:05:24Z</time>
      </trkpt>
      <trkpt lat="44.50215" lon="3.09221">
        <ele>1015.29</ele>
        <time>2012-06-02T13:05:35Z</time>
      </trkpt>
      <trkpt lat="44.50224" lon="3.09215">
        <ele>1015.29</ele>
        <time>2012-06-02T13:05:43Z</time>
      </trkpt>
      <trkpt lat="44.50232" lon="3.09211">
        <ele>1016.73</ele>
        <time>2012-06-02T13:05:49Z</time>
      </trkpt>
      <trkpt lat="44.50239" lon="3.09206">
        <ele>1017.21</ele>
        <time>2012-06-02T13:05:57Z</time>
      </trkpt>
      <trkpt lat="44.50243" lon="3.09201">
        <ele>1018.65</ele>
        <time>2012-06-02T13:09:46Z</time>
      </trkpt>
      <trkpt lat="44.50251" lon="3.09194">
        <ele>1020.1</ele>
        <time>2012-06-02T13:09:58Z</time>
      </trkpt>
      <trkpt lat="44.50259" lon="3.09186">
        <ele>1021.06</ele>
        <time>2012-06-02T13:10:07Z</time>
      </trkpt>
      <trkpt lat="44.50267" lon="3.0918">
        <ele>1022.5</ele>
        <time>2012-06-02T13:10:16Z</time>
      </trkpt>
      <trkpt lat="44.50275" lon="3.09172">
        <ele>1022.98</ele>
        <time>2012-06-02T13:10:25Z</time>
      </trkpt>
      <trkpt lat="44.50283" lon="3.09164">
        <ele>1024.9</ele>
        <time>2012-06-02T13:10:35Z</time>
      </trkpt>
      <trkpt lat="44.50291" lon="3.09156">
        <ele>1026.34</ele>
        <time>2012-06-02T13:10:45Z</time>
      </trkpt>
      <trkpt lat="44.50299" lon="3.09147">
        <ele>1027.31</ele>
        <time>2012-06-02T13:10:55Z</time>
      </trkpt>
      <trkpt lat="44.50306" lon="3.09139">
        <ele>1027.31</ele>
        <time>2012-06-02T13:11:04Z</time>
      </trkpt>
      <trkpt lat="44.50314" lon="3.0913">
        <ele>1028.75</ele>
        <time>2012-06-02T13:11:14Z</time>
      </trkpt>
      <trkpt lat="44.50321" lon="3.09119">
        <ele>1030.19</ele>
        <time>2012-06-02T13:11:24Z</time>
      </trkpt>
      <trkpt lat="44.50329" lon="3.09109">
        <ele>1030.67</ele>
        <time>2012-06-02T13:11:34Z</time>
      </trkpt>
      <trkpt lat="44.50337" lon="3.091">
        <ele>1032.59</ele>
        <time>2012-06-02T13:11:44Z</time>
      </trkpt>
      <trkpt lat="44.50345" lon="3.0909">
        <ele>1032.11</ele>
        <time>2012-06-02T13:11:54Z</time>
      </trkpt>
      <trkpt lat="44.50352" lon="3.09079">
        <ele>1033.07</ele>
        <time>2012-06-02T13:12:04Z</time>
      </trkpt>
      <trkpt lat="44.50359" lon="3.09069">
        <ele>1034.04</ele>
        <time>2012-06-02T13:12:13Z</time>
      </trkpt>
      <trkpt lat="44.50366" lon="3.09059">
        <ele>1035.48</ele>
        <time>2012-06-02T13:12:22Z</time>
      </trkpt>
      <trkpt lat="44.50374" lon="3.0905">
        <ele>1036.44</ele>
        <time>2012-06-02T13:12:31Z</time>
      </trkpt>
      <trkpt lat="44.50382" lon="3.09039">
        <ele>1036.44</ele>
        <time>2012-06-02T13:12:40Z</time>
      </trkpt>
      <trkpt lat="44.5039" lon="3.0903">
        <ele>1037.4</ele>
        <time>2012-06-02T13:12:49Z</time>
      </trkpt>
      <trkpt lat="44.50397" lon="3.09022">
        <ele>1037.88</ele>
        <time>2012-06-02T13:12:59Z</time>
      </trkpt>
      <trkpt lat="44.50405" lon="3.09014">
        <ele>1038.36</ele>
        <time>2012-06-02T13:13:08Z</time>
      </trkpt>
      <trkpt lat="44.50414" lon="3.09006">
        <ele>1039.8</ele>
        <time>2012-06-02T13:13:17Z</time>
      </trkpt>
      <trkpt lat="44.50422" lon="3.08998">
        <ele>1040.76</ele>
        <time>2012-06-02T13:13:26Z</time>
      </trkpt>
      <trkpt lat="44.5043" lon="3.08993">
        <ele>1040.76</ele>
        <time>2012-06-02T13:13:36Z</time>
      </trkpt>
      <trkpt lat="44.50438" lon="3.08985">
        <ele>1041.25</ele>
        <time>2012-06-02T13:13:45Z</time>
      </trkpt>
      <trkpt lat="44.50446" lon="3.08977">
        <ele>1041.73</ele>
        <time>2012-06-02T13:13:53Z</time>
      </trkpt>
      <trkpt lat="44.50455" lon="3.08971">
        <ele>1041.73</ele>
        <time>2012-06-02T13:14:01Z</time>
      </trkpt>
      <trkpt lat="44.50464" lon="3.08964">
        <ele>1042.21</ele>
        <time>2012-06-02T13:14:09Z</time>
      </trkpt>
      <trkpt lat="44.50472" lon="3.08957">
        <ele>1043.17</ele>
        <time>2012-06-02T13:14:17Z</time>
      </trkpt>
      <trkpt lat="44.5048" lon="3.0895">
        <ele>1043.65</ele>
        <time>2012-06-02T13:14:25Z</time>
      </trkpt>
      <trkpt lat="44.50489" lon="3.08942">
        <ele>1043.65</ele>
        <time>2012-06-02T13:14:33Z</time>
      </trkpt>
      <trkpt lat="44.50498" lon="3.08936">
        <ele>1043.65</ele>
        <time>2012-06-02T13:14:42Z</time>
      </trkpt>
      <trkpt lat="44.50507" lon="3.08931">
        <ele>1045.09</ele>
        <time>2012-06-02T13:14:50Z</time>
      </trkpt>
      <trkpt lat="44.50517" lon="3.08927">
        <ele>1045.09</ele>
        <time>2012-06-02T13:14:58Z</time>
      </trkpt>
      <trkpt lat="44.50526" lon="3.08924">
        <ele>1045.57</ele>
        <time>2012-06-02T13:15:05Z</time>
      </trkpt>
      <trkpt lat="44.50535" lon="3.08921">
        <ele>1045.57</ele>
        <time>2012-06-02T13:15:13Z</time>
      </trkpt>
      <trkpt lat="44.50544" lon="3.08919">
        <ele>1046.53</ele>
        <time>2012-06-02T13:15:21Z</time>
      </trkpt>
      <trkpt lat="44.50554" lon="3.08917">
        <ele>1046.53</ele>
        <time>2012-06-02T13:15:29Z</time>
      </trkpt>
      <trkpt lat="44.50563" lon="3.08914">
        <ele>1047.01</ele>
        <time>2012-06-02T13:15:36Z</time>
      </trkpt>
      <trkpt lat="44.50572" lon="3.08912">
        <ele>1047.97</ele>
        <time>2012-06-02T13:15:43Z</time>
      </trkpt>
      <trkpt lat="44.50581" lon="3.08909">
        <ele>1048.45</ele>
        <time>2012-06-02T13:15:51Z</time>
      </trkpt>
      <trkpt lat="44.5059" lon="3.08906">
        <ele>1048.94</ele>
        <time>2012-06-02T13:15:58Z</time>
      </trkpt>
      <trkpt lat="44.50599" lon="3.08903">
        <ele>1048.94</ele>
        <time>2012-06-02T13:16:06Z</time>
      </trkpt>
      <trkpt lat="44.50608" lon="3.08899">
        <ele>1049.9</ele>
        <time>2012-06-02T13:16:14Z</time>
      </trkpt>
      <trkpt lat="44.50616" lon="3.08896">
        <ele>1050.38</ele>
        <time>2012-06-02T13:16:21Z</time>
      </trkpt>
      <trkpt lat="44.50624" lon="3.08892">
        <ele>1050.86</ele>
        <time>2012-06-02T13:16:29Z</time>
      </trkpt>
      <trkpt lat="44.50634" lon="3.08887">
        <ele>1051.34</ele>
        <time>2012-06-02T13:16:38Z</time>
      </trkpt>
      <trkpt lat="44.50643" lon="3.08883">
        <ele>1051.82</ele>
        <time>2012-06-02T13:16:46Z</time>
      </trkpt>
      <trkpt lat="44.50653" lon="3.0888">
        <ele>1052.3</ele>
        <time>2012-06-02T13:16:54Z</time>
      </trkpt>
      <trkpt lat="44.50662" lon="3.08876">
        <ele>1052.78</ele>
        <time>2012-06-02T13:17:01Z</time>
      </trkpt>
      <trkpt lat="44.5067" lon="3.08872">
        <ele>1052.78</ele>
        <time>2012-06-02T13:17:08Z</time>
      </trkpt>
      <trkpt lat="44.50678" lon="3.08868">
        <ele>1053.74</ele>
        <time>2012-06-02T13:17:15Z</time>
      </trkpt>
      <trkpt lat="44.50686" lon="3.08864">
        <ele>1053.74</ele>
        <time>2012-06-02T13:17:23Z</time>
      </trkpt>
      <trkpt lat="44.50695" lon="3.08859">
        <ele>1054.22</ele>
        <time>2012-06-02T13:17:33Z</time>
      </trkpt>
      <trkpt lat="44.50704" lon="3.08854">
        <ele>1055.67</ele>
        <time>2012-06-02T13:17:41Z</time>
      </trkpt>
      <trkpt lat="44.50712" lon="3.0885">
        <ele>1056.15</ele>
        <time>2012-06-02T13:17:49Z</time>
      </trkpt>
      <trkpt lat="44.50722" lon="3.08846">
        <ele>1056.63</ele>
        <time>2012-06-02T13:17:58Z</time>
      </trkpt>
      <trkpt lat="44.50731" lon="3.08841">
        <ele>1057.59</ele>
        <time>2012-06-02T13:18:07Z</time>
      </trkpt>
      <trkpt lat="44.50741" lon="3.08836">
        <ele>1059.03</ele>
        <time>2012-06-02T13:18:16Z</time>
      </trkpt>
      <trkpt lat="44.5075" lon="3.08831">
        <ele>1059.99</ele>
        <time>2012-06-02T13:18:25Z</time>
      </trkpt>
      <trkpt lat="44.50758" lon="3.08827">
        <ele>1060.47</ele>
        <time>2012-06-02T13:18:33Z</time>
      </trkpt>
      <trkpt lat="44.50768" lon="3.08824">
        <ele>1061.91</ele>
        <time>2012-06-02T13:18:42Z</time>
      </trkpt>
      <trkpt lat="44.50779" lon="3.0882">
        <ele>1062.87</ele>
        <time>2012-06-02T13:18:51Z</time>
      </trkpt>
      <trkpt lat="44.50788" lon="3.08816">
        <ele>1064.32</ele>
        <time>2012-06-02T13:19:00Z</time>
      </trkpt>
      <trkpt lat="44.50798" lon="3.08812">
        <ele>1065.28</ele>
        <time>2012-06-02T13:19:08Z</time>
      </trkpt>
      <trkpt lat="44.50807" lon="3.08809">
        <ele>1066.24</ele>
        <time>2012-06-02T13:19:17Z</time>
      </trkpt>
      <trkpt lat="44.50818" lon="3.08807">
        <ele>1066.24</ele>
        <time>2012-06-02T13:19:26Z</time>
      </trkpt>
      <trkpt lat="44.50828" lon="3.08806">
        <ele>1068.64</ele>
        <time>2012-06-02T13:19:35Z</time>
      </trkpt>
      <trkpt lat="44.50839" lon="3.08804">
        <ele>1069.6</ele>
        <time>2012-06-02T13:19:44Z</time>
      </trkpt>
      <trkpt lat="44.50849" lon="3.08805">
        <ele>1071.05</ele>
        <time>2012-06-02T13:20:05Z</time>
      </trkpt>
      <trkpt lat="44.50848" lon="3.088">
        <ele>1071.53</ele>
        <time>2012-06-02T13:20:58Z</time>
      </trkpt>
      <trkpt lat="44.50848" lon="3.08813">
        <ele>1071.53</ele>
        <time>2012-06-02T13:23:15Z</time>
      </trkpt>
      <trkpt lat="44.50841" lon="3.08826">
        <ele>1071.05</ele>
        <time>2012-06-02T13:23:46Z</time>
      </trkpt>
      <trkpt lat="44.50838" lon="3.08846">
        <ele>1071.05</ele>
        <time>2012-06-02T13:24:17Z</time>
      </trkpt>
      <trkpt lat="44.5084" lon="3.08843">
        <ele>1077.29</ele>
        <time>2012-06-02T13:48:44Z</time>
      </trkpt>
      <trkpt lat="44.50836" lon="3.0883">
        <ele>1076.81</ele>
        <time>2012-06-02T13:49:06Z</time>
      </trkpt>
      <trkpt lat="44.50842" lon="3.08821">
        <ele>1076.81</ele>
        <time>2012-06-02T13:49:24Z</time>
      </trkpt>
      <trkpt lat="44.50846" lon="3.08808">
        <ele>1078.26</ele>
        <time>2012-06-02T13:49:43Z</time>
      </trkpt>
      <trkpt lat="44.50851" lon="3.08803">
        <ele>1077.78</ele>
        <time>2012-06-02T13:50:37Z</time>
      </trkpt>
      <trkpt lat="44.50861" lon="3.08806">
        <ele>1078.74</ele>
        <time>2012-06-02T13:50:46Z</time>
      </trkpt>
      <trkpt lat="44.50872" lon="3.08807">
        <ele>1079.7</ele>
        <time>2012-06-02T13:50:55Z</time>
      </trkpt>
      <trkpt lat="44.50883" lon="3.08807">
        <ele>1080.66</ele>
        <time>2012-06-02T13:51:04Z</time>
      </trkpt>
      <trkpt lat="44.50893" lon="3.08808">
        <ele>1081.62</ele>
        <time>2012-06-02T13:51:12Z</time>
      </trkpt>
      <trkpt lat="44.50902" lon="3.08809">
        <ele>1081.62</ele>
        <time>2012-06-02T13:51:21Z</time>
      </trkpt>
      <trkpt lat="44.50911" lon="3.0881">
        <ele>1082.58</ele>
        <time>2012-06-02T13:51:29Z</time>
      </trkpt>
      <trkpt lat="44.50921" lon="3.08809">
        <ele>1082.58</ele>
        <time>2012-06-02T13:51:38Z</time>
      </trkpt>
      <trkpt lat="44.5093" lon="3.08807">
        <ele>1083.54</ele>
        <time>2012-06-02T13:51:46Z</time>
      </trkpt>
      <trkpt lat="44.50939" lon="3.08807">
        <ele>1084.02</ele>
        <time>2012-06-02T13:51:55Z</time>
      </trkpt>
      <trkpt lat="44.50948" lon="3.08804">
        <ele>1083.54</ele>
        <time>2012-06-02T13:52:04Z</time>
      </trkpt>
      <trkpt lat="44.50959" lon="3.08804">
        <ele>1084.02</ele>
        <time>2012-06-02T13:52:13Z</time>
      </trkpt>
      <trkpt lat="44.50969" lon="3.08803">
        <ele>1085.47</ele>
        <time>2012-06-02T13:52:23Z</time>
      </trkpt>
      <trkpt lat="44.50979" lon="3.08803">
        <ele>1085.47</ele>
        <time>2012-06-02T13:52:32Z</time>
      </trkpt>
      <trkpt lat="44.50988" lon="3.08805">
        <ele>1085.47</ele>
        <time>2012-06-02T13:52:55Z</time>
      </trkpt>
      <trkpt lat="44.50997" lon="3.0881">
        <ele>1085.95</ele>
        <time>2012-06-02T13:53:05Z</time>
      </trkpt>
      <trkpt lat="44.51006" lon="3.08814">
        <ele>1086.43</ele>
        <time>2012-06-02T13:53:14Z</time>
      </trkpt>
      <trkpt lat="44.51017" lon="3.08818">
        <ele>1086.91</ele>
        <time>2012-06-02T13:53:24Z</time>
      </trkpt>
      <trkpt lat="44.51026" lon="3.08824">
        <ele>1086.91</ele>
        <time>2012-06-02T13:53:34Z</time>
      </trkpt>
      <trkpt lat="44.51034" lon="3.0883">
        <ele>1086.91</ele>
        <time>2012-06-02T13:53:44Z</time>
      </trkpt>
      <trkpt lat="44.51044" lon="3.08835">
        <ele>1087.39</ele>
        <time>2012-06-02T13:53:54Z</time>
      </trkpt>
      <trkpt lat="44.51053" lon="3.0884">
        <ele>1087.87</ele>
        <time>2012-06-02T13:54:04Z</time>
      </trkpt>
      <trkpt lat="44.51061" lon="3.08846">
        <ele>1088.83</ele>
        <time>2012-06-02T13:54:14Z</time>
      </trkpt>
      <trkpt lat="44.51071" lon="3.08851">
        <ele>1088.83</ele>
        <time>2012-06-02T13:54:24Z</time>
      </trkpt>
      <trkpt lat="44.51081" lon="3.08855">
        <ele>1089.31</ele>
        <time>2012-06-02T13:54:32Z</time>
      </trkpt>
      <trkpt lat="44.51089" lon="3.0886">
        <ele>1089.79</ele>
        <time>2012-06-02T13:54:41Z</time>
      </trkpt>
      <trkpt lat="44.51099" lon="3.08865">
        <ele>1090.27</ele>
        <time>2012-06-02T13:54:50Z</time>
      </trkpt>
      <trkpt lat="44.51109" lon="3.08868">
        <ele>1090.27</ele>
        <time>2012-06-02T13:54:59Z</time>
      </trkpt>
      <trkpt lat="44.51119" lon="3.08871">
        <ele>1090.27</ele>
        <time>2012-06-02T13:55:08Z</time>
      </trkpt>
      <trkpt lat="44.51129" lon="3.08872">
        <ele>1090.75</ele>
        <time>2012-06-02T13:55:16Z</time>
      </trkpt>
      <trkpt lat="44.5114" lon="3.08873">
        <ele>1091.23</ele>
        <time>2012-06-02T13:55:25Z</time>
      </trkpt>
      <trkpt lat="44.5115" lon="3.08873">
        <ele>1091.23</ele>
        <time>2012-06-02T13:55:34Z</time>
      </trkpt>
      <trkpt lat="44.51159" lon="3.08872">
        <ele>1091.23</ele>
        <time>2012-06-02T13:55:42Z</time>
      </trkpt>
      <trkpt lat="44.5117" lon="3.08872">
        <ele>1091.23</ele>
        <time>2012-06-02T13:55:51Z</time>
      </trkpt>
      <trkpt lat="44.51179" lon="3.08872">
        <ele>1091.71</ele>
        <time>2012-06-02T13:55:59Z</time>
      </trkpt>
      <trkpt lat="44.51189" lon="3.08874">
        <ele>1091.71</ele>
        <time>2012-06-02T13:56:08Z</time>
      </trkpt>
      <trkpt lat="44.51199" lon="3.0888">
        <ele>1091.23</ele>
        <time>2012-06-02T13:56:18Z</time>
      </trkpt>
      <trkpt lat="44.51208" lon="3.08887">
        <ele>1091.71</ele>
        <time>2012-06-02T13:56:27Z</time>
      </trkpt>
      <trkpt lat="44.51216" lon="3.08895">
        <ele>1092.2</ele>
        <time>2012-06-02T13:56:36Z</time>
      </trkpt>
      <trkpt lat="44.51226" lon="3.08903">
        <ele>1093.16</ele>
        <time>2012-06-02T13:56:46Z</time>
      </trkpt>
      <trkpt lat="44.51234" lon="3.08911">
        <ele>1093.16</ele>
        <time>2012-06-02T13:56:55Z</time>
      </trkpt>
      <trkpt lat="44.51244" lon="3.08919">
        <ele>1094.12</ele>
        <time>2012-06-02T13:57:05Z</time>
      </trkpt>
      <trkpt lat="44.51253" lon="3.08929">
        <ele>1094.6</ele>
        <time>2012-06-02T13:57:16Z</time>
      </trkpt>
      <trkpt lat="44.51261" lon="3.08939">
        <ele>1094.6</ele>
        <time>2012-06-02T13:57:27Z</time>
      </trkpt>
      <trkpt lat="44.51272" lon="3.08947">
        <ele>1095.08</ele>
        <time>2012-06-02T13:57:39Z</time>
      </trkpt>
      <trkpt lat="44.51281" lon="3.08954">
        <ele>1096.04</ele>
        <time>2012-06-02T13:57:48Z</time>
      </trkpt>
      <trkpt lat="44.51291" lon="3.08959">
        <ele>1096.04</ele>
        <time>2012-06-02T13:57:57Z</time>
      </trkpt>
      <trkpt lat="44.513" lon="3.08964">
        <ele>1096.04</ele>
        <time>2012-06-02T13:58:05Z</time>
      </trkpt>
      <trkpt lat="44.5131" lon="3.08968">
        <ele>1096.52</ele>
        <time>2012-06-02T13:58:13Z</time>
      </trkpt>
      <trkpt lat="44.51319" lon="3.08968">
        <ele>1096.52</ele>
        <time>2012-06-02T13:58:21Z</time>
      </trkpt>
      <trkpt lat="44.51329" lon="3.08964">
        <ele>1096.52</ele>
        <time>2012-06-02T13:58:29Z</time>
      </trkpt>
      <trkpt lat="44.51338" lon="3.08962">
        <ele>1096.52</ele>
        <time>2012-06-02T13:58:37Z</time>
      </trkpt>
      <trkpt lat="44.51347" lon="3.08956">
        <ele>1096.52</ele>
        <time>2012-06-02T13:58:45Z</time>
      </trkpt>
      <trkpt lat="44.51355" lon="3.08948">
        <ele>1096.52</ele>
        <time>2012-06-02T13:58:53Z</time>
      </trkpt>
      <trkpt lat="44.51362" lon="3.08939">
        <ele>1096.52</ele>
        <time>2012-06-02T13:59:01Z</time>
      </trkpt>
      <trkpt lat="44.5137" lon="3.08928">
        <ele>1096.52</ele>
        <time>2012-06-02T13:59:10Z</time>
      </trkpt>
      <trkpt lat="44.51377" lon="3.08917">
        <ele>1096.52</ele>
        <time>2012-06-02T13:59:19Z</time>
      </trkpt>
      <trkpt lat="44.51384" lon="3.08908">
        <ele>1097.48</ele>
        <time>2012-06-02T13:59:27Z</time>
      </trkpt>
      <trkpt lat="44.51392" lon="3.08897">
        <ele>1097.48</ele>
        <time>2012-06-02T13:59:37Z</time>
      </trkpt>
      <trkpt lat="44.51401" lon="3.08886">
        <ele>1097.48</ele>
        <time>2012-06-02T13:59:47Z</time>
      </trkpt>
      <trkpt lat="44.51409" lon="3.08877">
        <ele>1097.48</ele>
        <time>2012-06-02T13:59:57Z</time>
      </trkpt>
      <trkpt lat="44.51418" lon="3.08869">
        <ele>1097</ele>
        <time>2012-06-02T14:00:06Z</time>
      </trkpt>
      <trkpt lat="44.51427" lon="3.0886">
        <ele>1097.48</ele>
        <time>2012-06-02T14:00:15Z</time>
      </trkpt>
      <trkpt lat="44.51436" lon="3.08855">
        <ele>1097</ele>
        <time>2012-06-02T14:00:22Z</time>
      </trkpt>
      <trkpt lat="44.51444" lon="3.08848">
        <ele>1097.96</ele>
        <time>2012-06-02T14:00:30Z</time>
      </trkpt>
      <trkpt lat="44.51452" lon="3.0884">
        <ele>1097.96</ele>
        <time>2012-06-02T14:00:39Z</time>
      </trkpt>
      <trkpt lat="44.5146" lon="3.08831">
        <ele>1098.44</ele>
        <time>2012-06-02T14:00:48Z</time>
      </trkpt>
      <trkpt lat="44.51469" lon="3.08823">
        <ele>1097.48</ele>
        <time>2012-06-02T14:00:56Z</time>
      </trkpt>
      <trkpt lat="44.51476" lon="3.08814">
        <ele>1097.96</ele>
        <time>2012-06-02T14:01:04Z</time>
      </trkpt>
      <trkpt lat="44.51483" lon="3.08804">
        <ele>1097.96</ele>
        <time>2012-06-02T14:01:13Z</time>
      </trkpt>
      <trkpt lat="44.51491" lon="3.08796">
        <ele>1097</ele>
        <time>2012-06-02T14:01:22Z</time>
      </trkpt>
      <trkpt lat="44.51499" lon="3.08787">
        <ele>1097.96</ele>
        <time>2012-06-02T14:01:31Z</time>
      </trkpt>
      <trkpt lat="44.51508" lon="3.08779">
        <ele>1097.96</ele>
        <time>2012-06-02T14:01:41Z</time>
      </trkpt>
      <trkpt lat="44.51515" lon="3.0877">
        <ele>1097.96</ele>
        <time>2012-06-02T14:01:49Z</time>
      </trkpt>
      <trkpt lat="44.51523" lon="3.08762">
        <ele>1098.44</ele>
        <time>2012-06-02T14:01:58Z</time>
      </trkpt>
      <trkpt lat="44.5153" lon="3.08753">
        <ele>1098.92</ele>
        <time>2012-06-02T14:02:07Z</time>
      </trkpt>
      <trkpt lat="44.51538" lon="3.08744">
        <ele>1098.44</ele>
        <time>2012-06-02T14:02:15Z</time>
      </trkpt>
      <trkpt lat="44.51546" lon="3.08734">
        <ele>1099.4</ele>
        <time>2012-06-02T14:02:23Z</time>
      </trkpt>
      <trkpt lat="44.51553" lon="3.08725">
        <ele>1099.4</ele>
        <time>2012-06-02T14:02:31Z</time>
      </trkpt>
      <trkpt lat="44.5156" lon="3.08717">
        <ele>1098.92</ele>
        <time>2012-06-02T14:02:39Z</time>
      </trkpt>
      <trkpt lat="44.51568" lon="3.08706">
        <ele>1098.92</ele>
        <time>2012-06-02T14:02:48Z</time>
      </trkpt>
      <trkpt lat="44.51575" lon="3.08698">
        <ele>1098.92</ele>
        <time>2012-06-02T14:02:56Z</time>
      </trkpt>
      <trkpt lat="44.51583" lon="3.0869">
        <ele>1099.4</ele>
        <time>2012-06-02T14:03:04Z</time>
      </trkpt>
      <trkpt lat="44.51591" lon="3.08682">
        <ele>1099.4</ele>
        <time>2012-06-02T14:03:15Z</time>
      </trkpt>
      <trkpt lat="44.51598" lon="3.08673">
        <ele>1099.89</ele>
        <time>2012-06-02T14:03:24Z</time>
      </trkpt>
      <trkpt lat="44.51605" lon="3.08663">
        <ele>1099.4</ele>
        <time>2012-06-02T14:03:32Z</time>
      </trkpt>
      <trkpt lat="44.51613" lon="3.08656">
        <ele>1100.37</ele>
        <time>2012-06-02T14:03:51Z</time>
      </trkpt>
      <trkpt lat="44.51621" lon="3.0865">
        <ele>1100.37</ele>
        <time>2012-06-02T14:03:59Z</time>
      </trkpt>
      <trkpt lat="44.51629" lon="3.08644">
        <ele>1099.89</ele>
        <time>2012-06-02T14:04:07Z</time>
      </trkpt>
      <trkpt lat="44.51637" lon="3.08638">
        <ele>1100.37</ele>
        <time>2012-06-02T14:04:15Z</time>
      </trkpt>
      <trkpt lat="44.51646" lon="3.08633">
        <ele>1100.37</ele>
        <time>2012-06-02T14:04:23Z</time>
      </trkpt>
      <trkpt lat="44.51655" lon="3.08628">
        <ele>1100.85</ele>
        <time>2012-06-02T14:04:31Z</time>
      </trkpt>
      <trkpt lat="44.51663" lon="3.08623">
        <ele>1101.33</ele>
        <time>2012-06-02T14:04:48Z</time>
      </trkpt>
      <trkpt lat="44.51673" lon="3.08619">
        <ele>1101.33</ele>
        <time>2012-06-02T14:04:57Z</time>
      </trkpt>
      <trkpt lat="44.51682" lon="3.08615">
        <ele>1100.85</ele>
        <time>2012-06-02T14:05:05Z</time>
      </trkpt>
      <trkpt lat="44.51691" lon="3.08611">
        <ele>1100.85</ele>
        <time>2012-06-02T14:05:13Z</time>
      </trkpt>
      <trkpt lat="44.51701" lon="3.08607">
        <ele>1101.33</ele>
        <time>2012-06-02T14:05:22Z</time>
      </trkpt>
      <trkpt lat="44.51709" lon="3.08603">
        <ele>1101.33</ele>
        <time>2012-06-02T14:05:30Z</time>
      </trkpt>
      <trkpt lat="44.51718" lon="3.08597">
        <ele>1101.33</ele>
        <time>2012-06-02T14:05:57Z</time>
      </trkpt>
      <trkpt lat="44.51727" lon="3.08592">
        <ele>1102.29</ele>
        <time>2012-06-02T14:06:05Z</time>
      </trkpt>
      <trkpt lat="44.51736" lon="3.08587">
        <ele>1102.29</ele>
        <time>2012-06-02T14:06:13Z</time>
      </trkpt>
      <trkpt lat="44.51745" lon="3.08582">
        <ele>1103.25</ele>
        <time>2012-06-02T14:06:22Z</time>
      </trkpt>
      <trkpt lat="44.51753" lon="3.08574">
        <ele>1103.25</ele>
        <time>2012-06-02T14:06:30Z</time>
      </trkpt>
      <trkpt lat="44.51759" lon="3.08566">
        <ele>1103.25</ele>
        <time>2012-06-02T14:06:41Z</time>
      </trkpt>
      <trkpt lat="44.51766" lon="3.08559">
        <ele>1104.21</ele>
        <time>2012-06-02T14:06:49Z</time>
      </trkpt>
      <trkpt lat="44.51774" lon="3.0855">
        <ele>1103.73</ele>
        <time>2012-06-02T14:06:57Z</time>
      </trkpt>
      <trkpt lat="44.51782" lon="3.08541">
        <ele>1104.21</ele>
        <time>2012-06-02T14:07:06Z</time>
      </trkpt>
      <trkpt lat="44.51789" lon="3.08533">
        <ele>1104.69</ele>
        <time>2012-06-02T14:07:14Z</time>
      </trkpt>
      <trkpt lat="44.51798" lon="3.08524">
        <ele>1105.17</ele>
        <time>2012-06-02T14:07:23Z</time>
      </trkpt>
      <trkpt lat="44.51806" lon="3.08516">
        <ele>1105.17</ele>
        <time>2012-06-02T14:07:31Z</time>
      </trkpt>
      <trkpt lat="44.51813" lon="3.08508">
        <ele>1106.13</ele>
        <time>2012-06-02T14:07:39Z</time>
      </trkpt>
      <trkpt lat="44.5182" lon="3.08499">
        <ele>1106.13</ele>
        <time>2012-06-02T14:07:47Z</time>
      </trkpt>
      <trkpt lat="44.51829" lon="3.0849">
        <ele>1107.1</ele>
        <time>2012-06-02T14:07:56Z</time>
      </trkpt>
      <trkpt lat="44.51836" lon="3.08482">
        <ele>1106.61</ele>
        <time>2012-06-02T14:08:04Z</time>
      </trkpt>
      <trkpt lat="44.51843" lon="3.08474">
        <ele>1107.1</ele>
        <time>2012-06-02T14:08:12Z</time>
      </trkpt>
      <trkpt lat="44.51851" lon="3.08466">
        <ele>1107.1</ele>
        <time>2012-06-02T14:08:20Z</time>
      </trkpt>
      <trkpt lat="44.51858" lon="3.08459">
        <ele>1107.58</ele>
        <time>2012-06-02T14:08:28Z</time>
      </trkpt>
      <trkpt lat="44.51865" lon="3.08451">
        <ele>1107.1</ele>
        <time>2012-06-02T14:08:36Z</time>
      </trkpt>
      <trkpt lat="44.51872" lon="3.08442">
        <ele>1108.06</ele>
        <time>2012-06-02T14:08:44Z</time>
      </trkpt>
      <trkpt lat="44.5188" lon="3.08435">
        <ele>1108.06</ele>
        <time>2012-06-02T14:08:52Z</time>
      </trkpt>
      <trkpt lat="44.51888" lon="3.08429">
        <ele>1108.54</ele>
        <time>2012-06-02T14:09:00Z</time>
      </trkpt>
      <trkpt lat="44.51897" lon="3.08425">
        <ele>1108.54</ele>
        <time>2012-06-02T14:09:08Z</time>
      </trkpt>
      <trkpt lat="44.51907" lon="3.08423">
        <ele>1109.02</ele>
        <time>2012-06-02T14:09:16Z</time>
      </trkpt>
      <trkpt lat="44.51915" lon="3.0843">
        <ele>1108.54</ele>
        <time>2012-06-02T14:09:25Z</time>
      </trkpt>
      <trkpt lat="44.51917" lon="3.08443">
        <ele>1109.02</ele>
        <time>2012-06-02T14:09:34Z</time>
      </trkpt>
      <trkpt lat="44.51916" lon="3.08455">
        <ele>1110.94</ele>
        <time>2012-06-02T14:09:45Z</time>
      </trkpt>
      <trkpt lat="44.51913" lon="3.08469">
        <ele>1111.42</ele>
        <time>2012-06-02T14:09:53Z</time>
      </trkpt>
      <trkpt lat="44.51911" lon="3.08483">
        <ele>1111.9</ele>
        <time>2012-06-02T14:10:02Z</time>
      </trkpt>
      <trkpt lat="44.51909" lon="3.08496">
        <ele>1112.86</ele>
        <time>2012-06-02T14:10:14Z</time>
      </trkpt>
      <trkpt lat="44.51907" lon="3.08509">
        <ele>1112.86</ele>
        <time>2012-06-02T14:10:23Z</time>
      </trkpt>
      <trkpt lat="44.51905" lon="3.08525">
        <ele>1113.34</ele>
        <time>2012-06-02T14:10:32Z</time>
      </trkpt>
      <trkpt lat="44.51903" lon="3.08539">
        <ele>1115.27</ele>
        <time>2012-06-02T14:10:41Z</time>
      </trkpt>
      <trkpt lat="44.51904" lon="3.08551">
        <ele>1115.27</ele>
        <time>2012-06-02T14:10:50Z</time>
      </trkpt>
      <trkpt lat="44.51909" lon="3.08563">
        <ele>1116.23</ele>
        <time>2012-06-02T14:10:59Z</time>
      </trkpt>
      <trkpt lat="44.51916" lon="3.08571">
        <ele>1116.23</ele>
        <time>2012-06-02T14:11:08Z</time>
      </trkpt>
      <trkpt lat="44.51926" lon="3.08575">
        <ele>1117.19</ele>
        <time>2012-06-02T14:11:17Z</time>
      </trkpt>
      <trkpt lat="44.51937" lon="3.08575">
        <ele>1117.67</ele>
        <time>2012-06-02T14:11:26Z</time>
      </trkpt>
      <trkpt lat="44.51946" lon="3.08576">
        <ele>1117.67</ele>
        <time>2012-06-02T14:11:35Z</time>
      </trkpt>
      <trkpt lat="44.51955" lon="3.08576">
        <ele>1118.15</ele>
        <time>2012-06-02T14:11:45Z</time>
      </trkpt>
      <trkpt lat="44.51965" lon="3.08578">
        <ele>1118.63</ele>
        <time>2012-06-02T14:11:54Z</time>
      </trkpt>
      <trkpt lat="44.51975" lon="3.08579">
        <ele>1119.11</ele>
        <time>2012-06-02T14:12:03Z</time>
      </trkpt>
      <trkpt lat="44.51985" lon="3.0858">
        <ele>1119.59</ele>
        <time>2012-06-02T14:12:12Z</time>
      </trkpt>
      <trkpt lat="44.51995" lon="3.08581">
        <ele>1120.55</ele>
        <time>2012-06-02T14:12:22Z</time>
      </trkpt>
      <trkpt lat="44.52004" lon="3.08581">
        <ele>1121.03</ele>
        <time>2012-06-02T14:12:31Z</time>
      </trkpt>
      <trkpt lat="44.52014" lon="3.08582">
        <ele>1122</ele>
        <time>2012-06-02T14:12:40Z</time>
      </trkpt>
      <trkpt lat="44.52025" lon="3.08582">
        <ele>1121.52</ele>
        <time>2012-06-02T14:12:49Z</time>
      </trkpt>
      <trkpt lat="44.52034" lon="3.08583">
        <ele>1122.48</ele>
        <time>2012-06-02T14:12:57Z</time>
      </trkpt>
      <trkpt lat="44.52043" lon="3.08585">
        <ele>1122.96</ele>
        <time>2012-06-02T14:13:06Z</time>
      </trkpt>
      <trkpt lat="44.52055" lon="3.08586">
        <ele>1123.92</ele>
        <time>2012-06-02T14:13:16Z</time>
      </trkpt>
      <trkpt lat="44.52064" lon="3.08587">
        <ele>1123.44</ele>
        <time>2012-06-02T14:13:25Z</time>
      </trkpt>
      <trkpt lat="44.52074" lon="3.08587">
        <ele>1124.4</ele>
        <time>2012-06-02T14:13:34Z</time>
      </trkpt>
      <trkpt lat="44.52084" lon="3.08588">
        <ele>1124.4</ele>
        <time>2012-06-02T14:13:43Z</time>
      </trkpt>
      <trkpt lat="44.52094" lon="3.08592">
        <ele>1125.36</ele>
        <time>2012-06-02T14:13:52Z</time>
      </trkpt>
      <trkpt lat="44.52104" lon="3.08596">
        <ele>1125.84</ele>
        <time>2012-06-02T14:14:02Z</time>
      </trkpt>
      <trkpt lat="44.52115" lon="3.08598">
        <ele>1126.8</ele>
        <time>2012-06-02T14:14:11Z</time>
      </trkpt>
      <trkpt lat="44.52125" lon="3.08601">
        <ele>1126.8</ele>
        <time>2012-06-02T14:14:20Z</time>
      </trkpt>
      <trkpt lat="44.52135" lon="3.08603">
        <ele>1127.76</ele>
        <time>2012-06-02T14:14:29Z</time>
      </trkpt>
      <trkpt lat="44.52145" lon="3.08605">
        <ele>1127.76</ele>
        <time>2012-06-02T14:14:38Z</time>
      </trkpt>
      <trkpt lat="44.52155" lon="3.08607">
        <ele>1128.73</ele>
        <time>2012-06-02T14:14:46Z</time>
      </trkpt>
      <trkpt lat="44.52164" lon="3.08609">
        <ele>1129.69</ele>
        <time>2012-06-02T14:14:54Z</time>
      </trkpt>
      <trkpt lat="44.52174" lon="3.08611">
        <ele>1129.69</ele>
        <time>2012-06-02T14:15:03Z</time>
      </trkpt>
      <trkpt lat="44.52184" lon="3.08613">
        <ele>1130.65</ele>
        <time>2012-06-02T14:15:13Z</time>
      </trkpt>
      <trkpt lat="44.52194" lon="3.08613">
        <ele>1131.61</ele>
        <time>2012-06-02T14:15:22Z</time>
      </trkpt>
      <trkpt lat="44.52206" lon="3.08616">
        <ele>1131.61</ele>
        <time>2012-06-02T14:15:32Z</time>
      </trkpt>
      <trkpt lat="44.52217" lon="3.08618">
        <ele>1132.57</ele>
        <time>2012-06-02T14:15:41Z</time>
      </trkpt>
      <trkpt lat="44.52228" lon="3.08618">
        <ele>1133.05</ele>
        <time>2012-06-02T14:15:50Z</time>
      </trkpt>
      <trkpt lat="44.52237" lon="3.0862">
        <ele>1134.01</ele>
        <time>2012-06-02T14:15:58Z</time>
      </trkpt>
      <trkpt lat="44.52247" lon="3.0862">
        <ele>1134.49</ele>
        <time>2012-06-02T14:16:07Z</time>
      </trkpt>
      <trkpt lat="44.52257" lon="3.0862">
        <ele>1134.97</ele>
        <time>2012-06-02T14:16:16Z</time>
      </trkpt>
      <trkpt lat="44.52267" lon="3.08619">
        <ele>1135.45</ele>
        <time>2012-06-02T14:16:25Z</time>
      </trkpt>
      <trkpt lat="44.52277" lon="3.08618">
        <ele>1135.94</ele>
        <time>2012-06-02T14:16:34Z</time>
      </trkpt>
      <trkpt lat="44.52288" lon="3.08618">
        <ele>1136.42</ele>
        <time>2012-06-02T14:16:43Z</time>
      </trkpt>
      <trkpt lat="44.52297" lon="3.08618">
        <ele>1137.38</ele>
        <time>2012-06-02T14:16:52Z</time>
      </trkpt>
      <trkpt lat="44.52307" lon="3.08616">
        <ele>1137.86</ele>
        <time>2012-06-02T14:17:01Z</time>
      </trkpt>
      <trkpt lat="44.52316" lon="3.08612">
        <ele>1138.34</ele>
        <time>2012-06-02T14:17:10Z</time>
      </trkpt>
      <trkpt lat="44.52326" lon="3.08609">
        <ele>1138.82</ele>
        <time>2012-06-02T14:17:19Z</time>
      </trkpt>
      <trkpt lat="44.52336" lon="3.08606">
        <ele>1140.26</ele>
        <time>2012-06-02T14:17:28Z</time>
      </trkpt>
      <trkpt lat="44.52346" lon="3.08604">
        <ele>1140.26</ele>
        <time>2012-06-02T14:17:37Z</time>
      </trkpt>
      <trkpt lat="44.52356" lon="3.08602">
        <ele>1141.7</ele>
        <time>2012-06-02T14:17:46Z</time>
      </trkpt>
      <trkpt lat="44.52366" lon="3.08601">
        <ele>1140.74</ele>
        <time>2012-06-02T14:17:55Z</time>
      </trkpt>
      <trkpt lat="44.52377" lon="3.086">
        <ele>1141.7</ele>
        <time>2012-06-02T14:18:05Z</time>
      </trkpt>
      <trkpt lat="44.52386" lon="3.08597">
        <ele>1142.18</ele>
        <time>2012-06-02T14:18:13Z</time>
      </trkpt>
      <trkpt lat="44.52395" lon="3.08595">
        <ele>1141.7</ele>
        <time>2012-06-02T14:18:22Z</time>
      </trkpt>
      <trkpt lat="44.52405" lon="3.08592">
        <ele>1141.22</ele>
        <time>2012-06-02T14:18:31Z</time>
      </trkpt>
      <trkpt lat="44.52415" lon="3.08589">
        <ele>1141.22</ele>
        <time>2012-06-02T14:18:40Z</time>
      </trkpt>
      <trkpt lat="44.52425" lon="3.08586">
        <ele>1141.7</ele>
        <time>2012-06-02T14:18:49Z</time>
      </trkpt>
      <trkpt lat="44.52435" lon="3.08583">
        <ele>1142.18</ele>
        <time>2012-06-02T14:18:58Z</time>
      </trkpt>
      <trkpt lat="44.52445" lon="3.08581">
        <ele>1141.7</ele>
        <time>2012-06-02T14:19:07Z</time>
      </trkpt>
      <trkpt lat="44.52456" lon="3.0858">
        <ele>1141.7</ele>
        <time>2012-06-02T14:19:17Z</time>
      </trkpt>
      <trkpt lat="44.52467" lon="3.08577">
        <ele>1141.22</ele>
        <time>2012-06-02T14:19:25Z</time>
      </trkpt>
      <trkpt lat="44.52477" lon="3.08577">
        <ele>1140.74</ele>
        <time>2012-06-02T14:19:33Z</time>
      </trkpt>
      <trkpt lat="44.52487" lon="3.08581">
        <ele>1140.26</ele>
        <time>2012-06-02T14:19:43Z</time>
      </trkpt>
      <trkpt lat="44.52496" lon="3.08589">
        <ele>1140.74</ele>
        <time>2012-06-02T14:19:52Z</time>
      </trkpt>
      <trkpt lat="44.52503" lon="3.08599">
        <ele>1141.22</ele>
        <time>2012-06-02T14:20:00Z</time>
      </trkpt>
      <trkpt lat="44.52507" lon="3.08612">
        <ele>1141.22</ele>
        <time>2012-06-02T14:20:09Z</time>
      </trkpt>
      <trkpt lat="44.52511" lon="3.08624">
        <ele>1140.74</ele>
        <time>2012-06-02T14:20:18Z</time>
      </trkpt>
      <trkpt lat="44.52515" lon="3.08636">
        <ele>1140.74</ele>
        <time>2012-06-02T14:20:26Z</time>
      </trkpt>
      <trkpt lat="44.52519" lon="3.08649">
        <ele>1140.74</ele>
        <time>2012-06-02T14:20:36Z</time>
      </trkpt>
      <trkpt lat="44.52523" lon="3.08661">
        <ele>1141.22</ele>
        <time>2012-06-02T14:20:44Z</time>
      </trkpt>
      <trkpt lat="44.52527" lon="3.08675">
        <ele>1141.22</ele>
        <time>2012-06-02T14:20:53Z</time>
      </trkpt>
      <trkpt lat="44.52531" lon="3.08687">
        <ele>1141.7</ele>
        <time>2012-06-02T14:21:02Z</time>
      </trkpt>
      <trkpt lat="44.52535" lon="3.08697">
        <ele>1142.66</ele>
        <time>2012-06-02T14:24:36Z</time>
      </trkpt>
      <trkpt lat="44.5254" lon="3.0871">
        <ele>1142.18</ele>
        <time>2012-06-02T14:24:46Z</time>
      </trkpt>
      <trkpt lat="44.52543" lon="3.08723">
        <ele>1143.14</ele>
        <time>2012-06-02T14:24:58Z</time>
      </trkpt>
      <trkpt lat="44.52547" lon="3.08736">
        <ele>1143.63</ele>
        <time>2012-06-02T14:25:07Z</time>
      </trkpt>
      <trkpt lat="44.52552" lon="3.08748">
        <ele>1143.63</ele>
        <time>2012-06-02T14:25:16Z</time>
      </trkpt>
      <trkpt lat="44.52557" lon="3.0876">
        <ele>1144.11</ele>
        <time>2012-06-02T14:25:25Z</time>
      </trkpt>
      <trkpt lat="44.52561" lon="3.08772">
        <ele>1145.07</ele>
        <time>2012-06-02T14:25:35Z</time>
      </trkpt>
      <trkpt lat="44.52565" lon="3.08784">
        <ele>1145.55</ele>
        <time>2012-06-02T14:25:44Z</time>
      </trkpt>
      <trkpt lat="44.5257" lon="3.08796">
        <ele>1145.55</ele>
        <time>2012-06-02T14:25:53Z</time>
      </trkpt>
      <trkpt lat="44.52575" lon="3.08808">
        <ele>1145.55</ele>
        <time>2012-06-02T14:26:04Z</time>
      </trkpt>
      <trkpt lat="44.52578" lon="3.0882">
        <ele>1147.47</ele>
        <time>2012-06-02T14:26:13Z</time>
      </trkpt>
      <trkpt lat="44.52583" lon="3.08831">
        <ele>1147.47</ele>
        <time>2012-06-02T14:26:21Z</time>
      </trkpt>
      <trkpt lat="44.52587" lon="3.08843">
        <ele>1148.43</ele>
        <time>2012-06-02T14:26:30Z</time>
      </trkpt>
      <trkpt lat="44.52591" lon="3.08854">
        <ele>1148.91</ele>
        <time>2012-06-02T14:26:39Z</time>
      </trkpt>
      <trkpt lat="44.52595" lon="3.08866">
        <ele>1149.39</ele>
        <time>2012-06-02T14:26:48Z</time>
      </trkpt>
      <trkpt lat="44.52601" lon="3.08876">
        <ele>1150.35</ele>
        <time>2012-06-02T14:26:57Z</time>
      </trkpt>
      <trkpt lat="44.52609" lon="3.08884">
        <ele>1150.84</ele>
        <time>2012-06-02T14:27:06Z</time>
      </trkpt>
      <trkpt lat="44.52616" lon="3.0889">
        <ele>1151.8</ele>
        <time>2012-06-02T14:27:17Z</time>
      </trkpt>
      <trkpt lat="44.52624" lon="3.08888">
        <ele>1151.8</ele>
        <time>2012-06-02T14:27:28Z</time>
      </trkpt>
      <trkpt lat="44.52635" lon="3.08888">
        <ele>1151.8</ele>
        <time>2012-06-02T14:27:38Z</time>
      </trkpt>
      <trkpt lat="44.52643" lon="3.0889">
        <ele>1151.8</ele>
        <time>2012-06-02T14:27:48Z</time>
      </trkpt>
      <trkpt lat="44.52653" lon="3.08889">
        <ele>1150.84</ele>
        <time>2012-06-02T14:27:58Z</time>
      </trkpt>
      <trkpt lat="44.52661" lon="3.08888">
        <ele>1150.84</ele>
        <time>2012-06-02T14:28:18Z</time>
      </trkpt>
      <trkpt lat="44.52671" lon="3.08887">
        <ele>1149.39</ele>
        <time>2012-06-02T14:28:26Z</time>
      </trkpt>
      <trkpt lat="44.5268" lon="3.08887">
        <ele>1150.84</ele>
        <time>2012-06-02T14:28:34Z</time>
      </trkpt>
      <trkpt lat="44.5269" lon="3.08886">
        <ele>1149.87</ele>
        <time>2012-06-02T14:28:42Z</time>
      </trkpt>
      <trkpt lat="44.52699" lon="3.08885">
        <ele>1149.39</ele>
        <time>2012-06-02T14:28:50Z</time>
      </trkpt>
      <trkpt lat="44.52709" lon="3.08883">
        <ele>1148.91</ele>
        <time>2012-06-02T14:28:59Z</time>
      </trkpt>
      <trkpt lat="44.52719" lon="3.08882">
        <ele>1147.95</ele>
        <time>2012-06-02T14:29:08Z</time>
      </trkpt>
      <trkpt lat="44.52728" lon="3.08881">
        <ele>1147.47</ele>
        <time>2012-06-02T14:29:16Z</time>
      </trkpt>
      <trkpt lat="44.52738" lon="3.08879">
        <ele>1147.47</ele>
        <time>2012-06-02T14:29:24Z</time>
      </trkpt>
      <trkpt lat="44.52747" lon="3.08877">
        <ele>1146.51</ele>
        <time>2012-06-02T14:29:42Z</time>
      </trkpt>
      <trkpt lat="44.52758" lon="3.08875">
        <ele>1146.99</ele>
        <time>2012-06-02T14:29:52Z</time>
      </trkpt>
      <trkpt lat="44.52768" lon="3.08873">
        <ele>1145.55</ele>
        <time>2012-06-02T14:30:01Z</time>
      </trkpt>
      <trkpt lat="44.52778" lon="3.08871">
        <ele>1145.55</ele>
        <time>2012-06-02T14:30:10Z</time>
      </trkpt>
      <trkpt lat="44.52788" lon="3.08869">
        <ele>1145.55</ele>
        <time>2012-06-02T14:30:19Z</time>
      </trkpt>
      <trkpt lat="44.52798" lon="3.08867">
        <ele>1145.07</ele>
        <time>2012-06-02T14:30:28Z</time>
      </trkpt>
      <trkpt lat="44.52807" lon="3.08865">
        <ele>1144.11</ele>
        <time>2012-06-02T14:30:36Z</time>
      </trkpt>
      <trkpt lat="44.52817" lon="3.08862">
        <ele>1143.63</ele>
        <time>2012-06-02T14:30:44Z</time>
      </trkpt>
      <trkpt lat="44.52826" lon="3.08861">
        <ele>1142.66</ele>
        <time>2012-06-02T14:30:54Z</time>
      </trkpt>
      <trkpt lat="44.52837" lon="3.08863">
        <ele>1141.22</ele>
        <time>2012-06-02T14:31:03Z</time>
      </trkpt>
      <trkpt lat="44.52845" lon="3.08867">
        <ele>1142.66</ele>
        <time>2012-06-02T14:31:11Z</time>
      </trkpt>
      <trkpt lat="44.52854" lon="3.08873">
        <ele>1141.7</ele>
        <time>2012-06-02T14:31:20Z</time>
      </trkpt>
      <trkpt lat="44.52864" lon="3.0888">
        <ele>1141.7</ele>
        <time>2012-06-02T14:31:28Z</time>
      </trkpt>
      <trkpt lat="44.52872" lon="3.08888">
        <ele>1140.74</ele>
        <time>2012-06-02T14:31:36Z</time>
      </trkpt>
      <trkpt lat="44.5288" lon="3.08894">
        <ele>1142.18</ele>
        <time>2012-06-02T14:31:44Z</time>
      </trkpt>
      <trkpt lat="44.52888" lon="3.089">
        <ele>1140.26</ele>
        <time>2012-06-02T14:31:53Z</time>
      </trkpt>
      <trkpt lat="44.52897" lon="3.08907">
        <ele>1141.7</ele>
        <time>2012-06-02T14:32:01Z</time>
      </trkpt>
      <trkpt lat="44.52905" lon="3.08913">
        <ele>1140.74</ele>
        <time>2012-06-02T14:32:08Z</time>
      </trkpt>
      <trkpt lat="44.52914" lon="3.08919">
        <ele>1140.26</ele>
        <time>2012-06-02T14:32:16Z</time>
      </trkpt>
      <trkpt lat="44.52923" lon="3.08923">
        <ele>1138.82</ele>
        <time>2012-06-02T14:32:24Z</time>
      </trkpt>
      <trkpt lat="44.52933" lon="3.08927">
        <ele>1138.34</ele>
        <time>2012-06-02T14:32:33Z</time>
      </trkpt>
      <trkpt lat="44.52942" lon="3.0893">
        <ele>1138.34</ele>
        <time>2012-06-02T14:32:41Z</time>
      </trkpt>
      <trkpt lat="44.52952" lon="3.08933">
        <ele>1138.34</ele>
        <time>2012-06-02T14:32:50Z</time>
      </trkpt>
      <trkpt lat="44.52963" lon="3.08936">
        <ele>1137.38</ele>
        <time>2012-06-02T14:32:59Z</time>
      </trkpt>
      <trkpt lat="44.52974" lon="3.08938">
        <ele>1137.38</ele>
        <time>2012-06-02T14:33:08Z</time>
      </trkpt>
      <trkpt lat="44.52984" lon="3.08941">
        <ele>1135.94</ele>
        <time>2012-06-02T14:33:17Z</time>
      </trkpt>
      <trkpt lat="44.52995" lon="3.08941">
        <ele>1135.45</ele>
        <time>2012-06-02T14:33:26Z</time>
      </trkpt>
      <trkpt lat="44.53006" lon="3.08941">
        <ele>1136.42</ele>
        <time>2012-06-02T14:33:35Z</time>
      </trkpt>
      <trkpt lat="44.53016" lon="3.08942">
        <ele>1134.49</ele>
        <time>2012-06-02T14:33:43Z</time>
      </trkpt>
      <trkpt lat="44.53026" lon="3.08944">
        <ele>1134.49</ele>
        <time>2012-06-02T14:33:51Z</time>
      </trkpt>
      <trkpt lat="44.53036" lon="3.08943">
        <ele>1133.05</ele>
        <time>2012-06-02T14:34:00Z</time>
      </trkpt>
      <trkpt lat="44.5305" lon="3.0894">
        <ele>1132.09</ele>
        <time>2012-06-02T14:34:11Z</time>
      </trkpt>
      <trkpt lat="44.53061" lon="3.08937">
        <ele>1132.09</ele>
        <time>2012-06-02T14:34:21Z</time>
      </trkpt>
      <trkpt lat="44.53071" lon="3.08937">
        <ele>1133.05</ele>
        <time>2012-06-02T14:34:30Z</time>
      </trkpt>
      <trkpt lat="44.53083" lon="3.08937">
        <ele>1132.57</ele>
        <time>2012-06-02T14:34:40Z</time>
      </trkpt>
      <trkpt lat="44.53093" lon="3.08931">
        <ele>1134.49</ele>
        <time>2012-06-02T14:34:50Z</time>
      </trkpt>
      <trkpt lat="44.53103" lon="3.08931">
        <ele>1133.53</ele>
        <time>2012-06-02T14:34:58Z</time>
      </trkpt>
      <trkpt lat="44.53112" lon="3.08937">
        <ele>1132.57</ele>
        <time>2012-06-02T14:35:06Z</time>
      </trkpt>
      <trkpt lat="44.53121" lon="3.08935">
        <ele>1133.53</ele>
        <time>2012-06-02T14:35:14Z</time>
      </trkpt>
      <trkpt lat="44.5313" lon="3.08932">
        <ele>1134.01</ele>
        <time>2012-06-02T14:35:23Z</time>
      </trkpt>
      <trkpt lat="44.5314" lon="3.08928">
        <ele>1134.01</ele>
        <time>2012-06-02T14:35:32Z</time>
      </trkpt>
      <trkpt lat="44.5315" lon="3.08926">
        <ele>1135.45</ele>
        <time>2012-06-02T14:35:40Z</time>
      </trkpt>
      <trkpt lat="44.53161" lon="3.08924">
        <ele>1134.49</ele>
        <time>2012-06-02T14:35:48Z</time>
      </trkpt>
      <trkpt lat="44.53169" lon="3.08922">
        <ele>1135.45</ele>
        <time>2012-06-02T14:35:56Z</time>
      </trkpt>
      <trkpt lat="44.53179" lon="3.08921">
        <ele>1134.97</ele>
        <time>2012-06-02T14:36:04Z</time>
      </trkpt>
      <trkpt lat="44.53189" lon="3.0892">
        <ele>1135.94</ele>
        <time>2012-06-02T14:36:13Z</time>
      </trkpt>
      <trkpt lat="44.53199" lon="3.08918">
        <ele>1136.42</ele>
        <time>2012-06-02T14:36:22Z</time>
      </trkpt>
      <trkpt lat="44.53209" lon="3.08921">
        <ele>1135.94</ele>
        <time>2012-06-02T14:36:30Z</time>
      </trkpt>
      <trkpt lat="44.53219" lon="3.08923">
        <ele>1136.9</ele>
        <time>2012-06-02T14:36:39Z</time>
      </trkpt>
      <trkpt lat="44.53229" lon="3.08928">
        <ele>1138.34</ele>
        <time>2012-06-02T14:36:48Z</time>
      </trkpt>
      <trkpt lat="44.53238" lon="3.08929">
        <ele>1137.38</ele>
        <time>2012-06-02T14:36:56Z</time>
      </trkpt>
      <trkpt lat="44.53248" lon="3.08929">
        <ele>1138.34</ele>
        <time>2012-06-02T14:37:04Z</time>
      </trkpt>
      <trkpt lat="44.53256" lon="3.08926">
        <ele>1138.34</ele>
        <time>2012-06-02T14:37:11Z</time>
      </trkpt>
      <trkpt lat="44.53265" lon="3.08921">
        <ele>1137.38</ele>
        <time>2012-06-02T14:37:19Z</time>
      </trkpt>
      <trkpt lat="44.53273" lon="3.08913">
        <ele>1138.34</ele>
        <time>2012-06-02T14:37:28Z</time>
      </trkpt>
      <trkpt lat="44.53281" lon="3.08905">
        <ele>1139.3</ele>
        <time>2012-06-02T14:37:36Z</time>
      </trkpt>
      <trkpt lat="44.53288" lon="3.08894">
        <ele>1138.82</ele>
        <time>2012-06-02T14:37:44Z</time>
      </trkpt>
      <trkpt lat="44.53295" lon="3.08884">
        <ele>1138.82</ele>
        <time>2012-06-02T14:37:52Z</time>
      </trkpt>
      <trkpt lat="44.53302" lon="3.08876">
        <ele>1139.3</ele>
        <time>2012-06-02T14:38:00Z</time>
      </trkpt>
      <trkpt lat="44.53309" lon="3.08867">
        <ele>1140.26</ele>
        <time>2012-06-02T14:38:08Z</time>
      </trkpt>
      <trkpt lat="44.53319" lon="3.0886">
        <ele>1140.26</ele>
        <time>2012-06-02T14:38:17Z</time>
      </trkpt>
      <trkpt lat="44.53329" lon="3.08855">
        <ele>1140.26</ele>
        <time>2012-06-02T14:38:25Z</time>
      </trkpt>
      <trkpt lat="44.53337" lon="3.08852">
        <ele>1140.74</ele>
        <time>2012-06-02T14:39:03Z</time>
      </trkpt>
      <trkpt lat="44.53347" lon="3.08849">
        <ele>1141.22</ele>
        <time>2012-06-02T14:39:12Z</time>
      </trkpt>
      <trkpt lat="44.53357" lon="3.08846">
        <ele>1140.26</ele>
        <time>2012-06-02T14:39:21Z</time>
      </trkpt>
      <trkpt lat="44.53367" lon="3.08843">
        <ele>1141.7</ele>
        <time>2012-06-02T14:39:29Z</time>
      </trkpt>
      <trkpt lat="44.53376" lon="3.0884">
        <ele>1141.7</ele>
        <time>2012-06-02T14:39:37Z</time>
      </trkpt>
      <trkpt lat="44.53386" lon="3.08837">
        <ele>1142.66</ele>
        <time>2012-06-02T14:39:45Z</time>
      </trkpt>
      <trkpt lat="44.53394" lon="3.08834">
        <ele>1141.7</ele>
        <time>2012-06-02T14:39:53Z</time>
      </trkpt>
      <trkpt lat="44.53404" lon="3.08831">
        <ele>1141.7</ele>
        <time>2012-06-02T14:40:02Z</time>
      </trkpt>
      <trkpt lat="44.53414" lon="3.08828">
        <ele>1141.7</ele>
        <time>2012-06-02T14:40:10Z</time>
      </trkpt>
      <trkpt lat="44.53424" lon="3.08825">
        <ele>1142.18</ele>
        <time>2012-06-02T14:40:19Z</time>
      </trkpt>
      <trkpt lat="44.53433" lon="3.08823">
        <ele>1142.66</ele>
        <time>2012-06-02T14:40:27Z</time>
      </trkpt>
      <trkpt lat="44.53443" lon="3.0882">
        <ele>1142.18</ele>
        <time>2012-06-02T14:40:35Z</time>
      </trkpt>
      <trkpt lat="44.53452" lon="3.08818">
        <ele>1142.18</ele>
        <time>2012-06-02T14:40:43Z</time>
      </trkpt>
      <trkpt lat="44.53462" lon="3.08812">
        <ele>1142.66</ele>
        <time>2012-06-02T14:40:52Z</time>
      </trkpt>
      <trkpt lat="44.53471" lon="3.08806">
        <ele>1143.14</ele>
        <time>2012-06-02T14:41:01Z</time>
      </trkpt>
      <trkpt lat="44.53481" lon="3.088">
        <ele>1143.63</ele>
        <time>2012-06-02T14:41:09Z</time>
      </trkpt>
      <trkpt lat="44.53489" lon="3.08794">
        <ele>1144.11</ele>
        <time>2012-06-02T14:41:17Z</time>
      </trkpt>
      <trkpt lat="44.53498" lon="3.08787">
        <ele>1144.59</ele>
        <time>2012-06-02T14:41:25Z</time>
      </trkpt>
      <trkpt lat="44.53506" lon="3.08781">
        <ele>1145.07</ele>
        <time>2012-06-02T14:41:34Z</time>
      </trkpt>
      <trkpt lat="44.53516" lon="3.08775">
        <ele>1143.63</ele>
        <time>2012-06-02T14:41:42Z</time>
      </trkpt>
      <trkpt lat="44.53526" lon="3.08772">
        <ele>1144.11</ele>
        <time>2012-06-02T14:41:51Z</time>
      </trkpt>
      <trkpt lat="44.53536" lon="3.08767">
        <ele>1146.03</ele>
        <time>2012-06-02T14:41:59Z</time>
      </trkpt>
      <trkpt lat="44.53545" lon="3.08762">
        <ele>1146.51</ele>
        <time>2012-06-02T14:42:07Z</time>
      </trkpt>
      <trkpt lat="44.53554" lon="3.08756">
        <ele>1144.59</ele>
        <time>2012-06-02T14:42:15Z</time>
      </trkpt>
      <trkpt lat="44.53563" lon="3.0875">
        <ele>1145.07</ele>
        <time>2012-06-02T14:42:23Z</time>
      </trkpt>
      <trkpt lat="44.53572" lon="3.08743">
        <ele>1146.51</ele>
        <time>2012-06-02T14:42:31Z</time>
      </trkpt>
      <trkpt lat="44.5358" lon="3.08736">
        <ele>1145.07</ele>
        <time>2012-06-02T14:42:39Z</time>
      </trkpt>
      <trkpt lat="44.53588" lon="3.08729">
        <ele>1146.99</ele>
        <time>2012-06-02T14:42:47Z</time>
      </trkpt>
      <trkpt lat="44.53596" lon="3.08722">
        <ele>1147.95</ele>
        <time>2012-06-02T14:42:55Z</time>
      </trkpt>
      <trkpt lat="44.53606" lon="3.08714">
        <ele>1146.03</ele>
        <time>2012-06-02T14:43:03Z</time>
      </trkpt>
      <trkpt lat="44.53615" lon="3.08708">
        <ele>1146.51</ele>
        <time>2012-06-02T14:43:12Z</time>
      </trkpt>
      <trkpt lat="44.53625" lon="3.08706">
        <ele>1146.51</ele>
        <time>2012-06-02T14:43:21Z</time>
      </trkpt>
      <trkpt lat="44.53636" lon="3.08705">
        <ele>1146.51</ele>
        <time>2012-06-02T14:43:30Z</time>
      </trkpt>
      <trkpt lat="44.53646" lon="3.08707">
        <ele>1147.47</ele>
        <time>2012-06-02T14:43:38Z</time>
      </trkpt>
      <trkpt lat="44.53656" lon="3.08716">
        <ele>1146.51</ele>
        <time>2012-06-02T14:43:47Z</time>
      </trkpt>
      <trkpt lat="44.53665" lon="3.08725">
        <ele>1146.99</ele>
        <time>2012-06-02T14:43:56Z</time>
      </trkpt>
      <trkpt lat="44.53672" lon="3.08734">
        <ele>1148.91</ele>
        <time>2012-06-02T14:44:06Z</time>
      </trkpt>
      <trkpt lat="44.53681" lon="3.08743">
        <ele>1149.39</ele>
        <time>2012-06-02T14:44:16Z</time>
      </trkpt>
      <trkpt lat="44.5369" lon="3.08752">
        <ele>1149.87</ele>
        <time>2012-06-02T14:44:26Z</time>
      </trkpt>
      <trkpt lat="44.53697" lon="3.08761">
        <ele>1149.87</ele>
        <time>2012-06-02T14:44:34Z</time>
      </trkpt>
      <trkpt lat="44.53704" lon="3.08771">
        <ele>1151.8</ele>
        <time>2012-06-02T14:44:43Z</time>
      </trkpt>
      <trkpt lat="44.53714" lon="3.08778">
        <ele>1151.8</ele>
        <time>2012-06-02T14:44:52Z</time>
      </trkpt>
      <trkpt lat="44.53723" lon="3.08785">
        <ele>1154.2</ele>
        <time>2012-06-02T14:45:03Z</time>
      </trkpt>
      <trkpt lat="44.53734" lon="3.08787">
        <ele>1154.2</ele>
        <time>2012-06-02T14:45:15Z</time>
      </trkpt>
      <trkpt lat="44.53744" lon="3.0879">
        <ele>1154.68</ele>
        <time>2012-06-02T14:45:26Z</time>
      </trkpt>
      <trkpt lat="44.53758" lon="3.08797">
        <ele>1155.16</ele>
        <time>2012-06-02T14:45:37Z</time>
      </trkpt>
      <trkpt lat="44.5377" lon="3.08806">
        <ele>1156.12</ele>
        <time>2012-06-02T14:45:49Z</time>
      </trkpt>
      <trkpt lat="44.53781" lon="3.08816">
        <ele>1158.53</ele>
        <time>2012-06-02T14:46:00Z</time>
      </trkpt>
      <trkpt lat="44.53792" lon="3.08831">
        <ele>1157.56</ele>
        <time>2012-06-02T14:46:13Z</time>
      </trkpt>
      <trkpt lat="44.53802" lon="3.08843">
        <ele>1158.53</ele>
        <time>2012-06-02T14:46:24Z</time>
      </trkpt>
      <trkpt lat="44.5381" lon="3.08852">
        <ele>1160.45</ele>
        <time>2012-06-02T14:46:34Z</time>
      </trkpt>
      <trkpt lat="44.53819" lon="3.08864">
        <ele>1159.97</ele>
        <time>2012-06-02T14:46:44Z</time>
      </trkpt>
      <trkpt lat="44.53828" lon="3.08877">
        <ele>1159.49</ele>
        <time>2012-06-02T14:46:52Z</time>
      </trkpt>
      <trkpt lat="44.53833" lon="3.08892">
        <ele>1160.45</ele>
        <time>2012-06-02T14:47:03Z</time>
      </trkpt>
      <trkpt lat="44.5384" lon="3.08906">
        <ele>1161.89</ele>
        <time>2012-06-02T14:47:14Z</time>
      </trkpt>
      <trkpt lat="44.5385" lon="3.08919">
        <ele>1162.37</ele>
        <time>2012-06-02T14:47:23Z</time>
      </trkpt>
      <trkpt lat="44.53857" lon="3.08931">
        <ele>1164.77</ele>
        <time>2012-06-02T14:47:33Z</time>
      </trkpt>
      <trkpt lat="44.53863" lon="3.08945">
        <ele>1163.81</ele>
        <time>2012-06-02T14:47:42Z</time>
      </trkpt>
      <trkpt lat="44.53867" lon="3.0896">
        <ele>1165.26</ele>
        <time>2012-06-02T14:47:52Z</time>
      </trkpt>
      <trkpt lat="44.53871" lon="3.08973">
        <ele>1166.7</ele>
        <time>2012-06-02T14:48:01Z</time>
      </trkpt>
      <trkpt lat="44.53874" lon="3.08986">
        <ele>1167.18</ele>
        <time>2012-06-02T14:48:10Z</time>
      </trkpt>
      <trkpt lat="44.53877" lon="3.09002">
        <ele>1166.22</ele>
        <time>2012-06-02T14:48:20Z</time>
      </trkpt>
      <trkpt lat="44.5388" lon="3.09017">
        <ele>1167.66</ele>
        <time>2012-06-02T14:48:29Z</time>
      </trkpt>
      <trkpt lat="44.53884" lon="3.09031">
        <ele>1168.14</ele>
        <time>2012-06-02T14:48:38Z</time>
      </trkpt>
      <trkpt lat="44.53889" lon="3.09043">
        <ele>1169.58</ele>
        <time>2012-06-02T14:48:47Z</time>
      </trkpt>
      <trkpt lat="44.53895" lon="3.09055">
        <ele>1171.02</ele>
        <time>2012-06-02T14:48:57Z</time>
      </trkpt>
      <trkpt lat="44.53901" lon="3.09068">
        <ele>1170.06</ele>
        <time>2012-06-02T14:49:06Z</time>
      </trkpt>
      <trkpt lat="44.53907" lon="3.09079">
        <ele>1170.54</ele>
        <time>2012-06-02T14:49:16Z</time>
      </trkpt>
      <trkpt lat="44.53915" lon="3.09092">
        <ele>1172.95</ele>
        <time>2012-06-02T14:49:27Z</time>
      </trkpt>
      <trkpt lat="44.53917" lon="3.09105">
        <ele>1172.95</ele>
        <time>2012-06-02T14:49:39Z</time>
      </trkpt>
      <trkpt lat="44.53924" lon="3.09119">
        <ele>1176.31</ele>
        <time>2012-06-02T14:49:53Z</time>
      </trkpt>
      <trkpt lat="44.53919" lon="3.09124">
        <ele>1173.91</ele>
        <time>2012-06-02T14:50:00Z</time>
      </trkpt>
      <trkpt lat="44.53914" lon="3.09125">
        <ele>1177.27</ele>
        <time>2012-06-02T14:50:04Z</time>
      </trkpt>
      <trkpt lat="44.53949" lon="3.09155">
        <ele>1176.79</ele>
        <time>2012-06-02T14:53:41Z</time>
      </trkpt>
      <trkpt lat="44.5394" lon="3.0917">
        <ele>1175.83</ele>
        <time>2012-06-02T14:53:51Z</time>
      </trkpt>
      <trkpt lat="44.53935" lon="3.09184">
        <ele>1179.19</ele>
        <time>2012-06-02T14:54:01Z</time>
      </trkpt>
      <trkpt lat="44.53928" lon="3.09199">
        <ele>1176.31</ele>
        <time>2012-06-02T14:54:11Z</time>
      </trkpt>
      <trkpt lat="44.53925" lon="3.09215">
        <ele>1178.71</ele>
        <time>2012-06-02T14:54:21Z</time>
      </trkpt>
      <trkpt lat="44.53923" lon="3.0923">
        <ele>1179.19</ele>
        <time>2012-06-02T14:54:35Z</time>
      </trkpt>
      <trkpt lat="44.53925" lon="3.09247">
        <ele>1182.56</ele>
        <time>2012-06-02T14:54:47Z</time>
      </trkpt>
      <trkpt lat="44.53926" lon="3.09262">
        <ele>1182.56</ele>
        <time>2012-06-02T14:54:57Z</time>
      </trkpt>
      <trkpt lat="44.53928" lon="3.09278">
        <ele>1185.92</ele>
        <time>2012-06-02T14:55:08Z</time>
      </trkpt>
      <trkpt lat="44.5393" lon="3.09293">
        <ele>1184</ele>
        <time>2012-06-02T14:55:19Z</time>
      </trkpt>
      <trkpt lat="44.53932" lon="3.09306">
        <ele>1186.88</ele>
        <time>2012-06-02T14:55:30Z</time>
      </trkpt>
      <trkpt lat="44.53935" lon="3.09321">
        <ele>1186.4</ele>
        <time>2012-06-02T14:55:40Z</time>
      </trkpt>
      <trkpt lat="44.53941" lon="3.09337">
        <ele>1187.85</ele>
        <time>2012-06-02T14:55:51Z</time>
      </trkpt>
      <trkpt lat="44.53949" lon="3.09346">
        <ele>1189.29</ele>
        <time>2012-06-02T14:56:01Z</time>
      </trkpt>
      <trkpt lat="44.53957" lon="3.09354">
        <ele>1191.69</ele>
        <time>2012-06-02T14:56:11Z</time>
      </trkpt>
      <trkpt lat="44.53965" lon="3.09362">
        <ele>1190.73</ele>
        <time>2012-06-02T14:56:20Z</time>
      </trkpt>
      <trkpt lat="44.53974" lon="3.0937">
        <ele>1192.65</ele>
        <time>2012-06-02T14:56:30Z</time>
      </trkpt>
      <trkpt lat="44.53982" lon="3.09378">
        <ele>1193.61</ele>
        <time>2012-06-02T14:56:40Z</time>
      </trkpt>
      <trkpt lat="44.5399" lon="3.09386">
        <ele>1196.98</ele>
        <time>2012-06-02T14:56:49Z</time>
      </trkpt>
      <trkpt lat="44.53998" lon="3.09397">
        <ele>1194.09</ele>
        <time>2012-06-02T14:56:58Z</time>
      </trkpt>
      <trkpt lat="44.54005" lon="3.09407">
        <ele>1197.94</ele>
        <time>2012-06-02T14:57:06Z</time>
      </trkpt>
      <trkpt lat="44.54011" lon="3.09414">
        <ele>1197.94</ele>
        <time>2012-06-02T14:57:15Z</time>
      </trkpt>
      <trkpt lat="44.54018" lon="3.09422">
        <ele>1197.94</ele>
        <time>2012-06-02T14:57:24Z</time>
      </trkpt>
      <trkpt lat="44.54025" lon="3.09434">
        <ele>1198.42</ele>
        <time>2012-06-02T14:57:34Z</time>
      </trkpt>
      <trkpt lat="44.54034" lon="3.09445">
        <ele>1199.86</ele>
        <time>2012-06-02T14:57:43Z</time>
      </trkpt>
      <trkpt lat="44.5404" lon="3.09457">
        <ele>1202.27</ele>
        <time>2012-06-02T14:57:53Z</time>
      </trkpt>
      <trkpt lat="44.5404" lon="3.09469">
        <ele>1198.9</ele>
        <time>2012-06-02T14:58:03Z</time>
      </trkpt>
      <trkpt lat="44.54036" lon="3.09484">
        <ele>1202.27</ele>
        <time>2012-06-02T14:58:13Z</time>
      </trkpt>
      <trkpt lat="44.54029" lon="3.09495">
        <ele>1201.79</ele>
        <time>2012-06-02T14:58:21Z</time>
      </trkpt>
      <trkpt lat="44.54023" lon="3.09505">
        <ele>1200.82</ele>
        <time>2012-06-02T14:58:30Z</time>
      </trkpt>
      <trkpt lat="44.54016" lon="3.09515">
        <ele>1204.67</ele>
        <time>2012-06-02T14:58:39Z</time>
      </trkpt>
      <trkpt lat="44.54008" lon="3.09526">
        <ele>1201.79</ele>
        <time>2012-06-02T14:58:48Z</time>
      </trkpt>
      <trkpt lat="44.54003" lon="3.09538">
        <ele>1207.55</ele>
        <time>2012-06-02T14:58:57Z</time>
      </trkpt>
      <trkpt lat="44.53999" lon="3.09551">
        <ele>1203.71</ele>
        <time>2012-06-02T14:59:05Z</time>
      </trkpt>
      <trkpt lat="44.53996" lon="3.09568">
        <ele>1203.71</ele>
        <time>2012-06-02T14:59:15Z</time>
      </trkpt>
      <trkpt lat="44.53998" lon="3.09585">
        <ele>1206.11</ele>
        <time>2012-06-02T14:59:26Z</time>
      </trkpt>
      <trkpt lat="44.54001" lon="3.096">
        <ele>1209.96</ele>
        <time>2012-06-02T14:59:36Z</time>
      </trkpt>
      <trkpt lat="44.54005" lon="3.09612">
        <ele>1211.4</ele>
        <time>2012-06-02T14:59:46Z</time>
      </trkpt>
      <trkpt lat="44.54011" lon="3.09628">
        <ele>1209.96</ele>
        <time>2012-06-02T14:59:57Z</time>
      </trkpt>
      <trkpt lat="44.54005" lon="3.09638">
        <ele>1210.44</ele>
        <time>2012-06-02T15:00:08Z</time>
      </trkpt>
      <trkpt lat="44.53996" lon="3.09637">
        <ele>1211.4</ele>
        <time>2012-06-02T15:00:17Z</time>
      </trkpt>
      <trkpt lat="44.53986" lon="3.09636">
        <ele>1208.51</ele>
        <time>2012-06-02T15:00:26Z</time>
      </trkpt>
      <trkpt lat="44.53978" lon="3.09636">
        <ele>1208.03</ele>
        <time>2012-06-02T15:00:34Z</time>
      </trkpt>
      <trkpt lat="44.53967" lon="3.09636">
        <ele>1206.11</ele>
        <time>2012-06-02T15:00:43Z</time>
      </trkpt>
      <trkpt lat="44.53958" lon="3.09641">
        <ele>1206.59</ele>
        <time>2012-06-02T15:00:51Z</time>
      </trkpt>
      <trkpt lat="44.53955" lon="3.09654">
        <ele>1205.63</ele>
        <time>2012-06-02T15:00:59Z</time>
      </trkpt>
      <trkpt lat="44.53954" lon="3.09669">
        <ele>1206.59</ele>
        <time>2012-06-02T15:01:07Z</time>
      </trkpt>
      <trkpt lat="44.53954" lon="3.09682">
        <ele>1205.63</ele>
        <time>2012-06-02T15:01:15Z</time>
      </trkpt>
      <trkpt lat="44.53953" lon="3.09697">
        <ele>1207.07</ele>
        <time>2012-06-02T15:01:24Z</time>
      </trkpt>
      <trkpt lat="44.53954" lon="3.09713">
        <ele>1207.07</ele>
        <time>2012-06-02T15:01:33Z</time>
      </trkpt>
      <trkpt lat="44.53955" lon="3.09726">
        <ele>1207.55</ele>
        <time>2012-06-02T15:01:45Z</time>
      </trkpt>
      <trkpt lat="44.53955" lon="3.09741">
        <ele>1208.51</ele>
        <time>2012-06-02T15:01:56Z</time>
      </trkpt>
      <trkpt lat="44.53957" lon="3.09764">
        <ele>1209</ele>
        <time>2012-06-02T15:02:19Z</time>
      </trkpt>
      <trkpt lat="44.53965" lon="3.09763">
        <ele>1210.92</ele>
        <time>2012-06-02T15:02:44Z</time>
      </trkpt>
      <trkpt lat="44.53976" lon="3.09762">
        <ele>1212.84</ele>
        <time>2012-06-02T15:02:56Z</time>
      </trkpt>
      <trkpt lat="44.53988" lon="3.09763">
        <ele>1213.32</ele>
        <time>2012-06-02T15:03:20Z</time>
      </trkpt>
      <trkpt lat="44.53998" lon="3.09766">
        <ele>1214.28</ele>
        <time>2012-06-02T15:03:31Z</time>
      </trkpt>
      <trkpt lat="44.54008" lon="3.09769">
        <ele>1215.24</ele>
        <time>2012-06-02T15:03:42Z</time>
      </trkpt>
      <trkpt lat="44.54016" lon="3.09764">
        <ele>1214.28</ele>
        <time>2012-06-02T15:04:21Z</time>
      </trkpt>
      <trkpt lat="44.54008" lon="3.09772">
        <ele>1213.8</ele>
        <time>2012-06-02T15:04:40Z</time>
      </trkpt>
    </trkseg>
  </trk>
</gpx>